<?xml version="1.0" encoding="UTF-8" standalone="no" ?>
<gpx xmlns="http://www.topografix.com/GPX/1/1" xmlns:xsi="http://www.w3.org/2001/XMLSchema-instance" xsi:schemaLocation="http://www.topografix.com/GPX/1/1 http://www.topografix.com/GPX/1/1/gpx.xsd" version="1.1" creator="VisuGPX - https://www.visugpx.com">
  <metadata>
    <name>2024-10-30  Randonnée TwoNav</name>
    <desc><![CDATA[2024-10-30_115433.trk]]></desc>
  </metadata>
  <trk>
    <name><![CDATA[2024-10-30  Randonnée TwoNav_1]]></name>
    <trkseg>
      <trkpt lat="48.14353" lon="6.68192">
        <ele>482.1</ele>
        <time>2024-10-30T10:54:33Z</time>
      </trkpt>
      <trkpt lat="48.14347" lon="6.68197">
        <ele>482.1</ele>
        <time>2024-10-30T10:54:34Z</time>
      </trkpt>
      <trkpt lat="48.14341" lon="6.68203">
        <ele>482.1</ele>
        <time>2024-10-30T10:54:51Z</time>
      </trkpt>
      <trkpt lat="48.14336" lon="6.68209">
        <ele>482</ele>
        <time>2024-10-30T10:54:58Z</time>
      </trkpt>
      <trkpt lat="48.1433" lon="6.68215">
        <ele>481.9</ele>
        <time>2024-10-30T10:55:07Z</time>
      </trkpt>
      <trkpt lat="48.14324" lon="6.68221">
        <ele>481.8</ele>
        <time>2024-10-30T10:55:16Z</time>
      </trkpt>
      <trkpt lat="48.14318" lon="6.68227">
        <ele>481.7</ele>
        <time>2024-10-30T10:55:24Z</time>
      </trkpt>
      <trkpt lat="48.14313" lon="6.68233">
        <ele>481.7</ele>
        <time>2024-10-30T10:55:33Z</time>
      </trkpt>
      <trkpt lat="48.14307" lon="6.68239">
        <ele>481.5</ele>
        <time>2024-10-30T10:55:33Z</time>
      </trkpt>
      <trkpt lat="48.14301" lon="6.68249">
        <ele>481.4</ele>
        <time>2024-10-30T10:55:42Z</time>
      </trkpt>
      <trkpt lat="48.14298" lon="6.68263">
        <ele>481.2</ele>
        <time>2024-10-30T10:55:50Z</time>
      </trkpt>
      <trkpt lat="48.14294" lon="6.68276">
        <ele>481</ele>
        <time>2024-10-30T10:55:58Z</time>
      </trkpt>
      <trkpt lat="48.14289" lon="6.68288">
        <ele>480.8</ele>
        <time>2024-10-30T10:56:06Z</time>
      </trkpt>
      <trkpt lat="48.14282" lon="6.68297">
        <ele>480.7</ele>
        <time>2024-10-30T10:56:14Z</time>
      </trkpt>
      <trkpt lat="48.14278" lon="6.68309">
        <ele>480.5</ele>
        <time>2024-10-30T10:56:21Z</time>
      </trkpt>
      <trkpt lat="48.14273" lon="6.68321">
        <ele>480.4</ele>
        <time>2024-10-30T10:56:28Z</time>
      </trkpt>
      <trkpt lat="48.14267" lon="6.68332">
        <ele>480.4</ele>
        <time>2024-10-30T10:56:35Z</time>
      </trkpt>
      <trkpt lat="48.14261" lon="6.68343">
        <ele>480.5</ele>
        <time>2024-10-30T10:56:43Z</time>
      </trkpt>
      <trkpt lat="48.14259" lon="6.68345">
        <ele>480.6</ele>
        <time>2024-10-30T10:56:51Z</time>
      </trkpt>
      <trkpt lat="48.14259" lon="6.68345">
        <ele>480.6</ele>
        <time>2024-10-30T10:56:52Z</time>
      </trkpt>
      <trkpt lat="48.14259" lon="6.68345">
        <ele>480.6</ele>
        <time>2024-10-30T10:56:53Z</time>
      </trkpt>
      <trkpt lat="48.14257" lon="6.68348">
        <ele>480.6</ele>
        <time>2024-10-30T10:56:56Z</time>
      </trkpt>
      <trkpt lat="48.14256" lon="6.6835">
        <ele>480.6</ele>
        <time>2024-10-30T10:56:57Z</time>
      </trkpt>
      <trkpt lat="48.14252" lon="6.68363">
        <ele>480.6</ele>
        <time>2024-10-30T10:57:04Z</time>
      </trkpt>
      <trkpt lat="48.14247" lon="6.68373">
        <ele>480.4</ele>
        <time>2024-10-30T10:57:11Z</time>
      </trkpt>
      <trkpt lat="48.14238" lon="6.68382">
        <ele>480.3</ele>
        <time>2024-10-30T10:57:19Z</time>
      </trkpt>
      <trkpt lat="48.1423" lon="6.68388">
        <ele>480.1</ele>
        <time>2024-10-30T10:57:26Z</time>
      </trkpt>
      <trkpt lat="48.14221" lon="6.68394">
        <ele>479.8</ele>
        <time>2024-10-30T10:57:33Z</time>
      </trkpt>
      <trkpt lat="48.14213" lon="6.68399">
        <ele>479.5</ele>
        <time>2024-10-30T10:57:40Z</time>
      </trkpt>
      <trkpt lat="48.14204" lon="6.68405">
        <ele>479.2</ele>
        <time>2024-10-30T10:57:47Z</time>
      </trkpt>
      <trkpt lat="48.14196" lon="6.68412">
        <ele>478.9</ele>
        <time>2024-10-30T10:57:54Z</time>
      </trkpt>
      <trkpt lat="48.14188" lon="6.6842">
        <ele>478.5</ele>
        <time>2024-10-30T10:58:01Z</time>
      </trkpt>
      <trkpt lat="48.1418" lon="6.68428">
        <ele>478.2</ele>
        <time>2024-10-30T10:58:08Z</time>
      </trkpt>
      <trkpt lat="48.14172" lon="6.68436">
        <ele>477.8</ele>
        <time>2024-10-30T10:58:16Z</time>
      </trkpt>
      <trkpt lat="48.14163" lon="6.68442">
        <ele>477.4</ele>
        <time>2024-10-30T10:58:24Z</time>
      </trkpt>
      <trkpt lat="48.14154" lon="6.68449">
        <ele>477</ele>
        <time>2024-10-30T10:58:32Z</time>
      </trkpt>
      <trkpt lat="48.14145" lon="6.68453">
        <ele>476.6</ele>
        <time>2024-10-30T10:58:40Z</time>
      </trkpt>
      <trkpt lat="48.14137" lon="6.6846">
        <ele>476.1</ele>
        <time>2024-10-30T10:58:47Z</time>
      </trkpt>
      <trkpt lat="48.14128" lon="6.68465">
        <ele>475.7</ele>
        <time>2024-10-30T10:58:53Z</time>
      </trkpt>
      <trkpt lat="48.1412" lon="6.6847">
        <ele>475.3</ele>
        <time>2024-10-30T10:58:59Z</time>
      </trkpt>
      <trkpt lat="48.14111" lon="6.68477">
        <ele>474.8</ele>
        <time>2024-10-30T10:59:06Z</time>
      </trkpt>
      <trkpt lat="48.14102" lon="6.68482">
        <ele>474.4</ele>
        <time>2024-10-30T10:59:14Z</time>
      </trkpt>
      <trkpt lat="48.14094" lon="6.68487">
        <ele>474</ele>
        <time>2024-10-30T10:59:22Z</time>
      </trkpt>
      <trkpt lat="48.14085" lon="6.68491">
        <ele>473.5</ele>
        <time>2024-10-30T10:59:30Z</time>
      </trkpt>
      <trkpt lat="48.1408" lon="6.68492">
        <ele>473.3</ele>
        <time>2024-10-30T10:59:38Z</time>
      </trkpt>
      <trkpt lat="48.1408" lon="6.68492">
        <ele>473.3</ele>
        <time>2024-10-30T10:59:39Z</time>
      </trkpt>
      <trkpt lat="48.1408" lon="6.68491">
        <ele>473.3</ele>
        <time>2024-10-30T10:59:53Z</time>
      </trkpt>
      <trkpt lat="48.1408" lon="6.68491">
        <ele>473.3</ele>
        <time>2024-10-30T10:59:54Z</time>
      </trkpt>
      <trkpt lat="48.1408" lon="6.68491">
        <ele>473.3</ele>
        <time>2024-10-30T10:59:55Z</time>
      </trkpt>
      <trkpt lat="48.1408" lon="6.68491">
        <ele>473.3</ele>
        <time>2024-10-30T10:59:56Z</time>
      </trkpt>
      <trkpt lat="48.1408" lon="6.68491">
        <ele>473.3</ele>
        <time>2024-10-30T10:59:57Z</time>
      </trkpt>
      <trkpt lat="48.14078" lon="6.6849">
        <ele>473.2</ele>
        <time>2024-10-30T11:00:03Z</time>
      </trkpt>
      <trkpt lat="48.14077" lon="6.6849">
        <ele>473.1</ele>
        <time>2024-10-30T11:00:04Z</time>
      </trkpt>
      <trkpt lat="48.14067" lon="6.68494">
        <ele>472.6</ele>
        <time>2024-10-30T11:00:10Z</time>
      </trkpt>
      <trkpt lat="48.14058" lon="6.68497">
        <ele>472</ele>
        <time>2024-10-30T11:00:17Z</time>
      </trkpt>
      <trkpt lat="48.14048" lon="6.68497">
        <ele>471.8</ele>
        <time>2024-10-30T11:00:24Z</time>
      </trkpt>
      <trkpt lat="48.14039" lon="6.68496">
        <ele>472.7</ele>
        <time>2024-10-30T11:00:32Z</time>
      </trkpt>
      <trkpt lat="48.14029" lon="6.68498">
        <ele>473.7</ele>
        <time>2024-10-30T11:00:38Z</time>
      </trkpt>
      <trkpt lat="48.14019" lon="6.68499">
        <ele>474.9</ele>
        <time>2024-10-30T11:00:45Z</time>
      </trkpt>
      <trkpt lat="48.1401" lon="6.68495">
        <ele>476.2</ele>
        <time>2024-10-30T11:00:57Z</time>
      </trkpt>
      <trkpt lat="48.14" lon="6.68495">
        <ele>477.8</ele>
        <time>2024-10-30T11:01:05Z</time>
      </trkpt>
      <trkpt lat="48.13991" lon="6.68493">
        <ele>480.2</ele>
        <time>2024-10-30T11:01:13Z</time>
      </trkpt>
      <trkpt lat="48.1399" lon="6.68479">
        <ele>482.1</ele>
        <time>2024-10-30T11:01:36Z</time>
      </trkpt>
      <trkpt lat="48.13993" lon="6.68471">
        <ele>483.7</ele>
        <time>2024-10-30T11:01:49Z</time>
      </trkpt>
      <trkpt lat="48.13993" lon="6.68472">
        <ele>483.8</ele>
        <time>2024-10-30T11:01:50Z</time>
      </trkpt>
      <trkpt lat="48.1399" lon="6.68477">
        <ele>484.8</ele>
        <time>2024-10-30T11:02:13Z</time>
      </trkpt>
      <trkpt lat="48.1399" lon="6.68477">
        <ele>485</ele>
        <time>2024-10-30T11:02:14Z</time>
      </trkpt>
      <trkpt lat="48.13994" lon="6.68471">
        <ele>486.3</ele>
        <time>2024-10-30T11:02:20Z</time>
      </trkpt>
      <trkpt lat="48.13994" lon="6.68471">
        <ele>486.3</ele>
        <time>2024-10-30T11:02:21Z</time>
      </trkpt>
      <trkpt lat="48.13994" lon="6.68471">
        <ele>486.3</ele>
        <time>2024-10-30T11:02:22Z</time>
      </trkpt>
      <trkpt lat="48.13994" lon="6.6847">
        <ele>486.5</ele>
        <time>2024-10-30T11:02:28Z</time>
      </trkpt>
      <trkpt lat="48.13995" lon="6.68469">
        <ele>486.7</ele>
        <time>2024-10-30T11:02:29Z</time>
      </trkpt>
      <trkpt lat="48.14003" lon="6.68463">
        <ele>488.8</ele>
        <time>2024-10-30T11:02:39Z</time>
      </trkpt>
      <trkpt lat="48.14012" lon="6.68456">
        <ele>491</ele>
        <time>2024-10-30T11:02:50Z</time>
      </trkpt>
      <trkpt lat="48.14021" lon="6.68453">
        <ele>493</ele>
        <time>2024-10-30T11:03:00Z</time>
      </trkpt>
      <trkpt lat="48.14029" lon="6.68444">
        <ele>495.1</ele>
        <time>2024-10-30T11:03:10Z</time>
      </trkpt>
      <trkpt lat="48.14038" lon="6.68439">
        <ele>497.3</ele>
        <time>2024-10-30T11:03:20Z</time>
      </trkpt>
      <trkpt lat="48.14045" lon="6.6843">
        <ele>499.3</ele>
        <time>2024-10-30T11:03:29Z</time>
      </trkpt>
      <trkpt lat="48.14053" lon="6.68424">
        <ele>501.3</ele>
        <time>2024-10-30T11:03:38Z</time>
      </trkpt>
      <trkpt lat="48.14061" lon="6.68415">
        <ele>503.3</ele>
        <time>2024-10-30T11:03:47Z</time>
      </trkpt>
      <trkpt lat="48.14067" lon="6.68405">
        <ele>505.1</ele>
        <time>2024-10-30T11:03:55Z</time>
      </trkpt>
      <trkpt lat="48.14072" lon="6.68404">
        <ele>506.2</ele>
        <time>2024-10-30T11:04:06Z</time>
      </trkpt>
      <trkpt lat="48.14072" lon="6.68404">
        <ele>506.2</ele>
        <time>2024-10-30T11:04:07Z</time>
      </trkpt>
      <trkpt lat="48.14072" lon="6.68405">
        <ele>506.3</ele>
        <time>2024-10-30T11:04:08Z</time>
      </trkpt>
      <trkpt lat="48.14073" lon="6.68404">
        <ele>506.3</ele>
        <time>2024-10-30T11:04:28Z</time>
      </trkpt>
      <trkpt lat="48.14073" lon="6.68403">
        <ele>506.4</ele>
        <time>2024-10-30T11:04:29Z</time>
      </trkpt>
      <trkpt lat="48.14073" lon="6.68403">
        <ele>506.5</ele>
        <time>2024-10-30T11:04:30Z</time>
      </trkpt>
      <trkpt lat="48.14082" lon="6.684">
        <ele>508.1</ele>
        <time>2024-10-30T11:04:37Z</time>
      </trkpt>
      <trkpt lat="48.14091" lon="6.68392">
        <ele>509.9</ele>
        <time>2024-10-30T11:04:48Z</time>
      </trkpt>
      <trkpt lat="48.14098" lon="6.68384">
        <ele>511.5</ele>
        <time>2024-10-30T11:04:54Z</time>
      </trkpt>
      <trkpt lat="48.14107" lon="6.68375">
        <ele>513.6</ele>
        <time>2024-10-30T11:05:02Z</time>
      </trkpt>
      <trkpt lat="48.14115" lon="6.68366">
        <ele>515.5</ele>
        <time>2024-10-30T11:05:09Z</time>
      </trkpt>
      <trkpt lat="48.14122" lon="6.68354">
        <ele>517.5</ele>
        <time>2024-10-30T11:05:18Z</time>
      </trkpt>
      <trkpt lat="48.14127" lon="6.68343">
        <ele>519.1</ele>
        <time>2024-10-30T11:05:25Z</time>
      </trkpt>
      <trkpt lat="48.14132" lon="6.68331">
        <ele>520.7</ele>
        <time>2024-10-30T11:05:32Z</time>
      </trkpt>
      <trkpt lat="48.14138" lon="6.6832">
        <ele>522.2</ele>
        <time>2024-10-30T11:05:40Z</time>
      </trkpt>
      <trkpt lat="48.14143" lon="6.68309">
        <ele>523.5</ele>
        <time>2024-10-30T11:05:49Z</time>
      </trkpt>
      <trkpt lat="48.14147" lon="6.68296">
        <ele>524</ele>
        <time>2024-10-30T11:05:57Z</time>
      </trkpt>
      <trkpt lat="48.14152" lon="6.68284">
        <ele>524.1</ele>
        <time>2024-10-30T11:06:06Z</time>
      </trkpt>
      <trkpt lat="48.14159" lon="6.68274">
        <ele>524.2</ele>
        <time>2024-10-30T11:06:15Z</time>
      </trkpt>
      <trkpt lat="48.14163" lon="6.68261">
        <ele>524.2</ele>
        <time>2024-10-30T11:06:24Z</time>
      </trkpt>
      <trkpt lat="48.14168" lon="6.68249">
        <ele>524.3</ele>
        <time>2024-10-30T11:06:32Z</time>
      </trkpt>
      <trkpt lat="48.14173" lon="6.68238">
        <ele>524.8</ele>
        <time>2024-10-30T11:06:40Z</time>
      </trkpt>
      <trkpt lat="48.14175" lon="6.68225">
        <ele>525.6</ele>
        <time>2024-10-30T11:06:48Z</time>
      </trkpt>
      <trkpt lat="48.14179" lon="6.68211">
        <ele>526.6</ele>
        <time>2024-10-30T11:06:56Z</time>
      </trkpt>
      <trkpt lat="48.14182" lon="6.68197">
        <ele>527.7</ele>
        <time>2024-10-30T11:07:05Z</time>
      </trkpt>
      <trkpt lat="48.14183" lon="6.68182">
        <ele>528.9</ele>
        <time>2024-10-30T11:07:13Z</time>
      </trkpt>
      <trkpt lat="48.14185" lon="6.68169">
        <ele>529.9</ele>
        <time>2024-10-30T11:07:22Z</time>
      </trkpt>
      <trkpt lat="48.14184" lon="6.68155">
        <ele>530.9</ele>
        <time>2024-10-30T11:07:32Z</time>
      </trkpt>
      <trkpt lat="48.14184" lon="6.68141">
        <ele>531.9</ele>
        <time>2024-10-30T11:07:41Z</time>
      </trkpt>
      <trkpt lat="48.14183" lon="6.68127">
        <ele>532.7</ele>
        <time>2024-10-30T11:07:49Z</time>
      </trkpt>
      <trkpt lat="48.14179" lon="6.68115">
        <ele>533.3</ele>
        <time>2024-10-30T11:07:56Z</time>
      </trkpt>
      <trkpt lat="48.14179" lon="6.68101">
        <ele>533.6</ele>
        <time>2024-10-30T11:08:03Z</time>
      </trkpt>
      <trkpt lat="48.14179" lon="6.68087">
        <ele>533.6</ele>
        <time>2024-10-30T11:08:11Z</time>
      </trkpt>
      <trkpt lat="48.14177" lon="6.68073">
        <ele>533.5</ele>
        <time>2024-10-30T11:08:19Z</time>
      </trkpt>
      <trkpt lat="48.14178" lon="6.68058">
        <ele>533.3</ele>
        <time>2024-10-30T11:08:27Z</time>
      </trkpt>
      <trkpt lat="48.14182" lon="6.68046">
        <ele>533.2</ele>
        <time>2024-10-30T11:08:34Z</time>
      </trkpt>
      <trkpt lat="48.14188" lon="6.68034">
        <ele>533.4</ele>
        <time>2024-10-30T11:08:42Z</time>
      </trkpt>
      <trkpt lat="48.14193" lon="6.68023">
        <ele>533.8</ele>
        <time>2024-10-30T11:08:49Z</time>
      </trkpt>
      <trkpt lat="48.14198" lon="6.68011">
        <ele>534.3</ele>
        <time>2024-10-30T11:08:57Z</time>
      </trkpt>
      <trkpt lat="48.14203" lon="6.67999">
        <ele>534.7</ele>
        <time>2024-10-30T11:09:04Z</time>
      </trkpt>
      <trkpt lat="48.1421" lon="6.67989">
        <ele>535</ele>
        <time>2024-10-30T11:09:11Z</time>
      </trkpt>
      <trkpt lat="48.14217" lon="6.67979">
        <ele>535.1</ele>
        <time>2024-10-30T11:09:19Z</time>
      </trkpt>
      <trkpt lat="48.14226" lon="6.67976">
        <ele>535.1</ele>
        <time>2024-10-30T11:09:26Z</time>
      </trkpt>
      <trkpt lat="48.14234" lon="6.67968">
        <ele>534.9</ele>
        <time>2024-10-30T11:09:35Z</time>
      </trkpt>
      <trkpt lat="48.14242" lon="6.67962">
        <ele>534.6</ele>
        <time>2024-10-30T11:09:45Z</time>
      </trkpt>
      <trkpt lat="48.14251" lon="6.67956">
        <ele>534.4</ele>
        <time>2024-10-30T11:09:54Z</time>
      </trkpt>
      <trkpt lat="48.14259" lon="6.6795">
        <ele>534.1</ele>
        <time>2024-10-30T11:10:03Z</time>
      </trkpt>
      <trkpt lat="48.14267" lon="6.67942">
        <ele>533.8</ele>
        <time>2024-10-30T11:10:10Z</time>
      </trkpt>
      <trkpt lat="48.14274" lon="6.67933">
        <ele>533.5</ele>
        <time>2024-10-30T11:10:17Z</time>
      </trkpt>
      <trkpt lat="48.14282" lon="6.67922">
        <ele>533.1</ele>
        <time>2024-10-30T11:10:24Z</time>
      </trkpt>
      <trkpt lat="48.14289" lon="6.67911">
        <ele>532.8</ele>
        <time>2024-10-30T11:10:30Z</time>
      </trkpt>
      <trkpt lat="48.14294" lon="6.679">
        <ele>532.6</ele>
        <time>2024-10-30T11:10:38Z</time>
      </trkpt>
      <trkpt lat="48.14302" lon="6.6789">
        <ele>532.6</ele>
        <time>2024-10-30T11:10:46Z</time>
      </trkpt>
      <trkpt lat="48.14309" lon="6.6788">
        <ele>532.9</ele>
        <time>2024-10-30T11:10:54Z</time>
      </trkpt>
      <trkpt lat="48.14316" lon="6.67869">
        <ele>533.3</ele>
        <time>2024-10-30T11:11:01Z</time>
      </trkpt>
      <trkpt lat="48.14322" lon="6.67859">
        <ele>533.5</ele>
        <time>2024-10-30T11:11:09Z</time>
      </trkpt>
      <trkpt lat="48.14328" lon="6.67847">
        <ele>533.5</ele>
        <time>2024-10-30T11:11:18Z</time>
      </trkpt>
      <trkpt lat="48.14335" lon="6.67836">
        <ele>533.3</ele>
        <time>2024-10-30T11:11:26Z</time>
      </trkpt>
      <trkpt lat="48.14342" lon="6.67827">
        <ele>532.9</ele>
        <time>2024-10-30T11:11:34Z</time>
      </trkpt>
      <trkpt lat="48.14348" lon="6.67817">
        <ele>532.5</ele>
        <time>2024-10-30T11:11:42Z</time>
      </trkpt>
      <trkpt lat="48.14354" lon="6.67805">
        <ele>532</ele>
        <time>2024-10-30T11:11:52Z</time>
      </trkpt>
      <trkpt lat="48.1436" lon="6.67794">
        <ele>531.5</ele>
        <time>2024-10-30T11:12:01Z</time>
      </trkpt>
      <trkpt lat="48.14367" lon="6.67782">
        <ele>531</ele>
        <time>2024-10-30T11:12:10Z</time>
      </trkpt>
      <trkpt lat="48.14374" lon="6.67773">
        <ele>530.6</ele>
        <time>2024-10-30T11:12:17Z</time>
      </trkpt>
      <trkpt lat="48.14381" lon="6.67761">
        <ele>530</ele>
        <time>2024-10-30T11:12:25Z</time>
      </trkpt>
      <trkpt lat="48.14389" lon="6.67752">
        <ele>529.5</ele>
        <time>2024-10-30T11:12:31Z</time>
      </trkpt>
      <trkpt lat="48.14396" lon="6.67745">
        <ele>529.1</ele>
        <time>2024-10-30T11:12:38Z</time>
      </trkpt>
      <trkpt lat="48.14405" lon="6.67737">
        <ele>528.8</ele>
        <time>2024-10-30T11:12:47Z</time>
      </trkpt>
      <trkpt lat="48.14413" lon="6.67731">
        <ele>528.8</ele>
        <time>2024-10-30T11:12:55Z</time>
      </trkpt>
      <trkpt lat="48.14422" lon="6.67725">
        <ele>529</ele>
        <time>2024-10-30T11:13:06Z</time>
      </trkpt>
      <trkpt lat="48.1443" lon="6.67717">
        <ele>529.3</ele>
        <time>2024-10-30T11:13:17Z</time>
      </trkpt>
      <trkpt lat="48.14438" lon="6.67711">
        <ele>529.7</ele>
        <time>2024-10-30T11:13:26Z</time>
      </trkpt>
      <trkpt lat="48.14446" lon="6.67703">
        <ele>530.2</ele>
        <time>2024-10-30T11:13:35Z</time>
      </trkpt>
      <trkpt lat="48.14455" lon="6.67697">
        <ele>530.7</ele>
        <time>2024-10-30T11:13:43Z</time>
      </trkpt>
      <trkpt lat="48.14463" lon="6.6769">
        <ele>531.2</ele>
        <time>2024-10-30T11:13:51Z</time>
      </trkpt>
      <trkpt lat="48.14471" lon="6.67684">
        <ele>531.7</ele>
        <time>2024-10-30T11:14:00Z</time>
      </trkpt>
      <trkpt lat="48.14477" lon="6.67673">
        <ele>532.2</ele>
        <time>2024-10-30T11:14:10Z</time>
      </trkpt>
      <trkpt lat="48.14484" lon="6.67664">
        <ele>532.7</ele>
        <time>2024-10-30T11:14:20Z</time>
      </trkpt>
      <trkpt lat="48.14491" lon="6.67655">
        <ele>533.3</ele>
        <time>2024-10-30T11:14:30Z</time>
      </trkpt>
      <trkpt lat="48.14499" lon="6.67649">
        <ele>533.9</ele>
        <time>2024-10-30T11:14:38Z</time>
      </trkpt>
      <trkpt lat="48.14507" lon="6.67641">
        <ele>534.6</ele>
        <time>2024-10-30T11:14:49Z</time>
      </trkpt>
      <trkpt lat="48.14515" lon="6.67633">
        <ele>535.2</ele>
        <time>2024-10-30T11:14:58Z</time>
      </trkpt>
      <trkpt lat="48.14523" lon="6.67625">
        <ele>535.8</ele>
        <time>2024-10-30T11:15:07Z</time>
      </trkpt>
      <trkpt lat="48.14531" lon="6.67617">
        <ele>536.3</ele>
        <time>2024-10-30T11:15:15Z</time>
      </trkpt>
      <trkpt lat="48.14538" lon="6.67607">
        <ele>536.9</ele>
        <time>2024-10-30T11:15:24Z</time>
      </trkpt>
      <trkpt lat="48.14545" lon="6.67597">
        <ele>537.7</ele>
        <time>2024-10-30T11:15:33Z</time>
      </trkpt>
      <trkpt lat="48.14553" lon="6.67587">
        <ele>538.4</ele>
        <time>2024-10-30T11:15:45Z</time>
      </trkpt>
      <trkpt lat="48.14559" lon="6.67577">
        <ele>539.1</ele>
        <time>2024-10-30T11:15:53Z</time>
      </trkpt>
      <trkpt lat="48.14566" lon="6.67566">
        <ele>539.6</ele>
        <time>2024-10-30T11:16:01Z</time>
      </trkpt>
      <trkpt lat="48.14572" lon="6.67555">
        <ele>540.1</ele>
        <time>2024-10-30T11:16:10Z</time>
      </trkpt>
      <trkpt lat="48.1458" lon="6.67547">
        <ele>540.4</ele>
        <time>2024-10-30T11:16:18Z</time>
      </trkpt>
      <trkpt lat="48.14585" lon="6.67533">
        <ele>540.6</ele>
        <time>2024-10-30T11:16:26Z</time>
      </trkpt>
      <trkpt lat="48.14592" lon="6.67523">
        <ele>540.8</ele>
        <time>2024-10-30T11:16:34Z</time>
      </trkpt>
      <trkpt lat="48.146" lon="6.67514">
        <ele>541</ele>
        <time>2024-10-30T11:16:41Z</time>
      </trkpt>
      <trkpt lat="48.14606" lon="6.67503">
        <ele>541.1</ele>
        <time>2024-10-30T11:16:48Z</time>
      </trkpt>
      <trkpt lat="48.14611" lon="6.6749">
        <ele>541.1</ele>
        <time>2024-10-30T11:16:56Z</time>
      </trkpt>
      <trkpt lat="48.14618" lon="6.6748">
        <ele>540.9</ele>
        <time>2024-10-30T11:17:03Z</time>
      </trkpt>
      <trkpt lat="48.14625" lon="6.6747">
        <ele>540.5</ele>
        <time>2024-10-30T11:17:10Z</time>
      </trkpt>
      <trkpt lat="48.1463" lon="6.67459">
        <ele>540</ele>
        <time>2024-10-30T11:17:17Z</time>
      </trkpt>
      <trkpt lat="48.14634" lon="6.67446">
        <ele>539.5</ele>
        <time>2024-10-30T11:17:25Z</time>
      </trkpt>
      <trkpt lat="48.14639" lon="6.67432">
        <ele>539.2</ele>
        <time>2024-10-30T11:17:33Z</time>
      </trkpt>
      <trkpt lat="48.14641" lon="6.67418">
        <ele>539</ele>
        <time>2024-10-30T11:17:40Z</time>
      </trkpt>
      <trkpt lat="48.1464" lon="6.67405">
        <ele>539</ele>
        <time>2024-10-30T11:17:47Z</time>
      </trkpt>
      <trkpt lat="48.1464" lon="6.6739">
        <ele>538.9</ele>
        <time>2024-10-30T11:17:55Z</time>
      </trkpt>
      <trkpt lat="48.1464" lon="6.67375">
        <ele>538.9</ele>
        <time>2024-10-30T11:18:03Z</time>
      </trkpt>
      <trkpt lat="48.1464" lon="6.6736">
        <ele>538.9</ele>
        <time>2024-10-30T11:18:11Z</time>
      </trkpt>
      <trkpt lat="48.14638" lon="6.67346">
        <ele>538.9</ele>
        <time>2024-10-30T11:18:19Z</time>
      </trkpt>
      <trkpt lat="48.14637" lon="6.67332">
        <ele>538.8</ele>
        <time>2024-10-30T11:18:28Z</time>
      </trkpt>
      <trkpt lat="48.14636" lon="6.67317">
        <ele>538.8</ele>
        <time>2024-10-30T11:18:37Z</time>
      </trkpt>
      <trkpt lat="48.14634" lon="6.67304">
        <ele>538.9</ele>
        <time>2024-10-30T11:18:46Z</time>
      </trkpt>
      <trkpt lat="48.1463" lon="6.6729">
        <ele>538.9</ele>
        <time>2024-10-30T11:18:55Z</time>
      </trkpt>
      <trkpt lat="48.14627" lon="6.67276">
        <ele>538.8</ele>
        <time>2024-10-30T11:19:03Z</time>
      </trkpt>
      <trkpt lat="48.14623" lon="6.67262">
        <ele>538.6</ele>
        <time>2024-10-30T11:19:12Z</time>
      </trkpt>
      <trkpt lat="48.1462" lon="6.67248">
        <ele>538.3</ele>
        <time>2024-10-30T11:19:21Z</time>
      </trkpt>
      <trkpt lat="48.14617" lon="6.67234">
        <ele>537.9</ele>
        <time>2024-10-30T11:19:29Z</time>
      </trkpt>
      <trkpt lat="48.14617" lon="6.6722">
        <ele>537.5</ele>
        <time>2024-10-30T11:19:37Z</time>
      </trkpt>
      <trkpt lat="48.14618" lon="6.67206">
        <ele>537.2</ele>
        <time>2024-10-30T11:19:45Z</time>
      </trkpt>
      <trkpt lat="48.14623" lon="6.67193">
        <ele>536.9</ele>
        <time>2024-10-30T11:19:53Z</time>
      </trkpt>
      <trkpt lat="48.1463" lon="6.67183">
        <ele>536.8</ele>
        <time>2024-10-30T11:20:02Z</time>
      </trkpt>
      <trkpt lat="48.14639" lon="6.67174">
        <ele>536.8</ele>
        <time>2024-10-30T11:20:09Z</time>
      </trkpt>
      <trkpt lat="48.14644" lon="6.67163">
        <ele>536.9</ele>
        <time>2024-10-30T11:20:17Z</time>
      </trkpt>
      <trkpt lat="48.14649" lon="6.67151">
        <ele>537</ele>
        <time>2024-10-30T11:20:26Z</time>
      </trkpt>
      <trkpt lat="48.14654" lon="6.67138">
        <ele>537.2</ele>
        <time>2024-10-30T11:20:34Z</time>
      </trkpt>
      <trkpt lat="48.14657" lon="6.67124">
        <ele>537.1</ele>
        <time>2024-10-30T11:20:42Z</time>
      </trkpt>
      <trkpt lat="48.14659" lon="6.6711">
        <ele>536.8</ele>
        <time>2024-10-30T11:20:50Z</time>
      </trkpt>
      <trkpt lat="48.14662" lon="6.67097">
        <ele>536.4</ele>
        <time>2024-10-30T11:20:57Z</time>
      </trkpt>
      <trkpt lat="48.14666" lon="6.67084">
        <ele>535.8</ele>
        <time>2024-10-30T11:21:05Z</time>
      </trkpt>
      <trkpt lat="48.1467" lon="6.6707">
        <ele>535.3</ele>
        <time>2024-10-30T11:21:13Z</time>
      </trkpt>
      <trkpt lat="48.14675" lon="6.67058">
        <ele>535</ele>
        <time>2024-10-30T11:21:20Z</time>
      </trkpt>
      <trkpt lat="48.14684" lon="6.67051">
        <ele>535</ele>
        <time>2024-10-30T11:21:28Z</time>
      </trkpt>
      <trkpt lat="48.14693" lon="6.67047">
        <ele>535.3</ele>
        <time>2024-10-30T11:21:39Z</time>
      </trkpt>
      <trkpt lat="48.14702" lon="6.67046">
        <ele>535.6</ele>
        <time>2024-10-30T11:21:49Z</time>
      </trkpt>
      <trkpt lat="48.14712" lon="6.6704">
        <ele>535.9</ele>
        <time>2024-10-30T11:21:56Z</time>
      </trkpt>
      <trkpt lat="48.14721" lon="6.67034">
        <ele>535.8</ele>
        <time>2024-10-30T11:22:04Z</time>
      </trkpt>
      <trkpt lat="48.14728" lon="6.67026">
        <ele>535.5</ele>
        <time>2024-10-30T11:22:11Z</time>
      </trkpt>
      <trkpt lat="48.14736" lon="6.67017">
        <ele>535</ele>
        <time>2024-10-30T11:22:18Z</time>
      </trkpt>
      <trkpt lat="48.14743" lon="6.67006">
        <ele>534.5</ele>
        <time>2024-10-30T11:22:29Z</time>
      </trkpt>
      <trkpt lat="48.1475" lon="6.66995">
        <ele>533.9</ele>
        <time>2024-10-30T11:22:39Z</time>
      </trkpt>
      <trkpt lat="48.14755" lon="6.66984">
        <ele>533.4</ele>
        <time>2024-10-30T11:22:46Z</time>
      </trkpt>
      <trkpt lat="48.14761" lon="6.66972">
        <ele>533.1</ele>
        <time>2024-10-30T11:22:52Z</time>
      </trkpt>
      <trkpt lat="48.14765" lon="6.66959">
        <ele>532.8</ele>
        <time>2024-10-30T11:22:59Z</time>
      </trkpt>
      <trkpt lat="48.1477" lon="6.66947">
        <ele>532.8</ele>
        <time>2024-10-30T11:23:06Z</time>
      </trkpt>
      <trkpt lat="48.14776" lon="6.66935">
        <ele>532.8</ele>
        <time>2024-10-30T11:23:13Z</time>
      </trkpt>
      <trkpt lat="48.1478" lon="6.66921">
        <ele>533</ele>
        <time>2024-10-30T11:23:20Z</time>
      </trkpt>
      <trkpt lat="48.14781" lon="6.66907">
        <ele>533.1</ele>
        <time>2024-10-30T11:23:28Z</time>
      </trkpt>
      <trkpt lat="48.14781" lon="6.66892">
        <ele>533.2</ele>
        <time>2024-10-30T11:23:36Z</time>
      </trkpt>
      <trkpt lat="48.14779" lon="6.66878">
        <ele>533.4</ele>
        <time>2024-10-30T11:23:44Z</time>
      </trkpt>
      <trkpt lat="48.14777" lon="6.66863">
        <ele>533.7</ele>
        <time>2024-10-30T11:23:54Z</time>
      </trkpt>
      <trkpt lat="48.14775" lon="6.66849">
        <ele>534.3</ele>
        <time>2024-10-30T11:24:03Z</time>
      </trkpt>
      <trkpt lat="48.14771" lon="6.66835">
        <ele>535.3</ele>
        <time>2024-10-30T11:24:11Z</time>
      </trkpt>
      <trkpt lat="48.14768" lon="6.66822">
        <ele>536.4</ele>
        <time>2024-10-30T11:24:18Z</time>
      </trkpt>
      <trkpt lat="48.14765" lon="6.66808">
        <ele>537.6</ele>
        <time>2024-10-30T11:24:27Z</time>
      </trkpt>
      <trkpt lat="48.14761" lon="6.66796">
        <ele>538.5</ele>
        <time>2024-10-30T11:24:36Z</time>
      </trkpt>
      <trkpt lat="48.14758" lon="6.66782">
        <ele>539.4</ele>
        <time>2024-10-30T11:24:45Z</time>
      </trkpt>
      <trkpt lat="48.14759" lon="6.66768">
        <ele>540.1</ele>
        <time>2024-10-30T11:24:55Z</time>
      </trkpt>
      <trkpt lat="48.1476" lon="6.66754">
        <ele>540.8</ele>
        <time>2024-10-30T11:25:03Z</time>
      </trkpt>
      <trkpt lat="48.14763" lon="6.66741">
        <ele>541.4</ele>
        <time>2024-10-30T11:25:11Z</time>
      </trkpt>
      <trkpt lat="48.14764" lon="6.66728">
        <ele>541.9</ele>
        <time>2024-10-30T11:25:19Z</time>
      </trkpt>
      <trkpt lat="48.14768" lon="6.66715">
        <ele>542.3</ele>
        <time>2024-10-30T11:25:30Z</time>
      </trkpt>
      <trkpt lat="48.14773" lon="6.66703">
        <ele>542.4</ele>
        <time>2024-10-30T11:25:41Z</time>
      </trkpt>
      <trkpt lat="48.1478" lon="6.66692">
        <ele>542.2</ele>
        <time>2024-10-30T11:25:50Z</time>
      </trkpt>
      <trkpt lat="48.14789" lon="6.66685">
        <ele>541.9</ele>
        <time>2024-10-30T11:25:56Z</time>
      </trkpt>
      <trkpt lat="48.14797" lon="6.6668">
        <ele>541.5</ele>
        <time>2024-10-30T11:26:03Z</time>
      </trkpt>
      <trkpt lat="48.14805" lon="6.66674">
        <ele>541.1</ele>
        <time>2024-10-30T11:26:10Z</time>
      </trkpt>
      <trkpt lat="48.14815" lon="6.66667">
        <ele>540.7</ele>
        <time>2024-10-30T11:26:19Z</time>
      </trkpt>
      <trkpt lat="48.14823" lon="6.66661">
        <ele>540.3</ele>
        <time>2024-10-30T11:26:27Z</time>
      </trkpt>
      <trkpt lat="48.14832" lon="6.66654">
        <ele>539.9</ele>
        <time>2024-10-30T11:26:37Z</time>
      </trkpt>
      <trkpt lat="48.14841" lon="6.66649">
        <ele>539.5</ele>
        <time>2024-10-30T11:26:48Z</time>
      </trkpt>
      <trkpt lat="48.1485" lon="6.66648">
        <ele>539.2</ele>
        <time>2024-10-30T11:26:58Z</time>
      </trkpt>
      <trkpt lat="48.1486" lon="6.66642">
        <ele>539.1</ele>
        <time>2024-10-30T11:27:04Z</time>
      </trkpt>
      <trkpt lat="48.1487" lon="6.66637">
        <ele>539.2</ele>
        <time>2024-10-30T11:27:12Z</time>
      </trkpt>
      <trkpt lat="48.14877" lon="6.6663">
        <ele>539.6</ele>
        <time>2024-10-30T11:27:21Z</time>
      </trkpt>
      <trkpt lat="48.14886" lon="6.66624">
        <ele>540.4</ele>
        <time>2024-10-30T11:27:28Z</time>
      </trkpt>
      <trkpt lat="48.14893" lon="6.66614">
        <ele>541.3</ele>
        <time>2024-10-30T11:27:36Z</time>
      </trkpt>
      <trkpt lat="48.14898" lon="6.66601">
        <ele>542.3</ele>
        <time>2024-10-30T11:27:45Z</time>
      </trkpt>
      <trkpt lat="48.14903" lon="6.66588">
        <ele>543.4</ele>
        <time>2024-10-30T11:27:54Z</time>
      </trkpt>
      <trkpt lat="48.14908" lon="6.66576">
        <ele>544.4</ele>
        <time>2024-10-30T11:28:02Z</time>
      </trkpt>
      <trkpt lat="48.14914" lon="6.66564">
        <ele>545.4</ele>
        <time>2024-10-30T11:28:11Z</time>
      </trkpt>
      <trkpt lat="48.14919" lon="6.66553">
        <ele>546.3</ele>
        <time>2024-10-30T11:28:19Z</time>
      </trkpt>
      <trkpt lat="48.14922" lon="6.6654">
        <ele>547</ele>
        <time>2024-10-30T11:28:26Z</time>
      </trkpt>
      <trkpt lat="48.14926" lon="6.66527">
        <ele>547.5</ele>
        <time>2024-10-30T11:28:34Z</time>
      </trkpt>
      <trkpt lat="48.1493" lon="6.66515">
        <ele>547.9</ele>
        <time>2024-10-30T11:28:41Z</time>
      </trkpt>
      <trkpt lat="48.14933" lon="6.66501">
        <ele>548.1</ele>
        <time>2024-10-30T11:28:49Z</time>
      </trkpt>
      <trkpt lat="48.14938" lon="6.66488">
        <ele>548.1</ele>
        <time>2024-10-30T11:28:56Z</time>
      </trkpt>
      <trkpt lat="48.14941" lon="6.66476">
        <ele>548.2</ele>
        <time>2024-10-30T11:29:04Z</time>
      </trkpt>
      <trkpt lat="48.14942" lon="6.66469">
        <ele>548.2</ele>
        <time>2024-10-30T11:29:13Z</time>
      </trkpt>
      <trkpt lat="48.14942" lon="6.66469">
        <ele>548.2</ele>
        <time>2024-10-30T11:29:14Z</time>
      </trkpt>
      <trkpt lat="48.14942" lon="6.66469">
        <ele>548.2</ele>
        <time>2024-10-30T11:29:15Z</time>
      </trkpt>
      <trkpt lat="48.14943" lon="6.66467">
        <ele>548.3</ele>
        <time>2024-10-30T11:29:19Z</time>
      </trkpt>
      <trkpt lat="48.14943" lon="6.66466">
        <ele>548.3</ele>
        <time>2024-10-30T11:29:20Z</time>
      </trkpt>
      <trkpt lat="48.14943" lon="6.66465">
        <ele>548.3</ele>
        <time>2024-10-30T11:29:26Z</time>
      </trkpt>
      <trkpt lat="48.14943" lon="6.66465">
        <ele>548.3</ele>
        <time>2024-10-30T11:29:27Z</time>
      </trkpt>
      <trkpt lat="48.14943" lon="6.66465">
        <ele>548.3</ele>
        <time>2024-10-30T11:29:28Z</time>
      </trkpt>
      <trkpt lat="48.14941" lon="6.66462">
        <ele>548.3</ele>
        <time>2024-10-30T11:29:45Z</time>
      </trkpt>
      <trkpt lat="48.14941" lon="6.66462">
        <ele>548.3</ele>
        <time>2024-10-30T11:29:46Z</time>
      </trkpt>
      <trkpt lat="48.14941" lon="6.66462">
        <ele>548.3</ele>
        <time>2024-10-30T11:29:47Z</time>
      </trkpt>
      <trkpt lat="48.14941" lon="6.66462">
        <ele>548.3</ele>
        <time>2024-10-30T11:29:48Z</time>
      </trkpt>
      <trkpt lat="48.14941" lon="6.66462">
        <ele>548.3</ele>
        <time>2024-10-30T11:29:49Z</time>
      </trkpt>
      <trkpt lat="48.1494" lon="6.66458">
        <ele>548.3</ele>
        <time>2024-10-30T11:30:03Z</time>
      </trkpt>
      <trkpt lat="48.1494" lon="6.66457">
        <ele>548.3</ele>
        <time>2024-10-30T11:30:04Z</time>
      </trkpt>
      <trkpt lat="48.14939" lon="6.66456">
        <ele>548.3</ele>
        <time>2024-10-30T11:30:05Z</time>
      </trkpt>
      <trkpt lat="48.14932" lon="6.66446">
        <ele>548.4</ele>
        <time>2024-10-30T11:30:17Z</time>
      </trkpt>
      <trkpt lat="48.14925" lon="6.66436">
        <ele>548.6</ele>
        <time>2024-10-30T11:30:27Z</time>
      </trkpt>
      <trkpt lat="48.14918" lon="6.66427">
        <ele>548.7</ele>
        <time>2024-10-30T11:30:36Z</time>
      </trkpt>
      <trkpt lat="48.1491" lon="6.66418">
        <ele>548.8</ele>
        <time>2024-10-30T11:30:44Z</time>
      </trkpt>
      <trkpt lat="48.14902" lon="6.66411">
        <ele>548.9</ele>
        <time>2024-10-30T11:30:51Z</time>
      </trkpt>
      <trkpt lat="48.14893" lon="6.66407">
        <ele>549</ele>
        <time>2024-10-30T11:31:00Z</time>
      </trkpt>
      <trkpt lat="48.14883" lon="6.66405">
        <ele>549</ele>
        <time>2024-10-30T11:31:09Z</time>
      </trkpt>
      <trkpt lat="48.14873" lon="6.66406">
        <ele>549</ele>
        <time>2024-10-30T11:31:17Z</time>
      </trkpt>
      <trkpt lat="48.14863" lon="6.66407">
        <ele>549</ele>
        <time>2024-10-30T11:31:26Z</time>
      </trkpt>
      <trkpt lat="48.14854" lon="6.6641">
        <ele>549</ele>
        <time>2024-10-30T11:31:35Z</time>
      </trkpt>
      <trkpt lat="48.14845" lon="6.66411">
        <ele>549</ele>
        <time>2024-10-30T11:31:43Z</time>
      </trkpt>
      <trkpt lat="48.14836" lon="6.66417">
        <ele>549</ele>
        <time>2024-10-30T11:31:51Z</time>
      </trkpt>
      <trkpt lat="48.14826" lon="6.6642">
        <ele>549</ele>
        <time>2024-10-30T11:31:59Z</time>
      </trkpt>
      <trkpt lat="48.14819" lon="6.66429">
        <ele>549</ele>
        <time>2024-10-30T11:32:07Z</time>
      </trkpt>
      <trkpt lat="48.14816" lon="6.66443">
        <ele>549</ele>
        <time>2024-10-30T11:32:16Z</time>
      </trkpt>
      <trkpt lat="48.14814" lon="6.66458">
        <ele>549</ele>
        <time>2024-10-30T11:32:28Z</time>
      </trkpt>
      <trkpt lat="48.1481" lon="6.66457">
        <ele>549</ele>
        <time>2024-10-30T11:32:40Z</time>
      </trkpt>
      <trkpt lat="48.1481" lon="6.66457">
        <ele>549</ele>
        <time>2024-10-30T11:32:41Z</time>
      </trkpt>
      <trkpt lat="48.1481" lon="6.66457">
        <ele>549</ele>
        <time>2024-10-30T11:32:42Z</time>
      </trkpt>
      <trkpt lat="48.1481" lon="6.66457">
        <ele>549</ele>
        <time>2024-10-30T11:32:50Z</time>
      </trkpt>
      <trkpt lat="48.1481" lon="6.66456">
        <ele>549</ele>
        <time>2024-10-30T11:32:51Z</time>
      </trkpt>
      <trkpt lat="48.14809" lon="6.66457">
        <ele>549</ele>
        <time>2024-10-30T11:32:52Z</time>
      </trkpt>
      <trkpt lat="48.14801" lon="6.66462">
        <ele>549</ele>
        <time>2024-10-30T11:33:03Z</time>
      </trkpt>
      <trkpt lat="48.14801" lon="6.66477">
        <ele>549</ele>
        <time>2024-10-30T11:33:12Z</time>
      </trkpt>
      <trkpt lat="48.14808" lon="6.66486">
        <ele>549</ele>
        <time>2024-10-30T11:33:20Z</time>
      </trkpt>
      <trkpt lat="48.14817" lon="6.6648">
        <ele>549</ele>
        <time>2024-10-30T11:33:26Z</time>
      </trkpt>
      <trkpt lat="48.14822" lon="6.66468">
        <ele>549</ele>
        <time>2024-10-30T11:33:34Z</time>
      </trkpt>
      <trkpt lat="48.14824" lon="6.66454">
        <ele>549</ele>
        <time>2024-10-30T11:33:44Z</time>
      </trkpt>
      <trkpt lat="48.14828" lon="6.66442">
        <ele>549</ele>
        <time>2024-10-30T11:33:52Z</time>
      </trkpt>
      <trkpt lat="48.14834" lon="6.6643">
        <ele>549</ele>
        <time>2024-10-30T11:34:01Z</time>
      </trkpt>
      <trkpt lat="48.14842" lon="6.66424">
        <ele>549</ele>
        <time>2024-10-30T11:34:09Z</time>
      </trkpt>
      <trkpt lat="48.14852" lon="6.66423">
        <ele>549</ele>
        <time>2024-10-30T11:34:23Z</time>
      </trkpt>
      <trkpt lat="48.14862" lon="6.66422">
        <ele>549</ele>
        <time>2024-10-30T11:34:33Z</time>
      </trkpt>
      <trkpt lat="48.14871" lon="6.66418">
        <ele>549</ele>
        <time>2024-10-30T11:34:43Z</time>
      </trkpt>
      <trkpt lat="48.1488" lon="6.66418">
        <ele>549</ele>
        <time>2024-10-30T11:34:52Z</time>
      </trkpt>
      <trkpt lat="48.14889" lon="6.66421">
        <ele>548.9</ele>
        <time>2024-10-30T11:35:02Z</time>
      </trkpt>
      <trkpt lat="48.14899" lon="6.66422">
        <ele>548.8</ele>
        <time>2024-10-30T11:35:11Z</time>
      </trkpt>
      <trkpt lat="48.14908" lon="6.66428">
        <ele>548.7</ele>
        <time>2024-10-30T11:35:23Z</time>
      </trkpt>
      <trkpt lat="48.14913" lon="6.6644">
        <ele>548.5</ele>
        <time>2024-10-30T11:35:32Z</time>
      </trkpt>
      <trkpt lat="48.1492" lon="6.6645">
        <ele>548.4</ele>
        <time>2024-10-30T11:35:40Z</time>
      </trkpt>
      <trkpt lat="48.14927" lon="6.6646">
        <ele>548.3</ele>
        <time>2024-10-30T11:35:48Z</time>
      </trkpt>
      <trkpt lat="48.14936" lon="6.66467">
        <ele>548.2</ele>
        <time>2024-10-30T11:35:57Z</time>
      </trkpt>
      <trkpt lat="48.14941" lon="6.66455">
        <ele>548.3</ele>
        <time>2024-10-30T11:36:01Z</time>
      </trkpt>
      <trkpt lat="48.14941" lon="6.66441">
        <ele>548.4</ele>
        <time>2024-10-30T11:36:06Z</time>
      </trkpt>
      <trkpt lat="48.1494" lon="6.66427">
        <ele>548.5</ele>
        <time>2024-10-30T11:36:13Z</time>
      </trkpt>
      <trkpt lat="48.14935" lon="6.66415">
        <ele>548.6</ele>
        <time>2024-10-30T11:36:21Z</time>
      </trkpt>
      <trkpt lat="48.14928" lon="6.66406">
        <ele>548.7</ele>
        <time>2024-10-30T11:36:27Z</time>
      </trkpt>
      <trkpt lat="48.14921" lon="6.66398">
        <ele>548.8</ele>
        <time>2024-10-30T11:36:38Z</time>
      </trkpt>
      <trkpt lat="48.14912" lon="6.66389">
        <ele>548.9</ele>
        <time>2024-10-30T11:36:45Z</time>
      </trkpt>
      <trkpt lat="48.14903" lon="6.66384">
        <ele>549</ele>
        <time>2024-10-30T11:36:53Z</time>
      </trkpt>
      <trkpt lat="48.14893" lon="6.66379">
        <ele>549</ele>
        <time>2024-10-30T11:37:02Z</time>
      </trkpt>
      <trkpt lat="48.14884" lon="6.66375">
        <ele>549</ele>
        <time>2024-10-30T11:37:10Z</time>
      </trkpt>
      <trkpt lat="48.14876" lon="6.66371">
        <ele>549</ele>
        <time>2024-10-30T11:37:18Z</time>
      </trkpt>
      <trkpt lat="48.14866" lon="6.66365">
        <ele>549</ele>
        <time>2024-10-30T11:37:26Z</time>
      </trkpt>
      <trkpt lat="48.14857" lon="6.66362">
        <ele>548.9</ele>
        <time>2024-10-30T11:37:34Z</time>
      </trkpt>
      <trkpt lat="48.14848" lon="6.66358">
        <ele>549</ele>
        <time>2024-10-30T11:37:42Z</time>
      </trkpt>
      <trkpt lat="48.14838" lon="6.66354">
        <ele>549</ele>
        <time>2024-10-30T11:37:51Z</time>
      </trkpt>
      <trkpt lat="48.14829" lon="6.66352">
        <ele>549</ele>
        <time>2024-10-30T11:37:59Z</time>
      </trkpt>
      <trkpt lat="48.1482" lon="6.66346">
        <ele>549</ele>
        <time>2024-10-30T11:38:06Z</time>
      </trkpt>
      <trkpt lat="48.14811" lon="6.66343">
        <ele>549</ele>
        <time>2024-10-30T11:38:16Z</time>
      </trkpt>
      <trkpt lat="48.14802" lon="6.66339">
        <ele>549</ele>
        <time>2024-10-30T11:38:26Z</time>
      </trkpt>
      <trkpt lat="48.14793" lon="6.66333">
        <ele>548.9</ele>
        <time>2024-10-30T11:38:35Z</time>
      </trkpt>
      <trkpt lat="48.14784" lon="6.66328">
        <ele>548.9</ele>
        <time>2024-10-30T11:38:45Z</time>
      </trkpt>
      <trkpt lat="48.14775" lon="6.66321">
        <ele>548.8</ele>
        <time>2024-10-30T11:38:54Z</time>
      </trkpt>
      <trkpt lat="48.14768" lon="6.66312">
        <ele>548.8</ele>
        <time>2024-10-30T11:39:02Z</time>
      </trkpt>
      <trkpt lat="48.14762" lon="6.66301">
        <ele>548.9</ele>
        <time>2024-10-30T11:39:09Z</time>
      </trkpt>
      <trkpt lat="48.14759" lon="6.66288">
        <ele>549</ele>
        <time>2024-10-30T11:39:17Z</time>
      </trkpt>
      <trkpt lat="48.14757" lon="6.66274">
        <ele>549.1</ele>
        <time>2024-10-30T11:39:27Z</time>
      </trkpt>
      <trkpt lat="48.14757" lon="6.6626">
        <ele>549.1</ele>
        <time>2024-10-30T11:39:36Z</time>
      </trkpt>
      <trkpt lat="48.14758" lon="6.66245">
        <ele>549</ele>
        <time>2024-10-30T11:39:45Z</time>
      </trkpt>
      <trkpt lat="48.14758" lon="6.6623">
        <ele>548.8</ele>
        <time>2024-10-30T11:39:54Z</time>
      </trkpt>
      <trkpt lat="48.1476" lon="6.66216">
        <ele>548.5</ele>
        <time>2024-10-30T11:40:03Z</time>
      </trkpt>
      <trkpt lat="48.14763" lon="6.66202">
        <ele>548.1</ele>
        <time>2024-10-30T11:40:12Z</time>
      </trkpt>
      <trkpt lat="48.14767" lon="6.66189">
        <ele>547.8</ele>
        <time>2024-10-30T11:40:21Z</time>
      </trkpt>
      <trkpt lat="48.1477" lon="6.66175">
        <ele>547.5</ele>
        <time>2024-10-30T11:40:29Z</time>
      </trkpt>
      <trkpt lat="48.14772" lon="6.66162">
        <ele>547.3</ele>
        <time>2024-10-30T11:40:37Z</time>
      </trkpt>
      <trkpt lat="48.14776" lon="6.66148">
        <ele>547.1</ele>
        <time>2024-10-30T11:40:45Z</time>
      </trkpt>
      <trkpt lat="48.14782" lon="6.66136">
        <ele>546.9</ele>
        <time>2024-10-30T11:40:53Z</time>
      </trkpt>
      <trkpt lat="48.14788" lon="6.66124">
        <ele>546.8</ele>
        <time>2024-10-30T11:41:00Z</time>
      </trkpt>
      <trkpt lat="48.14793" lon="6.66114">
        <ele>546.8</ele>
        <time>2024-10-30T11:41:07Z</time>
      </trkpt>
      <trkpt lat="48.14798" lon="6.661">
        <ele>546.8</ele>
        <time>2024-10-30T11:41:15Z</time>
      </trkpt>
      <trkpt lat="48.148" lon="6.66086">
        <ele>547</ele>
        <time>2024-10-30T11:41:23Z</time>
      </trkpt>
      <trkpt lat="48.14803" lon="6.66072">
        <ele>547.1</ele>
        <time>2024-10-30T11:41:31Z</time>
      </trkpt>
      <trkpt lat="48.14804" lon="6.66069">
        <ele>547.2</ele>
        <time>2024-10-30T11:41:38Z</time>
      </trkpt>
      <trkpt lat="48.14804" lon="6.66069">
        <ele>547.2</ele>
        <time>2024-10-30T11:41:39Z</time>
      </trkpt>
      <trkpt lat="48.14804" lon="6.66069">
        <ele>547.2</ele>
        <time>2024-10-30T11:41:53Z</time>
      </trkpt>
      <trkpt lat="48.14804" lon="6.66069">
        <ele>547.2</ele>
        <time>2024-10-30T11:41:54Z</time>
      </trkpt>
      <trkpt lat="48.14804" lon="6.66069">
        <ele>547.2</ele>
        <time>2024-10-30T11:41:55Z</time>
      </trkpt>
      <trkpt lat="48.14804" lon="6.66069">
        <ele>547.2</ele>
        <time>2024-10-30T11:41:56Z</time>
      </trkpt>
      <trkpt lat="48.14804" lon="6.66069">
        <ele>547.2</ele>
        <time>2024-10-30T11:41:57Z</time>
      </trkpt>
      <trkpt lat="48.14803" lon="6.6607">
        <ele>547.2</ele>
        <time>2024-10-30T11:42:53Z</time>
      </trkpt>
      <trkpt lat="48.14803" lon="6.6607">
        <ele>547.2</ele>
        <time>2024-10-30T11:42:54Z</time>
      </trkpt>
      <trkpt lat="48.14803" lon="6.66071">
        <ele>547.2</ele>
        <time>2024-10-30T11:42:55Z</time>
      </trkpt>
      <trkpt lat="48.14803" lon="6.66071">
        <ele>547.2</ele>
        <time>2024-10-30T11:42:56Z</time>
      </trkpt>
      <trkpt lat="48.14803" lon="6.66072">
        <ele>547.2</ele>
        <time>2024-10-30T11:42:57Z</time>
      </trkpt>
      <trkpt lat="48.14803" lon="6.66072">
        <ele>547.2</ele>
        <time>2024-10-30T11:42:58Z</time>
      </trkpt>
      <trkpt lat="48.14803" lon="6.6607">
        <ele>547.2</ele>
        <time>2024-10-30T11:43:46Z</time>
      </trkpt>
      <trkpt lat="48.14803" lon="6.66068">
        <ele>547.3</ele>
        <time>2024-10-30T11:43:47Z</time>
      </trkpt>
      <trkpt lat="48.14807" lon="6.66056">
        <ele>547.5</ele>
        <time>2024-10-30T11:43:55Z</time>
      </trkpt>
      <trkpt lat="48.14811" lon="6.66042">
        <ele>547.7</ele>
        <time>2024-10-30T11:44:04Z</time>
      </trkpt>
      <trkpt lat="48.14815" lon="6.66029">
        <ele>548.1</ele>
        <time>2024-10-30T11:44:13Z</time>
      </trkpt>
      <trkpt lat="48.1482" lon="6.66017">
        <ele>548.6</ele>
        <time>2024-10-30T11:44:22Z</time>
      </trkpt>
      <trkpt lat="48.14825" lon="6.66004">
        <ele>549.4</ele>
        <time>2024-10-30T11:44:31Z</time>
      </trkpt>
      <trkpt lat="48.14828" lon="6.6599">
        <ele>550.5</ele>
        <time>2024-10-30T11:44:40Z</time>
      </trkpt>
      <trkpt lat="48.14834" lon="6.65979">
        <ele>551.6</ele>
        <time>2024-10-30T11:44:47Z</time>
      </trkpt>
      <trkpt lat="48.14834" lon="6.65965">
        <ele>552.6</ele>
        <time>2024-10-30T11:44:57Z</time>
      </trkpt>
      <trkpt lat="48.14834" lon="6.6595">
        <ele>553.6</ele>
        <time>2024-10-30T11:45:06Z</time>
      </trkpt>
      <trkpt lat="48.14832" lon="6.65936">
        <ele>554.1</ele>
        <time>2024-10-30T11:45:16Z</time>
      </trkpt>
      <trkpt lat="48.14828" lon="6.65924">
        <ele>554.2</ele>
        <time>2024-10-30T11:45:24Z</time>
      </trkpt>
      <trkpt lat="48.14821" lon="6.65913">
        <ele>554</ele>
        <time>2024-10-30T11:45:33Z</time>
      </trkpt>
      <trkpt lat="48.14814" lon="6.65903">
        <ele>553.6</ele>
        <time>2024-10-30T11:45:41Z</time>
      </trkpt>
      <trkpt lat="48.14808" lon="6.65891">
        <ele>553</ele>
        <time>2024-10-30T11:45:48Z</time>
      </trkpt>
      <trkpt lat="48.14802" lon="6.6588">
        <ele>552.3</ele>
        <time>2024-10-30T11:45:57Z</time>
      </trkpt>
      <trkpt lat="48.14795" lon="6.65871">
        <ele>551.5</ele>
        <time>2024-10-30T11:46:05Z</time>
      </trkpt>
      <trkpt lat="48.14789" lon="6.65861">
        <ele>550.7</ele>
        <time>2024-10-30T11:46:12Z</time>
      </trkpt>
      <trkpt lat="48.14781" lon="6.65852">
        <ele>549.8</ele>
        <time>2024-10-30T11:46:20Z</time>
      </trkpt>
      <trkpt lat="48.14774" lon="6.65844">
        <ele>549.1</ele>
        <time>2024-10-30T11:46:27Z</time>
      </trkpt>
      <trkpt lat="48.14766" lon="6.65836">
        <ele>548.5</ele>
        <time>2024-10-30T11:46:35Z</time>
      </trkpt>
      <trkpt lat="48.14758" lon="6.65826">
        <ele>547.8</ele>
        <time>2024-10-30T11:46:42Z</time>
      </trkpt>
      <trkpt lat="48.1475" lon="6.65818">
        <ele>546.8</ele>
        <time>2024-10-30T11:46:50Z</time>
      </trkpt>
      <trkpt lat="48.14742" lon="6.65811">
        <ele>545.9</ele>
        <time>2024-10-30T11:47:00Z</time>
      </trkpt>
      <trkpt lat="48.14737" lon="6.65799">
        <ele>544.9</ele>
        <time>2024-10-30T11:47:11Z</time>
      </trkpt>
      <trkpt lat="48.14734" lon="6.65786">
        <ele>544.1</ele>
        <time>2024-10-30T11:47:18Z</time>
      </trkpt>
      <trkpt lat="48.14731" lon="6.65771">
        <ele>543.5</ele>
        <time>2024-10-30T11:47:27Z</time>
      </trkpt>
      <trkpt lat="48.14729" lon="6.65758">
        <ele>543</ele>
        <time>2024-10-30T11:47:35Z</time>
      </trkpt>
      <trkpt lat="48.14727" lon="6.65744">
        <ele>542.5</ele>
        <time>2024-10-30T11:47:43Z</time>
      </trkpt>
      <trkpt lat="48.14725" lon="6.6573">
        <ele>542</ele>
        <time>2024-10-30T11:47:52Z</time>
      </trkpt>
      <trkpt lat="48.14723" lon="6.65716">
        <ele>541.6</ele>
        <time>2024-10-30T11:48:00Z</time>
      </trkpt>
      <trkpt lat="48.14721" lon="6.65702">
        <ele>541.2</ele>
        <time>2024-10-30T11:48:11Z</time>
      </trkpt>
      <trkpt lat="48.14717" lon="6.65687">
        <ele>540.7</ele>
        <time>2024-10-30T11:48:18Z</time>
      </trkpt>
      <trkpt lat="48.14716" lon="6.65674">
        <ele>540.4</ele>
        <time>2024-10-30T11:48:25Z</time>
      </trkpt>
      <trkpt lat="48.14715" lon="6.6566">
        <ele>540.1</ele>
        <time>2024-10-30T11:48:33Z</time>
      </trkpt>
      <trkpt lat="48.14714" lon="6.65645">
        <ele>539.9</ele>
        <time>2024-10-30T11:48:42Z</time>
      </trkpt>
      <trkpt lat="48.14714" lon="6.65631">
        <ele>539.8</ele>
        <time>2024-10-30T11:48:51Z</time>
      </trkpt>
      <trkpt lat="48.14713" lon="6.65617">
        <ele>539.8</ele>
        <time>2024-10-30T11:48:59Z</time>
      </trkpt>
      <trkpt lat="48.14711" lon="6.65602">
        <ele>539.9</ele>
        <time>2024-10-30T11:49:07Z</time>
      </trkpt>
      <trkpt lat="48.14709" lon="6.65588">
        <ele>540.1</ele>
        <time>2024-10-30T11:49:15Z</time>
      </trkpt>
      <trkpt lat="48.14705" lon="6.65574">
        <ele>540.2</ele>
        <time>2024-10-30T11:49:23Z</time>
      </trkpt>
      <trkpt lat="48.14703" lon="6.6556">
        <ele>540.4</ele>
        <time>2024-10-30T11:49:30Z</time>
      </trkpt>
      <trkpt lat="48.14698" lon="6.65548">
        <ele>540.5</ele>
        <time>2024-10-30T11:49:39Z</time>
      </trkpt>
      <trkpt lat="48.14693" lon="6.65536">
        <ele>540.6</ele>
        <time>2024-10-30T11:49:50Z</time>
      </trkpt>
      <trkpt lat="48.1469" lon="6.65522">
        <ele>540.8</ele>
        <time>2024-10-30T11:49:56Z</time>
      </trkpt>
      <trkpt lat="48.14685" lon="6.65508">
        <ele>541.1</ele>
        <time>2024-10-30T11:50:04Z</time>
      </trkpt>
      <trkpt lat="48.1468" lon="6.65497">
        <ele>541.7</ele>
        <time>2024-10-30T11:50:11Z</time>
      </trkpt>
      <trkpt lat="48.14673" lon="6.65485">
        <ele>542.5</ele>
        <time>2024-10-30T11:50:18Z</time>
      </trkpt>
      <trkpt lat="48.14666" lon="6.65475">
        <ele>543.5</ele>
        <time>2024-10-30T11:50:26Z</time>
      </trkpt>
      <trkpt lat="48.1466" lon="6.65465">
        <ele>544.4</ele>
        <time>2024-10-30T11:50:35Z</time>
      </trkpt>
      <trkpt lat="48.14654" lon="6.65453">
        <ele>545.4</ele>
        <time>2024-10-30T11:50:44Z</time>
      </trkpt>
      <trkpt lat="48.14649" lon="6.65441">
        <ele>546.2</ele>
        <time>2024-10-30T11:50:52Z</time>
      </trkpt>
      <trkpt lat="48.14644" lon="6.65428">
        <ele>547</ele>
        <time>2024-10-30T11:51:01Z</time>
      </trkpt>
      <trkpt lat="48.1464" lon="6.65416">
        <ele>547.8</ele>
        <time>2024-10-30T11:51:08Z</time>
      </trkpt>
      <trkpt lat="48.14636" lon="6.65403">
        <ele>548.6</ele>
        <time>2024-10-30T11:51:18Z</time>
      </trkpt>
      <trkpt lat="48.14632" lon="6.6539">
        <ele>549.4</ele>
        <time>2024-10-30T11:51:26Z</time>
      </trkpt>
      <trkpt lat="48.14628" lon="6.65377">
        <ele>550</ele>
        <time>2024-10-30T11:51:34Z</time>
      </trkpt>
      <trkpt lat="48.14623" lon="6.65365">
        <ele>550.5</ele>
        <time>2024-10-30T11:51:42Z</time>
      </trkpt>
      <trkpt lat="48.1462" lon="6.65352">
        <ele>551</ele>
        <time>2024-10-30T11:51:50Z</time>
      </trkpt>
      <trkpt lat="48.14617" lon="6.65338">
        <ele>551.5</ele>
        <time>2024-10-30T11:51:59Z</time>
      </trkpt>
      <trkpt lat="48.14613" lon="6.65325">
        <ele>552.1</ele>
        <time>2024-10-30T11:52:08Z</time>
      </trkpt>
      <trkpt lat="48.14608" lon="6.65311">
        <ele>552.7</ele>
        <time>2024-10-30T11:52:17Z</time>
      </trkpt>
      <trkpt lat="48.14606" lon="6.65298">
        <ele>553.3</ele>
        <time>2024-10-30T11:52:26Z</time>
      </trkpt>
      <trkpt lat="48.14602" lon="6.65284">
        <ele>553.8</ele>
        <time>2024-10-30T11:52:35Z</time>
      </trkpt>
      <trkpt lat="48.14601" lon="6.6527">
        <ele>554.2</ele>
        <time>2024-10-30T11:52:43Z</time>
      </trkpt>
      <trkpt lat="48.14599" lon="6.65256">
        <ele>554.6</ele>
        <time>2024-10-30T11:52:51Z</time>
      </trkpt>
      <trkpt lat="48.14598" lon="6.65242">
        <ele>555</ele>
        <time>2024-10-30T11:52:59Z</time>
      </trkpt>
      <trkpt lat="48.14598" lon="6.65228">
        <ele>555.5</ele>
        <time>2024-10-30T11:53:08Z</time>
      </trkpt>
      <trkpt lat="48.146" lon="6.65213">
        <ele>556.2</ele>
        <time>2024-10-30T11:53:18Z</time>
      </trkpt>
      <trkpt lat="48.14599" lon="6.65199">
        <ele>556.9</ele>
        <time>2024-10-30T11:53:26Z</time>
      </trkpt>
      <trkpt lat="48.146" lon="6.65185">
        <ele>557.6</ele>
        <time>2024-10-30T11:53:35Z</time>
      </trkpt>
      <trkpt lat="48.14602" lon="6.65171">
        <ele>558.2</ele>
        <time>2024-10-30T11:53:44Z</time>
      </trkpt>
      <trkpt lat="48.14605" lon="6.65157">
        <ele>558.9</ele>
        <time>2024-10-30T11:53:54Z</time>
      </trkpt>
      <trkpt lat="48.14606" lon="6.65143">
        <ele>559.4</ele>
        <time>2024-10-30T11:54:01Z</time>
      </trkpt>
      <trkpt lat="48.14612" lon="6.65131">
        <ele>560</ele>
        <time>2024-10-30T11:54:09Z</time>
      </trkpt>
      <trkpt lat="48.14615" lon="6.65117">
        <ele>560.5</ele>
        <time>2024-10-30T11:54:18Z</time>
      </trkpt>
      <trkpt lat="48.14617" lon="6.65104">
        <ele>561</ele>
        <time>2024-10-30T11:54:26Z</time>
      </trkpt>
      <trkpt lat="48.1462" lon="6.6509">
        <ele>561.5</ele>
        <time>2024-10-30T11:54:34Z</time>
      </trkpt>
      <trkpt lat="48.14626" lon="6.65077">
        <ele>561.8</ele>
        <time>2024-10-30T11:54:45Z</time>
      </trkpt>
      <trkpt lat="48.14633" lon="6.65067">
        <ele>561.9</ele>
        <time>2024-10-30T11:54:51Z</time>
      </trkpt>
      <trkpt lat="48.14637" lon="6.65054">
        <ele>561.7</ele>
        <time>2024-10-30T11:55:00Z</time>
      </trkpt>
      <trkpt lat="48.14643" lon="6.65044">
        <ele>561.3</ele>
        <time>2024-10-30T11:55:11Z</time>
      </trkpt>
      <trkpt lat="48.1465" lon="6.65033">
        <ele>560.9</ele>
        <time>2024-10-30T11:55:20Z</time>
      </trkpt>
      <trkpt lat="48.14657" lon="6.65024">
        <ele>560.4</ele>
        <time>2024-10-30T11:55:30Z</time>
      </trkpt>
      <trkpt lat="48.14665" lon="6.65016">
        <ele>560</ele>
        <time>2024-10-30T11:55:38Z</time>
      </trkpt>
      <trkpt lat="48.14672" lon="6.65006">
        <ele>559.6</ele>
        <time>2024-10-30T11:55:47Z</time>
      </trkpt>
      <trkpt lat="48.1468" lon="6.64997">
        <ele>559.2</ele>
        <time>2024-10-30T11:55:55Z</time>
      </trkpt>
      <trkpt lat="48.14687" lon="6.64988">
        <ele>558.9</ele>
        <time>2024-10-30T11:56:04Z</time>
      </trkpt>
      <trkpt lat="48.14694" lon="6.64978">
        <ele>558.6</ele>
        <time>2024-10-30T11:56:13Z</time>
      </trkpt>
      <trkpt lat="48.147" lon="6.64968">
        <ele>558.4</ele>
        <time>2024-10-30T11:56:21Z</time>
      </trkpt>
      <trkpt lat="48.14706" lon="6.64956">
        <ele>558.1</ele>
        <time>2024-10-30T11:56:29Z</time>
      </trkpt>
      <trkpt lat="48.14709" lon="6.64943">
        <ele>557.9</ele>
        <time>2024-10-30T11:56:38Z</time>
      </trkpt>
      <trkpt lat="48.14714" lon="6.64932">
        <ele>557.6</ele>
        <time>2024-10-30T11:56:46Z</time>
      </trkpt>
      <trkpt lat="48.1472" lon="6.64923">
        <ele>557.5</ele>
        <time>2024-10-30T11:57:10Z</time>
      </trkpt>
      <trkpt lat="48.14719" lon="6.64924">
        <ele>557.5</ele>
        <time>2024-10-30T11:57:11Z</time>
      </trkpt>
      <trkpt lat="48.14719" lon="6.64924">
        <ele>557.5</ele>
        <time>2024-10-30T11:57:12Z</time>
      </trkpt>
      <trkpt lat="48.1472" lon="6.64925">
        <ele>557.4</ele>
        <time>2024-10-30T11:57:13Z</time>
      </trkpt>
      <trkpt lat="48.1472" lon="6.64926">
        <ele>557.4</ele>
        <time>2024-10-30T11:57:14Z</time>
      </trkpt>
      <trkpt lat="48.1472" lon="6.64927">
        <ele>557.4</ele>
        <time>2024-10-30T11:57:15Z</time>
      </trkpt>
      <trkpt lat="48.14722" lon="6.64925">
        <ele>557.4</ele>
        <time>2024-10-30T11:57:20Z</time>
      </trkpt>
      <trkpt lat="48.14722" lon="6.64923">
        <ele>557.4</ele>
        <time>2024-10-30T11:57:21Z</time>
      </trkpt>
      <trkpt lat="48.14722" lon="6.64922">
        <ele>557.3</ele>
        <time>2024-10-30T11:57:22Z</time>
      </trkpt>
      <trkpt lat="48.14722" lon="6.6492">
        <ele>557.3</ele>
        <time>2024-10-30T11:57:26Z</time>
      </trkpt>
      <trkpt lat="48.14722" lon="6.6492">
        <ele>557.3</ele>
        <time>2024-10-30T11:57:27Z</time>
      </trkpt>
      <trkpt lat="48.14721" lon="6.6492">
        <ele>557.3</ele>
        <time>2024-10-30T11:57:28Z</time>
      </trkpt>
      <trkpt lat="48.14718" lon="6.6492">
        <ele>557.3</ele>
        <time>2024-10-30T11:57:34Z</time>
      </trkpt>
      <trkpt lat="48.14718" lon="6.64919">
        <ele>557.2</ele>
        <time>2024-10-30T11:57:35Z</time>
      </trkpt>
      <trkpt lat="48.14712" lon="6.64919">
        <ele>557.1</ele>
        <time>2024-10-30T11:59:23Z</time>
      </trkpt>
      <trkpt lat="48.14712" lon="6.64918">
        <ele>557.1</ele>
        <time>2024-10-30T11:59:24Z</time>
      </trkpt>
      <trkpt lat="48.14715" lon="6.64912">
        <ele>557</ele>
        <time>2024-10-30T11:59:45Z</time>
      </trkpt>
      <trkpt lat="48.14715" lon="6.64912">
        <ele>557</ele>
        <time>2024-10-30T11:59:46Z</time>
      </trkpt>
      <trkpt lat="48.14715" lon="6.64912">
        <ele>557</ele>
        <time>2024-10-30T11:59:47Z</time>
      </trkpt>
      <trkpt lat="48.14714" lon="6.64911">
        <ele>556.9</ele>
        <time>2024-10-30T12:01:06Z</time>
      </trkpt>
      <trkpt lat="48.14713" lon="6.6491">
        <ele>556.9</ele>
        <time>2024-10-30T12:01:09Z</time>
      </trkpt>
      <trkpt lat="48.14713" lon="6.6491">
        <ele>556.9</ele>
        <time>2024-10-30T12:01:10Z</time>
      </trkpt>
      <trkpt lat="48.14713" lon="6.64912">
        <ele>556.9</ele>
        <time>2024-10-30T12:01:18Z</time>
      </trkpt>
      <trkpt lat="48.14713" lon="6.64912">
        <ele>556.9</ele>
        <time>2024-10-30T12:01:19Z</time>
      </trkpt>
      <trkpt lat="48.14708" lon="6.64909">
        <ele>556.7</ele>
        <time>2024-10-30T12:01:34Z</time>
      </trkpt>
      <trkpt lat="48.14708" lon="6.64909">
        <ele>556.7</ele>
        <time>2024-10-30T12:01:35Z</time>
      </trkpt>
      <trkpt lat="48.14708" lon="6.64906">
        <ele>556.6</ele>
        <time>2024-10-30T12:01:50Z</time>
      </trkpt>
      <trkpt lat="48.14708" lon="6.64904">
        <ele>556.5</ele>
        <time>2024-10-30T12:01:51Z</time>
      </trkpt>
      <trkpt lat="48.14708" lon="6.64903">
        <ele>556.5</ele>
        <time>2024-10-30T12:01:52Z</time>
      </trkpt>
      <trkpt lat="48.14705" lon="6.64889">
        <ele>555.9</ele>
        <time>2024-10-30T12:02:03Z</time>
      </trkpt>
      <trkpt lat="48.147" lon="6.64877">
        <ele>555.3</ele>
        <time>2024-10-30T12:02:15Z</time>
      </trkpt>
      <trkpt lat="48.14693" lon="6.64867">
        <ele>554.4</ele>
        <time>2024-10-30T12:02:26Z</time>
      </trkpt>
      <trkpt lat="48.14689" lon="6.64858">
        <ele>553.6</ele>
        <time>2024-10-30T12:02:40Z</time>
      </trkpt>
      <trkpt lat="48.14689" lon="6.64858">
        <ele>553.6</ele>
        <time>2024-10-30T12:02:41Z</time>
      </trkpt>
      <trkpt lat="48.14689" lon="6.64858">
        <ele>553.6</ele>
        <time>2024-10-30T12:02:42Z</time>
      </trkpt>
      <trkpt lat="48.14688" lon="6.64857">
        <ele>553.6</ele>
        <time>2024-10-30T12:03:35Z</time>
      </trkpt>
      <trkpt lat="48.14688" lon="6.64856">
        <ele>553.5</ele>
        <time>2024-10-30T12:03:36Z</time>
      </trkpt>
      <trkpt lat="48.14687" lon="6.64856">
        <ele>553.5</ele>
        <time>2024-10-30T12:03:37Z</time>
      </trkpt>
      <trkpt lat="48.14687" lon="6.64855">
        <ele>553.4</ele>
        <time>2024-10-30T12:03:41Z</time>
      </trkpt>
      <trkpt lat="48.14687" lon="6.64855">
        <ele>553.4</ele>
        <time>2024-10-30T12:03:42Z</time>
      </trkpt>
      <trkpt lat="48.14687" lon="6.64855">
        <ele>553.4</ele>
        <time>2024-10-30T12:03:43Z</time>
      </trkpt>
      <trkpt lat="48.14685" lon="6.64857">
        <ele>553.2</ele>
        <time>2024-10-30T12:04:40Z</time>
      </trkpt>
      <trkpt lat="48.14685" lon="6.64856">
        <ele>553.2</ele>
        <time>2024-10-30T12:04:41Z</time>
      </trkpt>
      <trkpt lat="48.14684" lon="6.64856">
        <ele>553.1</ele>
        <time>2024-10-30T12:04:42Z</time>
      </trkpt>
      <trkpt lat="48.14679" lon="6.64845">
        <ele>552.3</ele>
        <time>2024-10-30T12:04:55Z</time>
      </trkpt>
      <trkpt lat="48.14672" lon="6.64835">
        <ele>551.6</ele>
        <time>2024-10-30T12:05:06Z</time>
      </trkpt>
      <trkpt lat="48.14666" lon="6.64825">
        <ele>551.1</ele>
        <time>2024-10-30T12:05:14Z</time>
      </trkpt>
      <trkpt lat="48.14658" lon="6.64816">
        <ele>550.5</ele>
        <time>2024-10-30T12:05:23Z</time>
      </trkpt>
      <trkpt lat="48.14651" lon="6.64808">
        <ele>549.9</ele>
        <time>2024-10-30T12:05:34Z</time>
      </trkpt>
      <trkpt lat="48.14642" lon="6.64801">
        <ele>549.1</ele>
        <time>2024-10-30T12:05:41Z</time>
      </trkpt>
      <trkpt lat="48.14634" lon="6.64792">
        <ele>548.1</ele>
        <time>2024-10-30T12:05:48Z</time>
      </trkpt>
      <trkpt lat="48.14627" lon="6.64784">
        <ele>547.2</ele>
        <time>2024-10-30T12:05:57Z</time>
      </trkpt>
      <trkpt lat="48.1462" lon="6.64776">
        <ele>546.4</ele>
        <time>2024-10-30T12:06:08Z</time>
      </trkpt>
      <trkpt lat="48.14613" lon="6.64765">
        <ele>545.9</ele>
        <time>2024-10-30T12:06:17Z</time>
      </trkpt>
      <trkpt lat="48.14607" lon="6.64754">
        <ele>545.6</ele>
        <time>2024-10-30T12:06:31Z</time>
      </trkpt>
      <trkpt lat="48.14604" lon="6.6474">
        <ele>545.4</ele>
        <time>2024-10-30T12:06:43Z</time>
      </trkpt>
      <trkpt lat="48.14603" lon="6.64728">
        <ele>545.2</ele>
        <time>2024-10-30T12:07:00Z</time>
      </trkpt>
      <trkpt lat="48.14603" lon="6.64728">
        <ele>545.2</ele>
        <time>2024-10-30T12:07:01Z</time>
      </trkpt>
      <trkpt lat="48.14603" lon="6.64728">
        <ele>545.2</ele>
        <time>2024-10-30T12:07:02Z</time>
      </trkpt>
      <trkpt lat="48.14602" lon="6.64726">
        <ele>545.2</ele>
        <time>2024-10-30T12:07:05Z</time>
      </trkpt>
      <trkpt lat="48.14602" lon="6.64725">
        <ele>545.2</ele>
        <time>2024-10-30T12:07:06Z</time>
      </trkpt>
      <trkpt lat="48.14601" lon="6.64724">
        <ele>545.2</ele>
        <time>2024-10-30T12:07:07Z</time>
      </trkpt>
      <trkpt lat="48.14595" lon="6.64714">
        <ele>545.1</ele>
        <time>2024-10-30T12:07:18Z</time>
      </trkpt>
      <trkpt lat="48.14587" lon="6.64708">
        <ele>545</ele>
        <time>2024-10-30T12:07:25Z</time>
      </trkpt>
      <trkpt lat="48.14578" lon="6.647">
        <ele>545</ele>
        <time>2024-10-30T12:07:33Z</time>
      </trkpt>
      <trkpt lat="48.1457" lon="6.64692">
        <ele>544.8</ele>
        <time>2024-10-30T12:07:41Z</time>
      </trkpt>
      <trkpt lat="48.14561" lon="6.64684">
        <ele>544.3</ele>
        <time>2024-10-30T12:07:50Z</time>
      </trkpt>
      <trkpt lat="48.14555" lon="6.64673">
        <ele>543.5</ele>
        <time>2024-10-30T12:08:00Z</time>
      </trkpt>
      <trkpt lat="48.14552" lon="6.64668">
        <ele>543</ele>
        <time>2024-10-30T12:08:09Z</time>
      </trkpt>
      <trkpt lat="48.14552" lon="6.64668">
        <ele>543</ele>
        <time>2024-10-30T12:08:10Z</time>
      </trkpt>
      <trkpt lat="48.1455" lon="6.64667">
        <ele>542.9</ele>
        <time>2024-10-30T12:08:14Z</time>
      </trkpt>
      <trkpt lat="48.1455" lon="6.64666">
        <ele>542.8</ele>
        <time>2024-10-30T12:08:15Z</time>
      </trkpt>
      <trkpt lat="48.14544" lon="6.64655">
        <ele>541.8</ele>
        <time>2024-10-30T12:08:26Z</time>
      </trkpt>
      <trkpt lat="48.14539" lon="6.64644">
        <ele>540.9</ele>
        <time>2024-10-30T12:08:37Z</time>
      </trkpt>
      <trkpt lat="48.14533" lon="6.64633">
        <ele>540</ele>
        <time>2024-10-30T12:08:47Z</time>
      </trkpt>
      <trkpt lat="48.14527" lon="6.64622">
        <ele>539</ele>
        <time>2024-10-30T12:08:56Z</time>
      </trkpt>
      <trkpt lat="48.1452" lon="6.64614">
        <ele>538</ele>
        <time>2024-10-30T12:09:15Z</time>
      </trkpt>
      <trkpt lat="48.1452" lon="6.64614">
        <ele>538</ele>
        <time>2024-10-30T12:09:16Z</time>
      </trkpt>
      <trkpt lat="48.1452" lon="6.64614">
        <ele>538</ele>
        <time>2024-10-30T12:09:17Z</time>
      </trkpt>
      <trkpt lat="48.1452" lon="6.64612">
        <ele>537.9</ele>
        <time>2024-10-30T12:10:13Z</time>
      </trkpt>
      <trkpt lat="48.14519" lon="6.64611">
        <ele>537.8</ele>
        <time>2024-10-30T12:10:14Z</time>
      </trkpt>
      <trkpt lat="48.14516" lon="6.64603">
        <ele>537</ele>
        <time>2024-10-30T12:10:28Z</time>
      </trkpt>
      <trkpt lat="48.14517" lon="6.64602">
        <ele>537</ele>
        <time>2024-10-30T12:10:29Z</time>
      </trkpt>
      <trkpt lat="48.14517" lon="6.64603">
        <ele>536.9</ele>
        <time>2024-10-30T12:10:41Z</time>
      </trkpt>
      <trkpt lat="48.14518" lon="6.64605">
        <ele>536.7</ele>
        <time>2024-10-30T12:10:42Z</time>
      </trkpt>
      <trkpt lat="48.14518" lon="6.64607">
        <ele>536.6</ele>
        <time>2024-10-30T12:10:43Z</time>
      </trkpt>
      <trkpt lat="48.14518" lon="6.64607">
        <ele>536.6</ele>
        <time>2024-10-30T12:10:44Z</time>
      </trkpt>
      <trkpt lat="48.14518" lon="6.64607">
        <ele>536.6</ele>
        <time>2024-10-30T12:10:45Z</time>
      </trkpt>
      <trkpt lat="48.14518" lon="6.64607">
        <ele>536.6</ele>
        <time>2024-10-30T12:10:46Z</time>
      </trkpt>
      <trkpt lat="48.14518" lon="6.64607">
        <ele>536.6</ele>
        <time>2024-10-30T12:10:47Z</time>
      </trkpt>
      <trkpt lat="48.14518" lon="6.64607">
        <ele>536.5</ele>
        <time>2024-10-30T12:10:48Z</time>
      </trkpt>
      <trkpt lat="48.14518" lon="6.64607">
        <ele>536.5</ele>
        <time>2024-10-30T12:10:49Z</time>
      </trkpt>
      <trkpt lat="48.14516" lon="6.64606">
        <ele>536.3</ele>
        <time>2024-10-30T12:11:49Z</time>
      </trkpt>
      <trkpt lat="48.14516" lon="6.64605">
        <ele>536.2</ele>
        <time>2024-10-30T12:11:50Z</time>
      </trkpt>
      <trkpt lat="48.14515" lon="6.64591">
        <ele>534.9</ele>
        <time>2024-10-30T12:11:59Z</time>
      </trkpt>
      <trkpt lat="48.14515" lon="6.64588">
        <ele>534.7</ele>
        <time>2024-10-30T12:12:04Z</time>
      </trkpt>
      <trkpt lat="48.14515" lon="6.64588">
        <ele>534.7</ele>
        <time>2024-10-30T12:12:05Z</time>
      </trkpt>
      <trkpt lat="48.14515" lon="6.64588">
        <ele>534.7</ele>
        <time>2024-10-30T12:12:06Z</time>
      </trkpt>
      <trkpt lat="48.14515" lon="6.64588">
        <ele>534.7</ele>
        <time>2024-10-30T12:12:07Z</time>
      </trkpt>
      <trkpt lat="48.14515" lon="6.64574">
        <ele>533.5</ele>
        <time>2024-10-30T12:12:17Z</time>
      </trkpt>
      <trkpt lat="48.14512" lon="6.64561">
        <ele>532.2</ele>
        <time>2024-10-30T12:12:27Z</time>
      </trkpt>
      <trkpt lat="48.14509" lon="6.64547">
        <ele>531.1</ele>
        <time>2024-10-30T12:12:37Z</time>
      </trkpt>
      <trkpt lat="48.14511" lon="6.64532">
        <ele>530.1</ele>
        <time>2024-10-30T12:12:48Z</time>
      </trkpt>
      <trkpt lat="48.14515" lon="6.64519">
        <ele>529.1</ele>
        <time>2024-10-30T12:12:57Z</time>
      </trkpt>
      <trkpt lat="48.14518" lon="6.64505">
        <ele>528.2</ele>
        <time>2024-10-30T12:13:06Z</time>
      </trkpt>
      <trkpt lat="48.14521" lon="6.64492">
        <ele>527.4</ele>
        <time>2024-10-30T12:13:14Z</time>
      </trkpt>
      <trkpt lat="48.14525" lon="6.64478">
        <ele>526.5</ele>
        <time>2024-10-30T12:13:23Z</time>
      </trkpt>
      <trkpt lat="48.14529" lon="6.64466">
        <ele>525.8</ele>
        <time>2024-10-30T12:13:33Z</time>
      </trkpt>
      <trkpt lat="48.14534" lon="6.64454">
        <ele>525.1</ele>
        <time>2024-10-30T12:13:44Z</time>
      </trkpt>
      <trkpt lat="48.14541" lon="6.64446">
        <ele>524.5</ele>
        <time>2024-10-30T12:13:54Z</time>
      </trkpt>
      <trkpt lat="48.14551" lon="6.64445">
        <ele>523.9</ele>
        <time>2024-10-30T12:14:07Z</time>
      </trkpt>
      <trkpt lat="48.14555" lon="6.64444">
        <ele>523.6</ele>
        <time>2024-10-30T12:14:19Z</time>
      </trkpt>
      <trkpt lat="48.14555" lon="6.64444">
        <ele>523.6</ele>
        <time>2024-10-30T12:14:20Z</time>
      </trkpt>
      <trkpt lat="48.14555" lon="6.64443">
        <ele>523.6</ele>
        <time>2024-10-30T12:14:28Z</time>
      </trkpt>
      <trkpt lat="48.14556" lon="6.64442">
        <ele>523.6</ele>
        <time>2024-10-30T12:14:29Z</time>
      </trkpt>
      <trkpt lat="48.14556" lon="6.6444">
        <ele>523.6</ele>
        <time>2024-10-30T12:14:30Z</time>
      </trkpt>
      <trkpt lat="48.14555" lon="6.64426">
        <ele>523.2</ele>
        <time>2024-10-30T12:14:40Z</time>
      </trkpt>
      <trkpt lat="48.14547" lon="6.64416">
        <ele>522.5</ele>
        <time>2024-10-30T12:14:48Z</time>
      </trkpt>
      <trkpt lat="48.14539" lon="6.6441">
        <ele>521.6</ele>
        <time>2024-10-30T12:14:56Z</time>
      </trkpt>
      <trkpt lat="48.14531" lon="6.64403">
        <ele>520.6</ele>
        <time>2024-10-30T12:15:05Z</time>
      </trkpt>
      <trkpt lat="48.14524" lon="6.64394">
        <ele>519.4</ele>
        <time>2024-10-30T12:15:15Z</time>
      </trkpt>
      <trkpt lat="48.14516" lon="6.64385">
        <ele>518</ele>
        <time>2024-10-30T12:15:24Z</time>
      </trkpt>
      <trkpt lat="48.14508" lon="6.64376">
        <ele>516.7</ele>
        <time>2024-10-30T12:15:34Z</time>
      </trkpt>
      <trkpt lat="48.14498" lon="6.6437">
        <ele>515.3</ele>
        <time>2024-10-30T12:15:44Z</time>
      </trkpt>
      <trkpt lat="48.14489" lon="6.64372">
        <ele>514.2</ele>
        <time>2024-10-30T12:15:54Z</time>
      </trkpt>
      <trkpt lat="48.14489" lon="6.64373">
        <ele>514.1</ele>
        <time>2024-10-30T12:15:58Z</time>
      </trkpt>
      <trkpt lat="48.14489" lon="6.64373">
        <ele>514.1</ele>
        <time>2024-10-30T12:15:59Z</time>
      </trkpt>
      <trkpt lat="48.14489" lon="6.64373">
        <ele>514.1</ele>
        <time>2024-10-30T12:16:00Z</time>
      </trkpt>
      <trkpt lat="48.14487" lon="6.64375">
        <ele>513.9</ele>
        <time>2024-10-30T12:16:08Z</time>
      </trkpt>
      <trkpt lat="48.14486" lon="6.64376">
        <ele>513.8</ele>
        <time>2024-10-30T12:16:09Z</time>
      </trkpt>
      <trkpt lat="48.14478" lon="6.64383">
        <ele>512.7</ele>
        <time>2024-10-30T12:16:18Z</time>
      </trkpt>
      <trkpt lat="48.1447" lon="6.6439">
        <ele>511.6</ele>
        <time>2024-10-30T12:16:28Z</time>
      </trkpt>
      <trkpt lat="48.14461" lon="6.64395">
        <ele>510.5</ele>
        <time>2024-10-30T12:16:38Z</time>
      </trkpt>
      <trkpt lat="48.14452" lon="6.64399">
        <ele>509.3</ele>
        <time>2024-10-30T12:16:48Z</time>
      </trkpt>
      <trkpt lat="48.14443" lon="6.64401">
        <ele>508.2</ele>
        <time>2024-10-30T12:16:58Z</time>
      </trkpt>
      <trkpt lat="48.14437" lon="6.64406">
        <ele>507.2</ele>
        <time>2024-10-30T12:17:11Z</time>
      </trkpt>
      <trkpt lat="48.14437" lon="6.64406">
        <ele>507.2</ele>
        <time>2024-10-30T12:17:12Z</time>
      </trkpt>
      <trkpt lat="48.14437" lon="6.64406">
        <ele>507.2</ele>
        <time>2024-10-30T12:17:13Z</time>
      </trkpt>
      <trkpt lat="48.14437" lon="6.64406">
        <ele>507.2</ele>
        <time>2024-10-30T12:17:46Z</time>
      </trkpt>
      <trkpt lat="48.14437" lon="6.64406">
        <ele>507.2</ele>
        <time>2024-10-30T12:17:47Z</time>
      </trkpt>
      <trkpt lat="48.14428" lon="6.64413">
        <ele>506</ele>
        <time>2024-10-30T12:17:58Z</time>
      </trkpt>
      <trkpt lat="48.1442" lon="6.64419">
        <ele>504.8</ele>
        <time>2024-10-30T12:18:08Z</time>
      </trkpt>
      <trkpt lat="48.14412" lon="6.64426">
        <ele>503.5</ele>
        <time>2024-10-30T12:18:19Z</time>
      </trkpt>
      <trkpt lat="48.14403" lon="6.64431">
        <ele>502.1</ele>
        <time>2024-10-30T12:18:32Z</time>
      </trkpt>
      <trkpt lat="48.14395" lon="6.64437">
        <ele>500.9</ele>
        <time>2024-10-30T12:18:44Z</time>
      </trkpt>
      <trkpt lat="48.14386" lon="6.64439">
        <ele>499.7</ele>
        <time>2024-10-30T12:18:55Z</time>
      </trkpt>
      <trkpt lat="48.14378" lon="6.64447">
        <ele>498.6</ele>
        <time>2024-10-30T12:19:05Z</time>
      </trkpt>
      <trkpt lat="48.1437" lon="6.64456">
        <ele>497.4</ele>
        <time>2024-10-30T12:19:14Z</time>
      </trkpt>
      <trkpt lat="48.14362" lon="6.64464">
        <ele>496.2</ele>
        <time>2024-10-30T12:19:23Z</time>
      </trkpt>
      <trkpt lat="48.14353" lon="6.6447">
        <ele>495.3</ele>
        <time>2024-10-30T12:19:34Z</time>
      </trkpt>
      <trkpt lat="48.14344" lon="6.64474">
        <ele>494.5</ele>
        <time>2024-10-30T12:19:45Z</time>
      </trkpt>
      <trkpt lat="48.14336" lon="6.64479">
        <ele>493.7</ele>
        <time>2024-10-30T12:19:54Z</time>
      </trkpt>
      <trkpt lat="48.14328" lon="6.64487">
        <ele>493</ele>
        <time>2024-10-30T12:20:03Z</time>
      </trkpt>
      <trkpt lat="48.1432" lon="6.64494">
        <ele>492.3</ele>
        <time>2024-10-30T12:20:12Z</time>
      </trkpt>
      <trkpt lat="48.14313" lon="6.64504">
        <ele>491.6</ele>
        <time>2024-10-30T12:20:21Z</time>
      </trkpt>
      <trkpt lat="48.14307" lon="6.64515">
        <ele>490.8</ele>
        <time>2024-10-30T12:20:30Z</time>
      </trkpt>
      <trkpt lat="48.14301" lon="6.64527">
        <ele>489.9</ele>
        <time>2024-10-30T12:20:41Z</time>
      </trkpt>
      <trkpt lat="48.14298" lon="6.64541">
        <ele>489</ele>
        <time>2024-10-30T12:20:49Z</time>
      </trkpt>
      <trkpt lat="48.14295" lon="6.64554">
        <ele>488</ele>
        <time>2024-10-30T12:20:58Z</time>
      </trkpt>
      <trkpt lat="48.14293" lon="6.64568">
        <ele>487.1</ele>
        <time>2024-10-30T12:21:07Z</time>
      </trkpt>
      <trkpt lat="48.14291" lon="6.64582">
        <ele>486.1</ele>
        <time>2024-10-30T12:21:17Z</time>
      </trkpt>
      <trkpt lat="48.1429" lon="6.64596">
        <ele>485.1</ele>
        <time>2024-10-30T12:21:26Z</time>
      </trkpt>
      <trkpt lat="48.1429" lon="6.6461">
        <ele>484.1</ele>
        <time>2024-10-30T12:21:34Z</time>
      </trkpt>
      <trkpt lat="48.14289" lon="6.64624">
        <ele>483</ele>
        <time>2024-10-30T12:21:45Z</time>
      </trkpt>
      <trkpt lat="48.14291" lon="6.64638">
        <ele>481.9</ele>
        <time>2024-10-30T12:21:55Z</time>
      </trkpt>
      <trkpt lat="48.14292" lon="6.64652">
        <ele>480.7</ele>
        <time>2024-10-30T12:22:05Z</time>
      </trkpt>
      <trkpt lat="48.14293" lon="6.64666">
        <ele>479.6</ele>
        <time>2024-10-30T12:22:14Z</time>
      </trkpt>
      <trkpt lat="48.14294" lon="6.6468">
        <ele>478.6</ele>
        <time>2024-10-30T12:22:24Z</time>
      </trkpt>
      <trkpt lat="48.14293" lon="6.6469">
        <ele>477.9</ele>
        <time>2024-10-30T12:22:38Z</time>
      </trkpt>
      <trkpt lat="48.14293" lon="6.6469">
        <ele>477.9</ele>
        <time>2024-10-30T12:22:39Z</time>
      </trkpt>
      <trkpt lat="48.14293" lon="6.6469">
        <ele>477.9</ele>
        <time>2024-10-30T12:22:40Z</time>
      </trkpt>
      <trkpt lat="48.14294" lon="6.64693">
        <ele>477.7</ele>
        <time>2024-10-30T12:23:04Z</time>
      </trkpt>
      <trkpt lat="48.14294" lon="6.64693">
        <ele>477.6</ele>
        <time>2024-10-30T12:23:05Z</time>
      </trkpt>
      <trkpt lat="48.14294" lon="6.64693">
        <ele>477.6</ele>
        <time>2024-10-30T12:23:06Z</time>
      </trkpt>
      <trkpt lat="48.14294" lon="6.64693">
        <ele>477.6</ele>
        <time>2024-10-30T12:23:07Z</time>
      </trkpt>
      <trkpt lat="48.14293" lon="6.64696">
        <ele>477.5</ele>
        <time>2024-10-30T12:23:16Z</time>
      </trkpt>
      <trkpt lat="48.14294" lon="6.64697">
        <ele>477.4</ele>
        <time>2024-10-30T12:23:17Z</time>
      </trkpt>
      <trkpt lat="48.14291" lon="6.6471">
        <ele>476.5</ele>
        <time>2024-10-30T12:23:31Z</time>
      </trkpt>
      <trkpt lat="48.14287" lon="6.64723">
        <ele>475.7</ele>
        <time>2024-10-30T12:23:42Z</time>
      </trkpt>
      <trkpt lat="48.14281" lon="6.64736">
        <ele>475</ele>
        <time>2024-10-30T12:23:51Z</time>
      </trkpt>
      <trkpt lat="48.14278" lon="6.64749">
        <ele>474.6</ele>
        <time>2024-10-30T12:24:00Z</time>
      </trkpt>
      <trkpt lat="48.14276" lon="6.64764">
        <ele>474.5</ele>
        <time>2024-10-30T12:24:10Z</time>
      </trkpt>
      <trkpt lat="48.14274" lon="6.64779">
        <ele>474.6</ele>
        <time>2024-10-30T12:24:18Z</time>
      </trkpt>
      <trkpt lat="48.14271" lon="6.64792">
        <ele>474.8</ele>
        <time>2024-10-30T12:24:27Z</time>
      </trkpt>
      <trkpt lat="48.14267" lon="6.64806">
        <ele>474.8</ele>
        <time>2024-10-30T12:24:37Z</time>
      </trkpt>
      <trkpt lat="48.14263" lon="6.64819">
        <ele>474.8</ele>
        <time>2024-10-30T12:24:45Z</time>
      </trkpt>
      <trkpt lat="48.14259" lon="6.64832">
        <ele>474.6</ele>
        <time>2024-10-30T12:24:54Z</time>
      </trkpt>
      <trkpt lat="48.14255" lon="6.64846">
        <ele>474.3</ele>
        <time>2024-10-30T12:25:02Z</time>
      </trkpt>
      <trkpt lat="48.14254" lon="6.64861">
        <ele>473.8</ele>
        <time>2024-10-30T12:25:10Z</time>
      </trkpt>
      <trkpt lat="48.14256" lon="6.64875">
        <ele>472.9</ele>
        <time>2024-10-30T12:25:19Z</time>
      </trkpt>
      <trkpt lat="48.14255" lon="6.64875">
        <ele>472.8</ele>
        <time>2024-10-30T12:25:23Z</time>
      </trkpt>
      <trkpt lat="48.14255" lon="6.64875">
        <ele>472.9</ele>
        <time>2024-10-30T12:25:24Z</time>
      </trkpt>
      <trkpt lat="48.14256" lon="6.64876">
        <ele>472.9</ele>
        <time>2024-10-30T12:25:41Z</time>
      </trkpt>
      <trkpt lat="48.14257" lon="6.64877">
        <ele>473</ele>
        <time>2024-10-30T12:25:42Z</time>
      </trkpt>
      <trkpt lat="48.14258" lon="6.64878">
        <ele>473</ele>
        <time>2024-10-30T12:25:43Z</time>
      </trkpt>
      <trkpt lat="48.14263" lon="6.64891">
        <ele>476.4</ele>
        <time>2024-10-30T12:25:53Z</time>
      </trkpt>
      <trkpt lat="48.14263" lon="6.64905">
        <ele>478.8</ele>
        <time>2024-10-30T12:26:01Z</time>
      </trkpt>
      <trkpt lat="48.14262" lon="6.6492">
        <ele>480.5</ele>
        <time>2024-10-30T12:26:11Z</time>
      </trkpt>
      <trkpt lat="48.14259" lon="6.64934">
        <ele>480.9</ele>
        <time>2024-10-30T12:26:20Z</time>
      </trkpt>
      <trkpt lat="48.14256" lon="6.64948">
        <ele>481.7</ele>
        <time>2024-10-30T12:26:31Z</time>
      </trkpt>
      <trkpt lat="48.14252" lon="6.6496">
        <ele>480.7</ele>
        <time>2024-10-30T12:26:40Z</time>
      </trkpt>
      <trkpt lat="48.14248" lon="6.64974">
        <ele>482</ele>
        <time>2024-10-30T12:26:49Z</time>
      </trkpt>
      <trkpt lat="48.14244" lon="6.64988">
        <ele>482.9</ele>
        <time>2024-10-30T12:26:58Z</time>
      </trkpt>
      <trkpt lat="48.14243" lon="6.65003">
        <ele>483.7</ele>
        <time>2024-10-30T12:27:06Z</time>
      </trkpt>
      <trkpt lat="48.1424" lon="6.65017">
        <ele>484.5</ele>
        <time>2024-10-30T12:27:15Z</time>
      </trkpt>
      <trkpt lat="48.14241" lon="6.65031">
        <ele>486.6</ele>
        <time>2024-10-30T12:27:25Z</time>
      </trkpt>
      <trkpt lat="48.14242" lon="6.65044">
        <ele>487.8</ele>
        <time>2024-10-30T12:27:34Z</time>
      </trkpt>
      <trkpt lat="48.14241" lon="6.65059">
        <ele>489.2</ele>
        <time>2024-10-30T12:27:41Z</time>
      </trkpt>
      <trkpt lat="48.14241" lon="6.65074">
        <ele>491</ele>
        <time>2024-10-30T12:27:50Z</time>
      </trkpt>
      <trkpt lat="48.14243" lon="6.65087">
        <ele>492.5</ele>
        <time>2024-10-30T12:27:59Z</time>
      </trkpt>
      <trkpt lat="48.14245" lon="6.65102">
        <ele>495.5</ele>
        <time>2024-10-30T12:28:07Z</time>
      </trkpt>
      <trkpt lat="48.14246" lon="6.65116">
        <ele>497.2</ele>
        <time>2024-10-30T12:28:16Z</time>
      </trkpt>
      <trkpt lat="48.14245" lon="6.6513">
        <ele>498.4</ele>
        <time>2024-10-30T12:28:23Z</time>
      </trkpt>
      <trkpt lat="48.14247" lon="6.65144">
        <ele>500.9</ele>
        <time>2024-10-30T12:28:31Z</time>
      </trkpt>
      <trkpt lat="48.14248" lon="6.65158">
        <ele>501.8</ele>
        <time>2024-10-30T12:28:39Z</time>
      </trkpt>
      <trkpt lat="48.14249" lon="6.65173">
        <ele>502.5</ele>
        <time>2024-10-30T12:28:47Z</time>
      </trkpt>
      <trkpt lat="48.14249" lon="6.65187">
        <ele>502.8</ele>
        <time>2024-10-30T12:28:55Z</time>
      </trkpt>
      <trkpt lat="48.1425" lon="6.65201">
        <ele>504.5</ele>
        <time>2024-10-30T12:29:04Z</time>
      </trkpt>
      <trkpt lat="48.14252" lon="6.65216">
        <ele>504.7</ele>
        <time>2024-10-30T12:29:12Z</time>
      </trkpt>
      <trkpt lat="48.14254" lon="6.6523">
        <ele>506.9</ele>
        <time>2024-10-30T12:29:22Z</time>
      </trkpt>
      <trkpt lat="48.14257" lon="6.65245">
        <ele>508.7</ele>
        <time>2024-10-30T12:29:31Z</time>
      </trkpt>
      <trkpt lat="48.14259" lon="6.65259">
        <ele>510.4</ele>
        <time>2024-10-30T12:29:39Z</time>
      </trkpt>
      <trkpt lat="48.14263" lon="6.65272">
        <ele>512.2</ele>
        <time>2024-10-30T12:29:48Z</time>
      </trkpt>
      <trkpt lat="48.14265" lon="6.65285">
        <ele>513.8</ele>
        <time>2024-10-30T12:29:56Z</time>
      </trkpt>
      <trkpt lat="48.14268" lon="6.65299">
        <ele>515.3</ele>
        <time>2024-10-30T12:30:04Z</time>
      </trkpt>
      <trkpt lat="48.14271" lon="6.65312">
        <ele>516.8</ele>
        <time>2024-10-30T12:30:12Z</time>
      </trkpt>
      <trkpt lat="48.14275" lon="6.65325">
        <ele>519.7</ele>
        <time>2024-10-30T12:30:23Z</time>
      </trkpt>
      <trkpt lat="48.14279" lon="6.65337">
        <ele>521.2</ele>
        <time>2024-10-30T12:30:32Z</time>
      </trkpt>
      <trkpt lat="48.14282" lon="6.6535">
        <ele>522.7</ele>
        <time>2024-10-30T12:30:40Z</time>
      </trkpt>
      <trkpt lat="48.14285" lon="6.65363">
        <ele>524.5</ele>
        <time>2024-10-30T12:30:51Z</time>
      </trkpt>
      <trkpt lat="48.14286" lon="6.65378">
        <ele>525.3</ele>
        <time>2024-10-30T12:31:02Z</time>
      </trkpt>
      <trkpt lat="48.14285" lon="6.65393">
        <ele>525.9</ele>
        <time>2024-10-30T12:31:11Z</time>
      </trkpt>
      <trkpt lat="48.14285" lon="6.65407">
        <ele>526.9</ele>
        <time>2024-10-30T12:31:21Z</time>
      </trkpt>
      <trkpt lat="48.14284" lon="6.65422">
        <ele>526.7</ele>
        <time>2024-10-30T12:31:32Z</time>
      </trkpt>
      <trkpt lat="48.14281" lon="6.65436">
        <ele>528</ele>
        <time>2024-10-30T12:31:40Z</time>
      </trkpt>
      <trkpt lat="48.14278" lon="6.65449">
        <ele>528.1</ele>
        <time>2024-10-30T12:31:50Z</time>
      </trkpt>
      <trkpt lat="48.14274" lon="6.65462">
        <ele>526.5</ele>
        <time>2024-10-30T12:32:00Z</time>
      </trkpt>
      <trkpt lat="48.14268" lon="6.65474">
        <ele>525.1</ele>
        <time>2024-10-30T12:32:11Z</time>
      </trkpt>
      <trkpt lat="48.14261" lon="6.65483">
        <ele>522.2</ele>
        <time>2024-10-30T12:32:21Z</time>
      </trkpt>
      <trkpt lat="48.14255" lon="6.65493">
        <ele>521.2</ele>
        <time>2024-10-30T12:32:30Z</time>
      </trkpt>
      <trkpt lat="48.14248" lon="6.65504">
        <ele>519.2</ele>
        <time>2024-10-30T12:32:38Z</time>
      </trkpt>
      <trkpt lat="48.14242" lon="6.65515">
        <ele>518.1</ele>
        <time>2024-10-30T12:32:47Z</time>
      </trkpt>
      <trkpt lat="48.14236" lon="6.65526">
        <ele>516.8</ele>
        <time>2024-10-30T12:32:57Z</time>
      </trkpt>
      <trkpt lat="48.1423" lon="6.65538">
        <ele>515.9</ele>
        <time>2024-10-30T12:33:06Z</time>
      </trkpt>
      <trkpt lat="48.14225" lon="6.65551">
        <ele>514.4</ele>
        <time>2024-10-30T12:33:15Z</time>
      </trkpt>
      <trkpt lat="48.14223" lon="6.65565">
        <ele>514.5</ele>
        <time>2024-10-30T12:33:25Z</time>
      </trkpt>
      <trkpt lat="48.1422" lon="6.6558">
        <ele>515.5</ele>
        <time>2024-10-30T12:33:34Z</time>
      </trkpt>
      <trkpt lat="48.14219" lon="6.65594">
        <ele>517.6</ele>
        <time>2024-10-30T12:33:43Z</time>
      </trkpt>
      <trkpt lat="48.14217" lon="6.65607">
        <ele>517.8</ele>
        <time>2024-10-30T12:33:52Z</time>
      </trkpt>
      <trkpt lat="48.14214" lon="6.65616">
        <ele>517.5</ele>
        <time>2024-10-30T12:34:04Z</time>
      </trkpt>
      <trkpt lat="48.14214" lon="6.65616">
        <ele>517.6</ele>
        <time>2024-10-30T12:34:05Z</time>
      </trkpt>
      <trkpt lat="48.14211" lon="6.65618">
        <ele>516.8</ele>
        <time>2024-10-30T12:34:19Z</time>
      </trkpt>
      <trkpt lat="48.14211" lon="6.65619">
        <ele>516.9</ele>
        <time>2024-10-30T12:34:20Z</time>
      </trkpt>
      <trkpt lat="48.14204" lon="6.65628">
        <ele>515.6</ele>
        <time>2024-10-30T12:34:30Z</time>
      </trkpt>
      <trkpt lat="48.142" lon="6.65642">
        <ele>514.6</ele>
        <time>2024-10-30T12:34:39Z</time>
      </trkpt>
      <trkpt lat="48.14198" lon="6.65655">
        <ele>515.5</ele>
        <time>2024-10-30T12:34:48Z</time>
      </trkpt>
      <trkpt lat="48.14196" lon="6.6567">
        <ele>514.9</ele>
        <time>2024-10-30T12:34:56Z</time>
      </trkpt>
      <trkpt lat="48.14196" lon="6.65684">
        <ele>515.2</ele>
        <time>2024-10-30T12:35:04Z</time>
      </trkpt>
      <trkpt lat="48.14194" lon="6.65699">
        <ele>514.3</ele>
        <time>2024-10-30T12:35:12Z</time>
      </trkpt>
      <trkpt lat="48.14194" lon="6.65712">
        <ele>514.7</ele>
        <time>2024-10-30T12:35:20Z</time>
      </trkpt>
      <trkpt lat="48.14194" lon="6.65727">
        <ele>515</ele>
        <time>2024-10-30T12:35:29Z</time>
      </trkpt>
      <trkpt lat="48.14193" lon="6.6574">
        <ele>515.3</ele>
        <time>2024-10-30T12:35:37Z</time>
      </trkpt>
      <trkpt lat="48.14192" lon="6.65756">
        <ele>515.6</ele>
        <time>2024-10-30T12:35:45Z</time>
      </trkpt>
      <trkpt lat="48.14191" lon="6.65771">
        <ele>514.3</ele>
        <time>2024-10-30T12:35:52Z</time>
      </trkpt>
      <trkpt lat="48.14193" lon="6.65786">
        <ele>515.9</ele>
        <time>2024-10-30T12:36:01Z</time>
      </trkpt>
      <trkpt lat="48.14197" lon="6.65799">
        <ele>517.6</ele>
        <time>2024-10-30T12:36:10Z</time>
      </trkpt>
      <trkpt lat="48.14201" lon="6.65813">
        <ele>520.6</ele>
        <time>2024-10-30T12:36:19Z</time>
      </trkpt>
      <trkpt lat="48.14206" lon="6.65825">
        <ele>522</ele>
        <time>2024-10-30T12:36:29Z</time>
      </trkpt>
      <trkpt lat="48.14208" lon="6.65838">
        <ele>523</ele>
        <time>2024-10-30T12:36:37Z</time>
      </trkpt>
      <trkpt lat="48.14211" lon="6.65851">
        <ele>523.7</ele>
        <time>2024-10-30T12:36:46Z</time>
      </trkpt>
      <trkpt lat="48.14215" lon="6.65864">
        <ele>524.2</ele>
        <time>2024-10-30T12:36:55Z</time>
      </trkpt>
      <trkpt lat="48.14219" lon="6.65876">
        <ele>526</ele>
        <time>2024-10-30T12:37:04Z</time>
      </trkpt>
      <trkpt lat="48.14224" lon="6.65889">
        <ele>527.7</ele>
        <time>2024-10-30T12:37:13Z</time>
      </trkpt>
      <trkpt lat="48.14227" lon="6.65903">
        <ele>527.9</ele>
        <time>2024-10-30T12:37:22Z</time>
      </trkpt>
      <trkpt lat="48.14231" lon="6.65915">
        <ele>527.9</ele>
        <time>2024-10-30T12:37:32Z</time>
      </trkpt>
      <trkpt lat="48.14236" lon="6.65928">
        <ele>528.6</ele>
        <time>2024-10-30T12:37:41Z</time>
      </trkpt>
      <trkpt lat="48.14244" lon="6.65935">
        <ele>530.2</ele>
        <time>2024-10-30T12:37:54Z</time>
      </trkpt>
      <trkpt lat="48.1425" lon="6.65946">
        <ele>530.9</ele>
        <time>2024-10-30T12:38:02Z</time>
      </trkpt>
      <trkpt lat="48.14257" lon="6.65956">
        <ele>531.3</ele>
        <time>2024-10-30T12:38:10Z</time>
      </trkpt>
      <trkpt lat="48.14262" lon="6.65969">
        <ele>530.8</ele>
        <time>2024-10-30T12:38:19Z</time>
      </trkpt>
      <trkpt lat="48.14268" lon="6.65979">
        <ele>530</ele>
        <time>2024-10-30T12:38:31Z</time>
      </trkpt>
      <trkpt lat="48.14275" lon="6.65989">
        <ele>529.9</ele>
        <time>2024-10-30T12:38:38Z</time>
      </trkpt>
      <trkpt lat="48.14282" lon="6.65999">
        <ele>529.6</ele>
        <time>2024-10-30T12:38:46Z</time>
      </trkpt>
      <trkpt lat="48.14284" lon="6.66001">
        <ele>529.7</ele>
        <time>2024-10-30T12:38:55Z</time>
      </trkpt>
      <trkpt lat="48.14284" lon="6.66001">
        <ele>529.8</ele>
        <time>2024-10-30T12:38:56Z</time>
      </trkpt>
      <trkpt lat="48.14284" lon="6.66001">
        <ele>529.8</ele>
        <time>2024-10-30T12:38:57Z</time>
      </trkpt>
      <trkpt lat="48.14284" lon="6.66002">
        <ele>530.5</ele>
        <time>2024-10-30T12:38:58Z</time>
      </trkpt>
      <trkpt lat="48.14284" lon="6.66001">
        <ele>530.5</ele>
        <time>2024-10-30T12:38:59Z</time>
      </trkpt>
      <trkpt lat="48.14284" lon="6.66001">
        <ele>530.6</ele>
        <time>2024-10-30T12:39:00Z</time>
      </trkpt>
      <trkpt lat="48.14284" lon="6.66001">
        <ele>530.6</ele>
        <time>2024-10-30T12:39:01Z</time>
      </trkpt>
      <trkpt lat="48.14284" lon="6.66001">
        <ele>530.7</ele>
        <time>2024-10-30T12:39:02Z</time>
      </trkpt>
      <trkpt lat="48.14283" lon="6.66001">
        <ele>530.2</ele>
        <time>2024-10-30T12:39:38Z</time>
      </trkpt>
      <trkpt lat="48.14283" lon="6.66">
        <ele>530.2</ele>
        <time>2024-10-30T12:39:39Z</time>
      </trkpt>
      <trkpt lat="48.14283" lon="6.66">
        <ele>530.3</ele>
        <time>2024-10-30T12:39:40Z</time>
      </trkpt>
      <trkpt lat="48.14283" lon="6.66">
        <ele>530.4</ele>
        <time>2024-10-30T12:39:41Z</time>
      </trkpt>
      <trkpt lat="48.14283" lon="6.66">
        <ele>530.4</ele>
        <time>2024-10-30T12:39:42Z</time>
      </trkpt>
      <trkpt lat="48.14282" lon="6.65999">
        <ele>530.5</ele>
        <time>2024-10-30T12:41:16Z</time>
      </trkpt>
      <trkpt lat="48.14282" lon="6.65999">
        <ele>530.6</ele>
        <time>2024-10-30T12:41:17Z</time>
      </trkpt>
      <trkpt lat="48.14282" lon="6.65999">
        <ele>530.6</ele>
        <time>2024-10-30T12:41:18Z</time>
      </trkpt>
      <trkpt lat="48.14282" lon="6.65999">
        <ele>530.7</ele>
        <time>2024-10-30T12:41:19Z</time>
      </trkpt>
      <trkpt lat="48.14282" lon="6.66">
        <ele>530.7</ele>
        <time>2024-10-30T12:41:38Z</time>
      </trkpt>
      <trkpt lat="48.14283" lon="6.66">
        <ele>530.8</ele>
        <time>2024-10-30T12:41:39Z</time>
      </trkpt>
      <trkpt lat="48.14291" lon="6.66007">
        <ele>531.8</ele>
        <time>2024-10-30T12:41:48Z</time>
      </trkpt>
      <trkpt lat="48.143" lon="6.66014">
        <ele>532</ele>
        <time>2024-10-30T12:41:58Z</time>
      </trkpt>
      <trkpt lat="48.14309" lon="6.66017">
        <ele>533</ele>
        <time>2024-10-30T12:42:07Z</time>
      </trkpt>
      <trkpt lat="48.14317" lon="6.66024">
        <ele>533.8</ele>
        <time>2024-10-30T12:42:15Z</time>
      </trkpt>
      <trkpt lat="48.14327" lon="6.66026">
        <ele>534.3</ele>
        <time>2024-10-30T12:42:23Z</time>
      </trkpt>
      <trkpt lat="48.14335" lon="6.66034">
        <ele>534.1</ele>
        <time>2024-10-30T12:42:30Z</time>
      </trkpt>
      <trkpt lat="48.14344" lon="6.6604">
        <ele>534.7</ele>
        <time>2024-10-30T12:42:41Z</time>
      </trkpt>
      <trkpt lat="48.14349" lon="6.66052">
        <ele>533.7</ele>
        <time>2024-10-30T12:42:53Z</time>
      </trkpt>
      <trkpt lat="48.14349" lon="6.66058">
        <ele>533.2</ele>
        <time>2024-10-30T12:43:00Z</time>
      </trkpt>
      <trkpt lat="48.14349" lon="6.66058">
        <ele>533.3</ele>
        <time>2024-10-30T12:43:01Z</time>
      </trkpt>
      <trkpt lat="48.14349" lon="6.66058">
        <ele>533.4</ele>
        <time>2024-10-30T12:43:02Z</time>
      </trkpt>
      <trkpt lat="48.14349" lon="6.66058">
        <ele>533.4</ele>
        <time>2024-10-30T12:43:03Z</time>
      </trkpt>
      <trkpt lat="48.14349" lon="6.66058">
        <ele>533.5</ele>
        <time>2024-10-30T12:43:04Z</time>
      </trkpt>
      <trkpt lat="48.14349" lon="6.66058">
        <ele>533.6</ele>
        <time>2024-10-30T12:43:05Z</time>
      </trkpt>
      <trkpt lat="48.1435" lon="6.66054">
        <ele>534.6</ele>
        <time>2024-10-30T12:45:40Z</time>
      </trkpt>
      <trkpt lat="48.1435" lon="6.66054">
        <ele>534.6</ele>
        <time>2024-10-30T12:45:41Z</time>
      </trkpt>
      <trkpt lat="48.1435" lon="6.66054">
        <ele>534.7</ele>
        <time>2024-10-30T12:45:42Z</time>
      </trkpt>
      <trkpt lat="48.14351" lon="6.66054">
        <ele>534.7</ele>
        <time>2024-10-30T12:45:45Z</time>
      </trkpt>
      <trkpt lat="48.14351" lon="6.66054">
        <ele>534.8</ele>
        <time>2024-10-30T12:45:46Z</time>
      </trkpt>
      <trkpt lat="48.14351" lon="6.66053">
        <ele>534.9</ele>
        <time>2024-10-30T12:45:47Z</time>
      </trkpt>
      <trkpt lat="48.14351" lon="6.66051">
        <ele>534.9</ele>
        <time>2024-10-30T12:45:50Z</time>
      </trkpt>
      <trkpt lat="48.14352" lon="6.66051">
        <ele>535</ele>
        <time>2024-10-30T12:45:51Z</time>
      </trkpt>
      <trkpt lat="48.14352" lon="6.66051">
        <ele>535.1</ele>
        <time>2024-10-30T12:45:52Z</time>
      </trkpt>
      <trkpt lat="48.14352" lon="6.66051">
        <ele>535.1</ele>
        <time>2024-10-30T12:45:53Z</time>
      </trkpt>
      <trkpt lat="48.14352" lon="6.66051">
        <ele>535.2</ele>
        <time>2024-10-30T12:45:54Z</time>
      </trkpt>
      <trkpt lat="48.14351" lon="6.6605">
        <ele>535.8</ele>
        <time>2024-10-30T12:47:00Z</time>
      </trkpt>
      <trkpt lat="48.14351" lon="6.6605">
        <ele>535.9</ele>
        <time>2024-10-30T12:47:01Z</time>
      </trkpt>
      <trkpt lat="48.14351" lon="6.6605">
        <ele>535.9</ele>
        <time>2024-10-30T12:47:02Z</time>
      </trkpt>
      <trkpt lat="48.14351" lon="6.66051">
        <ele>535.4</ele>
        <time>2024-10-30T12:47:05Z</time>
      </trkpt>
      <trkpt lat="48.14351" lon="6.66052">
        <ele>535.5</ele>
        <time>2024-10-30T12:47:06Z</time>
      </trkpt>
      <trkpt lat="48.14351" lon="6.66053">
        <ele>535.6</ele>
        <time>2024-10-30T12:47:07Z</time>
      </trkpt>
      <trkpt lat="48.14351" lon="6.66055">
        <ele>535.6</ele>
        <time>2024-10-30T12:47:08Z</time>
      </trkpt>
      <trkpt lat="48.14351" lon="6.66054">
        <ele>535.7</ele>
        <time>2024-10-30T12:47:09Z</time>
      </trkpt>
      <trkpt lat="48.14351" lon="6.66054">
        <ele>535.7</ele>
        <time>2024-10-30T12:47:10Z</time>
      </trkpt>
      <trkpt lat="48.14351" lon="6.66054">
        <ele>535.8</ele>
        <time>2024-10-30T12:47:11Z</time>
      </trkpt>
      <trkpt lat="48.14351" lon="6.66054">
        <ele>535.9</ele>
        <time>2024-10-30T12:47:12Z</time>
      </trkpt>
      <trkpt lat="48.14351" lon="6.66055">
        <ele>535.9</ele>
        <time>2024-10-30T12:47:25Z</time>
      </trkpt>
      <trkpt lat="48.14351" lon="6.66055">
        <ele>535.5</ele>
        <time>2024-10-30T12:47:26Z</time>
      </trkpt>
      <trkpt lat="48.14351" lon="6.66055">
        <ele>535.5</ele>
        <time>2024-10-30T12:47:27Z</time>
      </trkpt>
      <trkpt lat="48.14351" lon="6.66055">
        <ele>535.6</ele>
        <time>2024-10-30T12:47:28Z</time>
      </trkpt>
      <trkpt lat="48.14351" lon="6.66055">
        <ele>535.7</ele>
        <time>2024-10-30T12:47:29Z</time>
      </trkpt>
      <trkpt lat="48.14351" lon="6.66055">
        <ele>535.7</ele>
        <time>2024-10-30T12:47:48Z</time>
      </trkpt>
      <trkpt lat="48.14351" lon="6.66055">
        <ele>535.8</ele>
        <time>2024-10-30T12:47:49Z</time>
      </trkpt>
      <trkpt lat="48.14351" lon="6.66055">
        <ele>535.8</ele>
        <time>2024-10-30T12:47:50Z</time>
      </trkpt>
      <trkpt lat="48.14351" lon="6.66055">
        <ele>535.9</ele>
        <time>2024-10-30T12:47:51Z</time>
      </trkpt>
      <trkpt lat="48.14351" lon="6.66055">
        <ele>536</ele>
        <time>2024-10-30T12:47:52Z</time>
      </trkpt>
      <trkpt lat="48.1435" lon="6.66056">
        <ele>536</ele>
        <time>2024-10-30T12:47:55Z</time>
      </trkpt>
      <trkpt lat="48.1435" lon="6.66056">
        <ele>536.1</ele>
        <time>2024-10-30T12:47:56Z</time>
      </trkpt>
      <trkpt lat="48.14351" lon="6.66057">
        <ele>536.2</ele>
        <time>2024-10-30T12:47:57Z</time>
      </trkpt>
      <trkpt lat="48.14352" lon="6.66066">
        <ele>535.3</ele>
        <time>2024-10-30T12:48:06Z</time>
      </trkpt>
      <trkpt lat="48.14352" lon="6.66067">
        <ele>535.4</ele>
        <time>2024-10-30T12:48:07Z</time>
      </trkpt>
      <trkpt lat="48.14352" lon="6.66068">
        <ele>535</ele>
        <time>2024-10-30T12:48:08Z</time>
      </trkpt>
      <trkpt lat="48.14352" lon="6.66069">
        <ele>535.1</ele>
        <time>2024-10-30T12:48:09Z</time>
      </trkpt>
      <trkpt lat="48.14351" lon="6.66083">
        <ele>534.2</ele>
        <time>2024-10-30T12:48:18Z</time>
      </trkpt>
      <trkpt lat="48.14351" lon="6.66097">
        <ele>533.9</ele>
        <time>2024-10-30T12:48:28Z</time>
      </trkpt>
      <trkpt lat="48.1435" lon="6.66111">
        <ele>535</ele>
        <time>2024-10-30T12:48:36Z</time>
      </trkpt>
      <trkpt lat="48.14349" lon="6.66125">
        <ele>535.8</ele>
        <time>2024-10-30T12:48:44Z</time>
      </trkpt>
      <trkpt lat="48.1435" lon="6.66138">
        <ele>538.3</ele>
        <time>2024-10-30T12:48:53Z</time>
      </trkpt>
      <trkpt lat="48.14348" lon="6.66152">
        <ele>539.2</ele>
        <time>2024-10-30T12:49:01Z</time>
      </trkpt>
      <trkpt lat="48.14349" lon="6.66166">
        <ele>541.2</ele>
        <time>2024-10-30T12:49:10Z</time>
      </trkpt>
      <trkpt lat="48.14349" lon="6.66169">
        <ele>542</ele>
        <time>2024-10-30T12:49:16Z</time>
      </trkpt>
      <trkpt lat="48.14348" lon="6.66169">
        <ele>542</ele>
        <time>2024-10-30T12:49:17Z</time>
      </trkpt>
      <trkpt lat="48.14348" lon="6.66174">
        <ele>542.9</ele>
        <time>2024-10-30T12:49:21Z</time>
      </trkpt>
      <trkpt lat="48.14347" lon="6.66176">
        <ele>543.7</ele>
        <time>2024-10-30T12:49:22Z</time>
      </trkpt>
      <trkpt lat="48.14346" lon="6.66191">
        <ele>545.1</ele>
        <time>2024-10-30T12:49:32Z</time>
      </trkpt>
      <trkpt lat="48.14345" lon="6.66206">
        <ele>549.1</ele>
        <time>2024-10-30T12:49:40Z</time>
      </trkpt>
      <trkpt lat="48.14345" lon="6.6622">
        <ele>552.9</ele>
        <time>2024-10-30T12:49:47Z</time>
      </trkpt>
      <trkpt lat="48.14342" lon="6.66233">
        <ele>555.5</ele>
        <time>2024-10-30T12:49:56Z</time>
      </trkpt>
      <trkpt lat="48.14341" lon="6.66248">
        <ele>558.9</ele>
        <time>2024-10-30T12:50:07Z</time>
      </trkpt>
      <trkpt lat="48.1434" lon="6.66262">
        <ele>562.3</ele>
        <time>2024-10-30T12:50:17Z</time>
      </trkpt>
      <trkpt lat="48.14336" lon="6.66276">
        <ele>563.4</ele>
        <time>2024-10-30T12:50:28Z</time>
      </trkpt>
      <trkpt lat="48.14335" lon="6.6629">
        <ele>564</ele>
        <time>2024-10-30T12:50:37Z</time>
      </trkpt>
      <trkpt lat="48.14331" lon="6.66303">
        <ele>564.4</ele>
        <time>2024-10-30T12:50:45Z</time>
      </trkpt>
      <trkpt lat="48.14328" lon="6.66317">
        <ele>565.1</ele>
        <time>2024-10-30T12:50:54Z</time>
      </trkpt>
      <trkpt lat="48.14326" lon="6.66331">
        <ele>564.9</ele>
        <time>2024-10-30T12:51:02Z</time>
      </trkpt>
      <trkpt lat="48.14323" lon="6.66346">
        <ele>565</ele>
        <time>2024-10-30T12:51:13Z</time>
      </trkpt>
      <trkpt lat="48.14321" lon="6.6636">
        <ele>565.4</ele>
        <time>2024-10-30T12:51:22Z</time>
      </trkpt>
      <trkpt lat="48.14317" lon="6.66374">
        <ele>564.9</ele>
        <time>2024-10-30T12:51:30Z</time>
      </trkpt>
      <trkpt lat="48.14313" lon="6.66387">
        <ele>564.3</ele>
        <time>2024-10-30T12:51:38Z</time>
      </trkpt>
      <trkpt lat="48.14311" lon="6.66401">
        <ele>563.3</ele>
        <time>2024-10-30T12:51:46Z</time>
      </trkpt>
      <trkpt lat="48.14307" lon="6.66415">
        <ele>562</ele>
        <time>2024-10-30T12:51:56Z</time>
      </trkpt>
      <trkpt lat="48.14305" lon="6.66429">
        <ele>560.7</ele>
        <time>2024-10-30T12:52:04Z</time>
      </trkpt>
      <trkpt lat="48.14303" lon="6.66444">
        <ele>559.3</ele>
        <time>2024-10-30T12:52:13Z</time>
      </trkpt>
      <trkpt lat="48.14301" lon="6.66459">
        <ele>559.7</ele>
        <time>2024-10-30T12:52:22Z</time>
      </trkpt>
      <trkpt lat="48.14301" lon="6.66474">
        <ele>558.1</ele>
        <time>2024-10-30T12:52:30Z</time>
      </trkpt>
      <trkpt lat="48.14301" lon="6.66487">
        <ele>558.3</ele>
        <time>2024-10-30T12:52:38Z</time>
      </trkpt>
      <trkpt lat="48.14301" lon="6.66498">
        <ele>560.4</ele>
        <time>2024-10-30T12:52:48Z</time>
      </trkpt>
      <trkpt lat="48.14301" lon="6.66498">
        <ele>560.5</ele>
        <time>2024-10-30T12:52:49Z</time>
      </trkpt>
      <trkpt lat="48.14301" lon="6.66498">
        <ele>560.5</ele>
        <time>2024-10-30T12:52:50Z</time>
      </trkpt>
      <trkpt lat="48.14301" lon="6.66498">
        <ele>560.6</ele>
        <time>2024-10-30T12:53:20Z</time>
      </trkpt>
      <trkpt lat="48.14302" lon="6.66499">
        <ele>560.7</ele>
        <time>2024-10-30T12:53:21Z</time>
      </trkpt>
      <trkpt lat="48.14302" lon="6.66498">
        <ele>560.7</ele>
        <time>2024-10-30T12:53:22Z</time>
      </trkpt>
      <trkpt lat="48.14302" lon="6.66498">
        <ele>560.8</ele>
        <time>2024-10-30T12:53:23Z</time>
      </trkpt>
      <trkpt lat="48.14302" lon="6.66498">
        <ele>560.9</ele>
        <time>2024-10-30T12:53:24Z</time>
      </trkpt>
      <trkpt lat="48.14303" lon="6.66499">
        <ele>560.9</ele>
        <time>2024-10-30T12:54:06Z</time>
      </trkpt>
      <trkpt lat="48.14304" lon="6.66498">
        <ele>561</ele>
        <time>2024-10-30T12:54:07Z</time>
      </trkpt>
      <trkpt lat="48.14306" lon="6.66498">
        <ele>563</ele>
        <time>2024-10-30T12:54:11Z</time>
      </trkpt>
      <trkpt lat="48.14306" lon="6.66498">
        <ele>563</ele>
        <time>2024-10-30T12:54:12Z</time>
      </trkpt>
      <trkpt lat="48.14306" lon="6.66498">
        <ele>563.1</ele>
        <time>2024-10-30T12:54:13Z</time>
      </trkpt>
      <trkpt lat="48.14306" lon="6.66498">
        <ele>563.2</ele>
        <time>2024-10-30T12:54:14Z</time>
      </trkpt>
      <trkpt lat="48.14306" lon="6.66498">
        <ele>563.2</ele>
        <time>2024-10-30T12:54:15Z</time>
      </trkpt>
      <trkpt lat="48.14306" lon="6.66498">
        <ele>563.3</ele>
        <time>2024-10-30T12:54:21Z</time>
      </trkpt>
      <trkpt lat="48.14306" lon="6.66498">
        <ele>563.3</ele>
        <time>2024-10-30T12:54:22Z</time>
      </trkpt>
      <trkpt lat="48.14306" lon="6.66498">
        <ele>563.4</ele>
        <time>2024-10-30T12:54:23Z</time>
      </trkpt>
      <trkpt lat="48.14308" lon="6.66496">
        <ele>565.4</ele>
        <time>2024-10-30T12:55:01Z</time>
      </trkpt>
      <trkpt lat="48.14308" lon="6.66494">
        <ele>565.5</ele>
        <time>2024-10-30T12:55:02Z</time>
      </trkpt>
      <trkpt lat="48.14309" lon="6.66492">
        <ele>565.4</ele>
        <time>2024-10-30T12:55:03Z</time>
      </trkpt>
      <trkpt lat="48.14313" lon="6.6648">
        <ele>569.3</ele>
        <time>2024-10-30T12:55:10Z</time>
      </trkpt>
      <trkpt lat="48.14318" lon="6.66467">
        <ele>570.8</ele>
        <time>2024-10-30T12:55:17Z</time>
      </trkpt>
      <trkpt lat="48.14322" lon="6.66454">
        <ele>573.7</ele>
        <time>2024-10-30T12:55:26Z</time>
      </trkpt>
      <trkpt lat="48.14327" lon="6.66443">
        <ele>577.3</ele>
        <time>2024-10-30T12:55:37Z</time>
      </trkpt>
      <trkpt lat="48.14332" lon="6.6643">
        <ele>579</ele>
        <time>2024-10-30T12:55:48Z</time>
      </trkpt>
      <trkpt lat="48.14339" lon="6.66421">
        <ele>584.8</ele>
        <time>2024-10-30T12:55:58Z</time>
      </trkpt>
      <trkpt lat="48.14348" lon="6.66414">
        <ele>590.1</ele>
        <time>2024-10-30T12:56:08Z</time>
      </trkpt>
      <trkpt lat="48.14356" lon="6.66406">
        <ele>595.6</ele>
        <time>2024-10-30T12:56:18Z</time>
      </trkpt>
      <trkpt lat="48.14361" lon="6.66395">
        <ele>599.3</ele>
        <time>2024-10-30T12:56:28Z</time>
      </trkpt>
      <trkpt lat="48.14369" lon="6.66385">
        <ele>602.7</ele>
        <time>2024-10-30T12:56:36Z</time>
      </trkpt>
      <trkpt lat="48.14375" lon="6.66375">
        <ele>604.6</ele>
        <time>2024-10-30T12:56:46Z</time>
      </trkpt>
      <trkpt lat="48.14382" lon="6.66364">
        <ele>608.3</ele>
        <time>2024-10-30T12:56:56Z</time>
      </trkpt>
      <trkpt lat="48.14382" lon="6.6635">
        <ele>605.3</ele>
        <time>2024-10-30T12:57:04Z</time>
      </trkpt>
      <trkpt lat="48.14389" lon="6.6634">
        <ele>607</ele>
        <time>2024-10-30T12:57:14Z</time>
      </trkpt>
      <trkpt lat="48.14398" lon="6.66334">
        <ele>611.2</ele>
        <time>2024-10-30T12:57:24Z</time>
      </trkpt>
      <trkpt lat="48.14407" lon="6.66327">
        <ele>613.7</ele>
        <time>2024-10-30T12:57:33Z</time>
      </trkpt>
      <trkpt lat="48.14414" lon="6.66317">
        <ele>617.1</ele>
        <time>2024-10-30T12:57:43Z</time>
      </trkpt>
      <trkpt lat="48.1442" lon="6.66306">
        <ele>616</ele>
        <time>2024-10-30T12:57:53Z</time>
      </trkpt>
      <trkpt lat="48.14427" lon="6.66297">
        <ele>615.8</ele>
        <time>2024-10-30T12:58:02Z</time>
      </trkpt>
      <trkpt lat="48.14432" lon="6.66284">
        <ele>614</ele>
        <time>2024-10-30T12:58:20Z</time>
      </trkpt>
      <trkpt lat="48.14438" lon="6.66273">
        <ele>612.4</ele>
        <time>2024-10-30T12:58:27Z</time>
      </trkpt>
      <trkpt lat="48.14444" lon="6.66263">
        <ele>614</ele>
        <time>2024-10-30T12:58:34Z</time>
      </trkpt>
      <trkpt lat="48.14452" lon="6.66255">
        <ele>614</ele>
        <time>2024-10-30T12:58:41Z</time>
      </trkpt>
      <trkpt lat="48.14457" lon="6.66242">
        <ele>612.4</ele>
        <time>2024-10-30T12:58:50Z</time>
      </trkpt>
      <trkpt lat="48.14465" lon="6.66235">
        <ele>613.6</ele>
        <time>2024-10-30T12:58:58Z</time>
      </trkpt>
      <trkpt lat="48.14472" lon="6.66225">
        <ele>613.6</ele>
        <time>2024-10-30T12:59:07Z</time>
      </trkpt>
      <trkpt lat="48.14477" lon="6.66213">
        <ele>611.8</ele>
        <time>2024-10-30T12:59:17Z</time>
      </trkpt>
      <trkpt lat="48.14482" lon="6.66204">
        <ele>610.9</ele>
        <time>2024-10-30T12:59:33Z</time>
      </trkpt>
      <trkpt lat="48.14482" lon="6.66204">
        <ele>611</ele>
        <time>2024-10-30T12:59:34Z</time>
      </trkpt>
      <trkpt lat="48.14481" lon="6.66204">
        <ele>610.2</ele>
        <time>2024-10-30T12:59:38Z</time>
      </trkpt>
      <trkpt lat="48.14481" lon="6.66204">
        <ele>610.2</ele>
        <time>2024-10-30T12:59:39Z</time>
      </trkpt>
      <trkpt lat="48.14481" lon="6.66204">
        <ele>610.3</ele>
        <time>2024-10-30T12:59:40Z</time>
      </trkpt>
      <trkpt lat="48.14481" lon="6.66204">
        <ele>610.4</ele>
        <time>2024-10-30T12:59:41Z</time>
      </trkpt>
      <trkpt lat="48.14481" lon="6.66204">
        <ele>610.4</ele>
        <time>2024-10-30T12:59:42Z</time>
      </trkpt>
      <trkpt lat="48.14482" lon="6.66204">
        <ele>611.4</ele>
        <time>2024-10-30T13:00:56Z</time>
      </trkpt>
      <trkpt lat="48.14482" lon="6.66204">
        <ele>611.4</ele>
        <time>2024-10-30T13:00:57Z</time>
      </trkpt>
      <trkpt lat="48.14482" lon="6.66204">
        <ele>611.5</ele>
        <time>2024-10-30T13:00:58Z</time>
      </trkpt>
      <trkpt lat="48.14482" lon="6.66204">
        <ele>611.6</ele>
        <time>2024-10-30T13:00:59Z</time>
      </trkpt>
      <trkpt lat="48.14483" lon="6.66205">
        <ele>611.6</ele>
        <time>2024-10-30T13:01:41Z</time>
      </trkpt>
      <trkpt lat="48.14484" lon="6.66204">
        <ele>611.7</ele>
        <time>2024-10-30T13:01:42Z</time>
      </trkpt>
      <trkpt lat="48.14485" lon="6.66203">
        <ele>612.6</ele>
        <time>2024-10-30T13:01:43Z</time>
      </trkpt>
      <trkpt lat="48.14491" lon="6.66193">
        <ele>611.4</ele>
        <time>2024-10-30T13:01:54Z</time>
      </trkpt>
      <trkpt lat="48.14499" lon="6.66186">
        <ele>611.4</ele>
        <time>2024-10-30T13:02:02Z</time>
      </trkpt>
      <trkpt lat="48.14507" lon="6.66178">
        <ele>612.2</ele>
        <time>2024-10-30T13:02:13Z</time>
      </trkpt>
      <trkpt lat="48.14514" lon="6.66167">
        <ele>612.4</ele>
        <time>2024-10-30T13:02:24Z</time>
      </trkpt>
      <trkpt lat="48.14521" lon="6.66158">
        <ele>612.7</ele>
        <time>2024-10-30T13:02:33Z</time>
      </trkpt>
      <trkpt lat="48.14528" lon="6.6615">
        <ele>614.9</ele>
        <time>2024-10-30T13:02:42Z</time>
      </trkpt>
      <trkpt lat="48.14535" lon="6.6614">
        <ele>616.8</ele>
        <time>2024-10-30T13:02:50Z</time>
      </trkpt>
      <trkpt lat="48.14541" lon="6.66129">
        <ele>618.9</ele>
        <time>2024-10-30T13:02:59Z</time>
      </trkpt>
      <trkpt lat="48.14548" lon="6.66121">
        <ele>621.9</ele>
        <time>2024-10-30T13:03:07Z</time>
      </trkpt>
      <trkpt lat="48.14552" lon="6.66108">
        <ele>623.5</ele>
        <time>2024-10-30T13:03:18Z</time>
      </trkpt>
      <trkpt lat="48.14559" lon="6.66098">
        <ele>625.5</ele>
        <time>2024-10-30T13:03:26Z</time>
      </trkpt>
      <trkpt lat="48.14563" lon="6.66085">
        <ele>627.6</ele>
        <time>2024-10-30T13:03:35Z</time>
      </trkpt>
      <trkpt lat="48.14569" lon="6.66074">
        <ele>628.7</ele>
        <time>2024-10-30T13:03:45Z</time>
      </trkpt>
      <trkpt lat="48.14574" lon="6.66062">
        <ele>628.9</ele>
        <time>2024-10-30T13:03:56Z</time>
      </trkpt>
      <trkpt lat="48.14583" lon="6.66057">
        <ele>628.5</ele>
        <time>2024-10-30T13:04:11Z</time>
      </trkpt>
      <trkpt lat="48.1459" lon="6.66066">
        <ele>628</ele>
        <time>2024-10-30T13:04:20Z</time>
      </trkpt>
      <trkpt lat="48.14591" lon="6.6608">
        <ele>629</ele>
        <time>2024-10-30T13:04:30Z</time>
      </trkpt>
      <trkpt lat="48.14589" lon="6.66095">
        <ele>630</ele>
        <time>2024-10-30T13:04:42Z</time>
      </trkpt>
      <trkpt lat="48.1459" lon="6.66109">
        <ele>631</ele>
        <time>2024-10-30T13:04:52Z</time>
      </trkpt>
      <trkpt lat="48.1459" lon="6.66123">
        <ele>631.7</ele>
        <time>2024-10-30T13:05:00Z</time>
      </trkpt>
      <trkpt lat="48.14589" lon="6.66137">
        <ele>632.2</ele>
        <time>2024-10-30T13:05:09Z</time>
      </trkpt>
      <trkpt lat="48.14585" lon="6.6615">
        <ele>632.4</ele>
        <time>2024-10-30T13:05:20Z</time>
      </trkpt>
      <trkpt lat="48.14581" lon="6.66155">
        <ele>632.3</ele>
        <time>2024-10-30T13:05:31Z</time>
      </trkpt>
      <trkpt lat="48.14581" lon="6.66155">
        <ele>632.3</ele>
        <time>2024-10-30T13:05:32Z</time>
      </trkpt>
      <trkpt lat="48.14581" lon="6.66155">
        <ele>632.3</ele>
        <time>2024-10-30T13:05:33Z</time>
      </trkpt>
      <trkpt lat="48.1458" lon="6.66157">
        <ele>632.3</ele>
        <time>2024-10-30T13:05:39Z</time>
      </trkpt>
      <trkpt lat="48.1458" lon="6.66157">
        <ele>632.3</ele>
        <time>2024-10-30T13:05:40Z</time>
      </trkpt>
      <trkpt lat="48.1458" lon="6.66157">
        <ele>632.3</ele>
        <time>2024-10-30T13:05:41Z</time>
      </trkpt>
      <trkpt lat="48.1458" lon="6.66157">
        <ele>632.3</ele>
        <time>2024-10-30T13:05:42Z</time>
      </trkpt>
      <trkpt lat="48.1458" lon="6.66159">
        <ele>632.3</ele>
        <time>2024-10-30T13:05:51Z</time>
      </trkpt>
      <trkpt lat="48.14579" lon="6.6616">
        <ele>632.3</ele>
        <time>2024-10-30T13:05:52Z</time>
      </trkpt>
      <trkpt lat="48.14575" lon="6.66173">
        <ele>632.1</ele>
        <time>2024-10-30T13:06:01Z</time>
      </trkpt>
      <trkpt lat="48.14568" lon="6.66184">
        <ele>631.9</ele>
        <time>2024-10-30T13:06:10Z</time>
      </trkpt>
      <trkpt lat="48.14563" lon="6.66196">
        <ele>631.8</ele>
        <time>2024-10-30T13:06:18Z</time>
      </trkpt>
      <trkpt lat="48.1456" lon="6.66209">
        <ele>631.8</ele>
        <time>2024-10-30T13:06:26Z</time>
      </trkpt>
      <trkpt lat="48.14557" lon="6.66223">
        <ele>631.6</ele>
        <time>2024-10-30T13:06:34Z</time>
      </trkpt>
      <trkpt lat="48.14552" lon="6.66235">
        <ele>631.4</ele>
        <time>2024-10-30T13:06:44Z</time>
      </trkpt>
      <trkpt lat="48.1455" lon="6.6625">
        <ele>631.1</ele>
        <time>2024-10-30T13:06:53Z</time>
      </trkpt>
      <trkpt lat="48.14546" lon="6.66263">
        <ele>630.8</ele>
        <time>2024-10-30T13:07:02Z</time>
      </trkpt>
      <trkpt lat="48.14541" lon="6.66275">
        <ele>630.5</ele>
        <time>2024-10-30T13:07:11Z</time>
      </trkpt>
      <trkpt lat="48.14536" lon="6.66288">
        <ele>630.5</ele>
        <time>2024-10-30T13:07:20Z</time>
      </trkpt>
      <trkpt lat="48.14533" lon="6.66301">
        <ele>630.6</ele>
        <time>2024-10-30T13:07:30Z</time>
      </trkpt>
      <trkpt lat="48.14529" lon="6.66314">
        <ele>630.9</ele>
        <time>2024-10-30T13:07:39Z</time>
      </trkpt>
      <trkpt lat="48.14526" lon="6.66327">
        <ele>631.2</ele>
        <time>2024-10-30T13:07:48Z</time>
      </trkpt>
      <trkpt lat="48.14523" lon="6.66341">
        <ele>631.6</ele>
        <time>2024-10-30T13:07:57Z</time>
      </trkpt>
      <trkpt lat="48.14522" lon="6.66356">
        <ele>631.9</ele>
        <time>2024-10-30T13:08:06Z</time>
      </trkpt>
      <trkpt lat="48.14521" lon="6.66371">
        <ele>632.3</ele>
        <time>2024-10-30T13:08:15Z</time>
      </trkpt>
      <trkpt lat="48.1452" lon="6.66385">
        <ele>632.8</ele>
        <time>2024-10-30T13:08:24Z</time>
      </trkpt>
      <trkpt lat="48.14518" lon="6.66398">
        <ele>633.4</ele>
        <time>2024-10-30T13:08:35Z</time>
      </trkpt>
      <trkpt lat="48.14513" lon="6.6641">
        <ele>634.2</ele>
        <time>2024-10-30T13:08:45Z</time>
      </trkpt>
      <trkpt lat="48.14511" lon="6.66417">
        <ele>634.7</ele>
        <time>2024-10-30T13:09:06Z</time>
      </trkpt>
      <trkpt lat="48.14511" lon="6.66417">
        <ele>634.7</ele>
        <time>2024-10-30T13:09:07Z</time>
      </trkpt>
      <trkpt lat="48.14511" lon="6.66417">
        <ele>634.7</ele>
        <time>2024-10-30T13:09:08Z</time>
      </trkpt>
      <trkpt lat="48.14511" lon="6.66417">
        <ele>634.8</ele>
        <time>2024-10-30T13:09:29Z</time>
      </trkpt>
      <trkpt lat="48.1451" lon="6.66418">
        <ele>634.8</ele>
        <time>2024-10-30T13:09:30Z</time>
      </trkpt>
      <trkpt lat="48.14501" lon="6.66423">
        <ele>635.8</ele>
        <time>2024-10-30T13:09:39Z</time>
      </trkpt>
      <trkpt lat="48.14493" lon="6.66429">
        <ele>636.5</ele>
        <time>2024-10-30T13:09:49Z</time>
      </trkpt>
      <trkpt lat="48.14484" lon="6.66433">
        <ele>636.8</ele>
        <time>2024-10-30T13:09:59Z</time>
      </trkpt>
      <trkpt lat="48.14475" lon="6.66432">
        <ele>636.6</ele>
        <time>2024-10-30T13:10:10Z</time>
      </trkpt>
      <trkpt lat="48.14467" lon="6.66441">
        <ele>636.1</ele>
        <time>2024-10-30T13:10:19Z</time>
      </trkpt>
      <trkpt lat="48.14459" lon="6.66449">
        <ele>635.4</ele>
        <time>2024-10-30T13:10:26Z</time>
      </trkpt>
      <trkpt lat="48.14452" lon="6.66457">
        <ele>634.7</ele>
        <time>2024-10-30T13:10:34Z</time>
      </trkpt>
      <trkpt lat="48.14446" lon="6.66468">
        <ele>633.9</ele>
        <time>2024-10-30T13:10:42Z</time>
      </trkpt>
      <trkpt lat="48.1444" lon="6.66479">
        <ele>633.2</ele>
        <time>2024-10-30T13:10:51Z</time>
      </trkpt>
      <trkpt lat="48.14437" lon="6.66492">
        <ele>632.6</ele>
        <time>2024-10-30T13:10:59Z</time>
      </trkpt>
      <trkpt lat="48.14435" lon="6.66505">
        <ele>632.2</ele>
        <time>2024-10-30T13:11:23Z</time>
      </trkpt>
      <trkpt lat="48.14433" lon="6.66518">
        <ele>631.8</ele>
        <time>2024-10-30T13:11:30Z</time>
      </trkpt>
      <trkpt lat="48.14431" lon="6.66533">
        <ele>631.5</ele>
        <time>2024-10-30T13:11:38Z</time>
      </trkpt>
      <trkpt lat="48.14428" lon="6.66548">
        <ele>631.4</ele>
        <time>2024-10-30T13:11:47Z</time>
      </trkpt>
      <trkpt lat="48.14428" lon="6.66562">
        <ele>631.3</ele>
        <time>2024-10-30T13:11:55Z</time>
      </trkpt>
      <trkpt lat="48.14426" lon="6.66577">
        <ele>631.2</ele>
        <time>2024-10-30T13:12:06Z</time>
      </trkpt>
      <trkpt lat="48.14422" lon="6.66591">
        <ele>631</ele>
        <time>2024-10-30T13:12:16Z</time>
      </trkpt>
      <trkpt lat="48.14421" lon="6.66604">
        <ele>630.7</ele>
        <time>2024-10-30T13:12:25Z</time>
      </trkpt>
      <trkpt lat="48.1442" lon="6.66618">
        <ele>630.3</ele>
        <time>2024-10-30T13:12:36Z</time>
      </trkpt>
      <trkpt lat="48.14418" lon="6.6662">
        <ele>630.2</ele>
        <time>2024-10-30T13:12:46Z</time>
      </trkpt>
      <trkpt lat="48.14418" lon="6.66621">
        <ele>630.2</ele>
        <time>2024-10-30T13:12:47Z</time>
      </trkpt>
      <trkpt lat="48.14419" lon="6.66622">
        <ele>630.1</ele>
        <time>2024-10-30T13:12:48Z</time>
      </trkpt>
      <trkpt lat="48.14419" lon="6.66623">
        <ele>630.1</ele>
        <time>2024-10-30T13:12:49Z</time>
      </trkpt>
      <trkpt lat="48.14419" lon="6.66625">
        <ele>630.1</ele>
        <time>2024-10-30T13:12:50Z</time>
      </trkpt>
      <trkpt lat="48.14422" lon="6.66638">
        <ele>629.7</ele>
        <time>2024-10-30T13:12:58Z</time>
      </trkpt>
      <trkpt lat="48.14425" lon="6.66651">
        <ele>629.5</ele>
        <time>2024-10-30T13:13:06Z</time>
      </trkpt>
      <trkpt lat="48.14427" lon="6.66666">
        <ele>629.4</ele>
        <time>2024-10-30T13:13:15Z</time>
      </trkpt>
      <trkpt lat="48.14432" lon="6.66679">
        <ele>629.3</ele>
        <time>2024-10-30T13:13:24Z</time>
      </trkpt>
      <trkpt lat="48.14434" lon="6.6669">
        <ele>629.3</ele>
        <time>2024-10-30T13:13:38Z</time>
      </trkpt>
      <trkpt lat="48.14434" lon="6.66689">
        <ele>629.3</ele>
        <time>2024-10-30T13:13:39Z</time>
      </trkpt>
      <trkpt lat="48.14434" lon="6.66688">
        <ele>629.3</ele>
        <time>2024-10-30T13:13:40Z</time>
      </trkpt>
      <trkpt lat="48.14434" lon="6.66687">
        <ele>629.3</ele>
        <time>2024-10-30T13:13:41Z</time>
      </trkpt>
      <trkpt lat="48.14434" lon="6.66686">
        <ele>629.3</ele>
        <time>2024-10-30T13:13:42Z</time>
      </trkpt>
      <trkpt lat="48.14434" lon="6.66684">
        <ele>629.3</ele>
        <time>2024-10-30T13:13:43Z</time>
      </trkpt>
      <trkpt lat="48.1443" lon="6.66671">
        <ele>629.4</ele>
        <time>2024-10-30T13:13:51Z</time>
      </trkpt>
      <trkpt lat="48.14429" lon="6.66663">
        <ele>629.5</ele>
        <time>2024-10-30T13:13:58Z</time>
      </trkpt>
      <trkpt lat="48.14429" lon="6.66663">
        <ele>629.5</ele>
        <time>2024-10-30T13:13:59Z</time>
      </trkpt>
      <trkpt lat="48.14429" lon="6.66663">
        <ele>629.5</ele>
        <time>2024-10-30T13:14:00Z</time>
      </trkpt>
      <trkpt lat="48.14429" lon="6.66663">
        <ele>629.5</ele>
        <time>2024-10-30T13:14:01Z</time>
      </trkpt>
      <trkpt lat="48.14429" lon="6.66663">
        <ele>629.5</ele>
        <time>2024-10-30T13:14:02Z</time>
      </trkpt>
      <trkpt lat="48.14433" lon="6.66677">
        <ele>629.6</ele>
        <time>2024-10-30T13:14:10Z</time>
      </trkpt>
      <trkpt lat="48.14437" lon="6.66689">
        <ele>629.7</ele>
        <time>2024-10-30T13:14:18Z</time>
      </trkpt>
      <trkpt lat="48.14441" lon="6.66703">
        <ele>629.7</ele>
        <time>2024-10-30T13:14:26Z</time>
      </trkpt>
      <trkpt lat="48.14441" lon="6.66716">
        <ele>629.5</ele>
        <time>2024-10-30T13:14:32Z</time>
      </trkpt>
      <trkpt lat="48.14442" lon="6.66721">
        <ele>629.4</ele>
        <time>2024-10-30T13:14:39Z</time>
      </trkpt>
      <trkpt lat="48.14442" lon="6.66721">
        <ele>629.4</ele>
        <time>2024-10-30T13:14:40Z</time>
      </trkpt>
      <trkpt lat="48.14442" lon="6.66718">
        <ele>629.5</ele>
        <time>2024-10-30T13:14:44Z</time>
      </trkpt>
      <trkpt lat="48.14441" lon="6.66717">
        <ele>629.5</ele>
        <time>2024-10-30T13:14:45Z</time>
      </trkpt>
      <trkpt lat="48.14438" lon="6.66703">
        <ele>629.7</ele>
        <time>2024-10-30T13:14:52Z</time>
      </trkpt>
      <trkpt lat="48.14433" lon="6.66691">
        <ele>629.7</ele>
        <time>2024-10-30T13:15:00Z</time>
      </trkpt>
      <trkpt lat="48.14432" lon="6.66677">
        <ele>629.6</ele>
        <time>2024-10-30T13:15:07Z</time>
      </trkpt>
      <trkpt lat="48.14431" lon="6.66663">
        <ele>629.4</ele>
        <time>2024-10-30T13:15:14Z</time>
      </trkpt>
      <trkpt lat="48.1443" lon="6.66648">
        <ele>629.3</ele>
        <time>2024-10-30T13:15:23Z</time>
      </trkpt>
      <trkpt lat="48.14429" lon="6.66634">
        <ele>629.3</ele>
        <time>2024-10-30T13:15:31Z</time>
      </trkpt>
      <trkpt lat="48.14427" lon="6.6662">
        <ele>629.4</ele>
        <time>2024-10-30T13:15:39Z</time>
      </trkpt>
      <trkpt lat="48.14427" lon="6.66606">
        <ele>629.5</ele>
        <time>2024-10-30T13:15:47Z</time>
      </trkpt>
      <trkpt lat="48.14428" lon="6.66593">
        <ele>629.8</ele>
        <time>2024-10-30T13:15:55Z</time>
      </trkpt>
      <trkpt lat="48.14431" lon="6.6658">
        <ele>630.2</ele>
        <time>2024-10-30T13:16:03Z</time>
      </trkpt>
      <trkpt lat="48.14434" lon="6.66566">
        <ele>630.7</ele>
        <time>2024-10-30T13:16:10Z</time>
      </trkpt>
      <trkpt lat="48.14438" lon="6.66553">
        <ele>631</ele>
        <time>2024-10-30T13:16:18Z</time>
      </trkpt>
      <trkpt lat="48.14438" lon="6.66538">
        <ele>631.2</ele>
        <time>2024-10-30T13:16:26Z</time>
      </trkpt>
      <trkpt lat="48.1444" lon="6.66525">
        <ele>631.3</ele>
        <time>2024-10-30T13:16:34Z</time>
      </trkpt>
      <trkpt lat="48.14442" lon="6.66511">
        <ele>631.4</ele>
        <time>2024-10-30T13:16:41Z</time>
      </trkpt>
      <trkpt lat="48.14446" lon="6.66498">
        <ele>631.6</ele>
        <time>2024-10-30T13:16:49Z</time>
      </trkpt>
      <trkpt lat="48.14451" lon="6.66485">
        <ele>632</ele>
        <time>2024-10-30T13:16:57Z</time>
      </trkpt>
      <trkpt lat="48.14456" lon="6.66471">
        <ele>632.6</ele>
        <time>2024-10-30T13:17:05Z</time>
      </trkpt>
      <trkpt lat="48.14462" lon="6.6646">
        <ele>633.3</ele>
        <time>2024-10-30T13:17:13Z</time>
      </trkpt>
      <trkpt lat="48.14469" lon="6.6645">
        <ele>634.1</ele>
        <time>2024-10-30T13:17:22Z</time>
      </trkpt>
      <trkpt lat="48.14478" lon="6.66444">
        <ele>635.1</ele>
        <time>2024-10-30T13:17:31Z</time>
      </trkpt>
      <trkpt lat="48.14487" lon="6.6644">
        <ele>635.9</ele>
        <time>2024-10-30T13:17:39Z</time>
      </trkpt>
      <trkpt lat="48.14495" lon="6.66434">
        <ele>636.5</ele>
        <time>2024-10-30T13:17:48Z</time>
      </trkpt>
      <trkpt lat="48.14504" lon="6.66429">
        <ele>636.8</ele>
        <time>2024-10-30T13:17:56Z</time>
      </trkpt>
      <trkpt lat="48.14513" lon="6.66423">
        <ele>636.5</ele>
        <time>2024-10-30T13:18:04Z</time>
      </trkpt>
      <trkpt lat="48.14511" lon="6.66438">
        <ele>637.6</ele>
        <time>2024-10-30T13:18:22Z</time>
      </trkpt>
      <trkpt lat="48.14505" lon="6.6645">
        <ele>639.4</ele>
        <time>2024-10-30T13:18:31Z</time>
      </trkpt>
      <trkpt lat="48.14502" lon="6.66463">
        <ele>641.1</ele>
        <time>2024-10-30T13:18:39Z</time>
      </trkpt>
      <trkpt lat="48.14504" lon="6.66478">
        <ele>641.9</ele>
        <time>2024-10-30T13:18:47Z</time>
      </trkpt>
      <trkpt lat="48.14508" lon="6.6649">
        <ele>641.5</ele>
        <time>2024-10-30T13:18:56Z</time>
      </trkpt>
      <trkpt lat="48.14513" lon="6.66502">
        <ele>641</ele>
        <time>2024-10-30T13:19:05Z</time>
      </trkpt>
      <trkpt lat="48.14519" lon="6.66514">
        <ele>640.4</ele>
        <time>2024-10-30T13:19:14Z</time>
      </trkpt>
      <trkpt lat="48.14524" lon="6.66527">
        <ele>641.1</ele>
        <time>2024-10-30T13:19:23Z</time>
      </trkpt>
      <trkpt lat="48.14529" lon="6.66539">
        <ele>641.3</ele>
        <time>2024-10-30T13:19:32Z</time>
      </trkpt>
      <trkpt lat="48.14532" lon="6.66553">
        <ele>641.9</ele>
        <time>2024-10-30T13:19:41Z</time>
      </trkpt>
      <trkpt lat="48.14529" lon="6.66566">
        <ele>643.7</ele>
        <time>2024-10-30T13:19:52Z</time>
      </trkpt>
      <trkpt lat="48.14521" lon="6.66575">
        <ele>645.1</ele>
        <time>2024-10-30T13:20:02Z</time>
      </trkpt>
      <trkpt lat="48.14513" lon="6.66583">
        <ele>646.4</ele>
        <time>2024-10-30T13:20:10Z</time>
      </trkpt>
      <trkpt lat="48.14505" lon="6.66591">
        <ele>647.2</ele>
        <time>2024-10-30T13:20:18Z</time>
      </trkpt>
      <trkpt lat="48.14498" lon="6.66601">
        <ele>648.9</ele>
        <time>2024-10-30T13:20:26Z</time>
      </trkpt>
      <trkpt lat="48.14493" lon="6.66605">
        <ele>649.5</ele>
        <time>2024-10-30T13:20:36Z</time>
      </trkpt>
      <trkpt lat="48.14493" lon="6.66605">
        <ele>649.5</ele>
        <time>2024-10-30T13:20:37Z</time>
      </trkpt>
      <trkpt lat="48.14493" lon="6.66605">
        <ele>649.5</ele>
        <time>2024-10-30T13:20:38Z</time>
      </trkpt>
      <trkpt lat="48.14493" lon="6.66605">
        <ele>649.5</ele>
        <time>2024-10-30T13:20:39Z</time>
      </trkpt>
      <trkpt lat="48.14493" lon="6.66605">
        <ele>649.5</ele>
        <time>2024-10-30T13:20:40Z</time>
      </trkpt>
      <trkpt lat="48.14493" lon="6.66606">
        <ele>649.5</ele>
        <time>2024-10-30T13:20:46Z</time>
      </trkpt>
      <trkpt lat="48.14493" lon="6.66606">
        <ele>649.5</ele>
        <time>2024-10-30T13:20:47Z</time>
      </trkpt>
      <trkpt lat="48.14494" lon="6.66606">
        <ele>649.5</ele>
        <time>2024-10-30T13:20:55Z</time>
      </trkpt>
      <trkpt lat="48.14494" lon="6.66605">
        <ele>649.5</ele>
        <time>2024-10-30T13:20:56Z</time>
      </trkpt>
      <trkpt lat="48.14496" lon="6.66605">
        <ele>649.5</ele>
        <time>2024-10-30T13:20:57Z</time>
      </trkpt>
      <trkpt lat="48.14502" lon="6.66594">
        <ele>647.9</ele>
        <time>2024-10-30T13:21:07Z</time>
      </trkpt>
      <trkpt lat="48.14511" lon="6.66587">
        <ele>646.7</ele>
        <time>2024-10-30T13:21:15Z</time>
      </trkpt>
      <trkpt lat="48.14519" lon="6.6658">
        <ele>645.8</ele>
        <time>2024-10-30T13:21:23Z</time>
      </trkpt>
      <trkpt lat="48.14526" lon="6.66571">
        <ele>644.5</ele>
        <time>2024-10-30T13:21:34Z</time>
      </trkpt>
      <trkpt lat="48.14534" lon="6.66579">
        <ele>644.2</ele>
        <time>2024-10-30T13:21:50Z</time>
      </trkpt>
      <trkpt lat="48.14532" lon="6.66594">
        <ele>645.3</ele>
        <time>2024-10-30T13:21:59Z</time>
      </trkpt>
      <trkpt lat="48.1453" lon="6.66607">
        <ele>646.1</ele>
        <time>2024-10-30T13:22:09Z</time>
      </trkpt>
      <trkpt lat="48.14528" lon="6.66622">
        <ele>646.6</ele>
        <time>2024-10-30T13:22:18Z</time>
      </trkpt>
      <trkpt lat="48.14525" lon="6.66636">
        <ele>647.2</ele>
        <time>2024-10-30T13:22:26Z</time>
      </trkpt>
      <trkpt lat="48.14523" lon="6.66649">
        <ele>647.9</ele>
        <time>2024-10-30T13:22:35Z</time>
      </trkpt>
      <trkpt lat="48.14523" lon="6.66663">
        <ele>648.4</ele>
        <time>2024-10-30T13:22:44Z</time>
      </trkpt>
      <trkpt lat="48.14526" lon="6.66676">
        <ele>648.6</ele>
        <time>2024-10-30T13:22:52Z</time>
      </trkpt>
      <trkpt lat="48.14529" lon="6.66691">
        <ele>648.7</ele>
        <time>2024-10-30T13:23:01Z</time>
      </trkpt>
      <trkpt lat="48.14533" lon="6.66705">
        <ele>648.3</ele>
        <time>2024-10-30T13:23:08Z</time>
      </trkpt>
      <trkpt lat="48.14536" lon="6.6672">
        <ele>647.1</ele>
        <time>2024-10-30T13:23:17Z</time>
      </trkpt>
      <trkpt lat="48.14537" lon="6.66735">
        <ele>645.6</ele>
        <time>2024-10-30T13:23:25Z</time>
      </trkpt>
      <trkpt lat="48.1453" lon="6.66744">
        <ele>646.2</ele>
        <time>2024-10-30T13:23:32Z</time>
      </trkpt>
      <trkpt lat="48.14524" lon="6.66756">
        <ele>646.6</ele>
        <time>2024-10-30T13:23:41Z</time>
      </trkpt>
      <trkpt lat="48.14519" lon="6.66769">
        <ele>645.6</ele>
        <time>2024-10-30T13:23:50Z</time>
      </trkpt>
      <trkpt lat="48.14516" lon="6.66782">
        <ele>644.6</ele>
        <time>2024-10-30T13:24:10Z</time>
      </trkpt>
      <trkpt lat="48.14525" lon="6.66788">
        <ele>642.6</ele>
        <time>2024-10-30T13:24:20Z</time>
      </trkpt>
      <trkpt lat="48.14528" lon="6.66793">
        <ele>641</ele>
        <time>2024-10-30T13:24:28Z</time>
      </trkpt>
      <trkpt lat="48.14528" lon="6.66793">
        <ele>641.1</ele>
        <time>2024-10-30T13:24:29Z</time>
      </trkpt>
      <trkpt lat="48.14529" lon="6.66794">
        <ele>641.1</ele>
        <time>2024-10-30T13:24:45Z</time>
      </trkpt>
      <trkpt lat="48.14529" lon="6.66796">
        <ele>641.1</ele>
        <time>2024-10-30T13:24:46Z</time>
      </trkpt>
      <trkpt lat="48.1453" lon="6.66798">
        <ele>640.5</ele>
        <time>2024-10-30T13:24:47Z</time>
      </trkpt>
      <trkpt lat="48.14534" lon="6.66811">
        <ele>637.7</ele>
        <time>2024-10-30T13:24:56Z</time>
      </trkpt>
      <trkpt lat="48.14537" lon="6.66825">
        <ele>635.5</ele>
        <time>2024-10-30T13:25:06Z</time>
      </trkpt>
      <trkpt lat="48.14539" lon="6.66839">
        <ele>633.2</ele>
        <time>2024-10-30T13:25:15Z</time>
      </trkpt>
      <trkpt lat="48.14542" lon="6.66852">
        <ele>630.7</ele>
        <time>2024-10-30T13:25:26Z</time>
      </trkpt>
      <trkpt lat="48.14541" lon="6.66867">
        <ele>629.6</ele>
        <time>2024-10-30T13:25:36Z</time>
      </trkpt>
      <trkpt lat="48.14541" lon="6.66881">
        <ele>627.3</ele>
        <time>2024-10-30T13:25:44Z</time>
      </trkpt>
      <trkpt lat="48.14542" lon="6.66895">
        <ele>624.2</ele>
        <time>2024-10-30T13:25:53Z</time>
      </trkpt>
      <trkpt lat="48.14541" lon="6.66909">
        <ele>622.8</ele>
        <time>2024-10-30T13:26:03Z</time>
      </trkpt>
      <trkpt lat="48.14539" lon="6.66916">
        <ele>622.3</ele>
        <time>2024-10-30T13:26:24Z</time>
      </trkpt>
      <trkpt lat="48.14539" lon="6.66916">
        <ele>622.3</ele>
        <time>2024-10-30T13:26:25Z</time>
      </trkpt>
      <trkpt lat="48.14539" lon="6.66917">
        <ele>622.4</ele>
        <time>2024-10-30T13:26:26Z</time>
      </trkpt>
      <trkpt lat="48.14539" lon="6.66917">
        <ele>623</ele>
        <time>2024-10-30T13:26:27Z</time>
      </trkpt>
      <trkpt lat="48.14538" lon="6.66918">
        <ele>622.5</ele>
        <time>2024-10-30T13:26:28Z</time>
      </trkpt>
      <trkpt lat="48.1453" lon="6.66913">
        <ele>624.4</ele>
        <time>2024-10-30T13:26:57Z</time>
      </trkpt>
      <trkpt lat="48.1453" lon="6.6691">
        <ele>624.5</ele>
        <time>2024-10-30T13:27:04Z</time>
      </trkpt>
      <trkpt lat="48.1453" lon="6.66909">
        <ele>625</ele>
        <time>2024-10-30T13:27:05Z</time>
      </trkpt>
      <trkpt lat="48.1453" lon="6.66909">
        <ele>624.6</ele>
        <time>2024-10-30T13:27:06Z</time>
      </trkpt>
      <trkpt lat="48.1453" lon="6.66909">
        <ele>624.6</ele>
        <time>2024-10-30T13:27:07Z</time>
      </trkpt>
      <trkpt lat="48.1453" lon="6.66909">
        <ele>625.1</ele>
        <time>2024-10-30T13:27:08Z</time>
      </trkpt>
      <trkpt lat="48.1453" lon="6.66908">
        <ele>625.6</ele>
        <time>2024-10-30T13:27:09Z</time>
      </trkpt>
      <trkpt lat="48.1453" lon="6.66908">
        <ele>625.6</ele>
        <time>2024-10-30T13:27:10Z</time>
      </trkpt>
      <trkpt lat="48.1453" lon="6.66908">
        <ele>625.6</ele>
        <time>2024-10-30T13:27:11Z</time>
      </trkpt>
      <trkpt lat="48.1453" lon="6.66908">
        <ele>625.6</ele>
        <time>2024-10-30T13:27:12Z</time>
      </trkpt>
      <trkpt lat="48.14522" lon="6.66909">
        <ele>625.6</ele>
        <time>2024-10-30T13:27:25Z</time>
      </trkpt>
      <trkpt lat="48.14522" lon="6.6691">
        <ele>625.6</ele>
        <time>2024-10-30T13:27:26Z</time>
      </trkpt>
      <trkpt lat="48.14522" lon="6.66911">
        <ele>625.6</ele>
        <time>2024-10-30T13:27:27Z</time>
      </trkpt>
      <trkpt lat="48.14522" lon="6.66912">
        <ele>625.6</ele>
        <time>2024-10-30T13:27:28Z</time>
      </trkpt>
      <trkpt lat="48.14522" lon="6.66913">
        <ele>625.6</ele>
        <time>2024-10-30T13:27:29Z</time>
      </trkpt>
      <trkpt lat="48.14522" lon="6.66913">
        <ele>625.7</ele>
        <time>2024-10-30T13:27:30Z</time>
      </trkpt>
      <trkpt lat="48.14521" lon="6.66913">
        <ele>625.8</ele>
        <time>2024-10-30T13:27:33Z</time>
      </trkpt>
      <trkpt lat="48.14521" lon="6.66913">
        <ele>625.8</ele>
        <time>2024-10-30T13:27:34Z</time>
      </trkpt>
      <trkpt lat="48.14521" lon="6.66913">
        <ele>625.9</ele>
        <time>2024-10-30T13:27:35Z</time>
      </trkpt>
      <trkpt lat="48.14521" lon="6.66914">
        <ele>625.2</ele>
        <time>2024-10-30T13:28:39Z</time>
      </trkpt>
      <trkpt lat="48.14521" lon="6.66914">
        <ele>625.2</ele>
        <time>2024-10-30T13:28:40Z</time>
      </trkpt>
      <trkpt lat="48.1452" lon="6.66915">
        <ele>625.2</ele>
        <time>2024-10-30T13:28:46Z</time>
      </trkpt>
      <trkpt lat="48.1452" lon="6.66915">
        <ele>625.2</ele>
        <time>2024-10-30T13:28:47Z</time>
      </trkpt>
      <trkpt lat="48.14521" lon="6.66916">
        <ele>625.3</ele>
        <time>2024-10-30T13:28:53Z</time>
      </trkpt>
      <trkpt lat="48.14521" lon="6.66916">
        <ele>625.3</ele>
        <time>2024-10-30T13:28:54Z</time>
      </trkpt>
      <trkpt lat="48.14521" lon="6.66916">
        <ele>625.3</ele>
        <time>2024-10-30T13:28:55Z</time>
      </trkpt>
      <trkpt lat="48.14519" lon="6.6693">
        <ele>623.3</ele>
        <time>2024-10-30T13:29:15Z</time>
      </trkpt>
      <trkpt lat="48.14522" lon="6.66943">
        <ele>621.4</ele>
        <time>2024-10-30T13:29:31Z</time>
      </trkpt>
      <trkpt lat="48.14524" lon="6.66956">
        <ele>619.1</ele>
        <time>2024-10-30T13:29:48Z</time>
      </trkpt>
      <trkpt lat="48.14523" lon="6.66971">
        <ele>617.3</ele>
        <time>2024-10-30T13:30:00Z</time>
      </trkpt>
      <trkpt lat="48.14518" lon="6.66982">
        <ele>615.3</ele>
        <time>2024-10-30T13:30:23Z</time>
      </trkpt>
      <trkpt lat="48.14512" lon="6.66993">
        <ele>613.7</ele>
        <time>2024-10-30T13:30:34Z</time>
      </trkpt>
      <trkpt lat="48.14507" lon="6.67005">
        <ele>610.3</ele>
        <time>2024-10-30T13:30:48Z</time>
      </trkpt>
      <trkpt lat="48.14503" lon="6.67019">
        <ele>608.8</ele>
        <time>2024-10-30T13:30:58Z</time>
      </trkpt>
      <trkpt lat="48.14498" lon="6.67031">
        <ele>607.4</ele>
        <time>2024-10-30T13:31:07Z</time>
      </trkpt>
      <trkpt lat="48.14495" lon="6.67044">
        <ele>606.1</ele>
        <time>2024-10-30T13:31:15Z</time>
      </trkpt>
      <trkpt lat="48.14491" lon="6.67056">
        <ele>605</ele>
        <time>2024-10-30T13:31:26Z</time>
      </trkpt>
      <trkpt lat="48.14482" lon="6.67063">
        <ele>603.8</ele>
        <time>2024-10-30T13:31:39Z</time>
      </trkpt>
      <trkpt lat="48.14477" lon="6.67075">
        <ele>602.8</ele>
        <time>2024-10-30T13:31:56Z</time>
      </trkpt>
      <trkpt lat="48.1447" lon="6.67085">
        <ele>602</ele>
        <time>2024-10-30T13:32:08Z</time>
      </trkpt>
      <trkpt lat="48.14467" lon="6.67098">
        <ele>601.5</ele>
        <time>2024-10-30T13:32:13Z</time>
      </trkpt>
      <trkpt lat="48.14466" lon="6.67113">
        <ele>601.3</ele>
        <time>2024-10-30T13:32:20Z</time>
      </trkpt>
      <trkpt lat="48.14467" lon="6.67114">
        <ele>601.3</ele>
        <time>2024-10-30T13:32:28Z</time>
      </trkpt>
      <trkpt lat="48.14467" lon="6.67114">
        <ele>601.3</ele>
        <time>2024-10-30T13:32:29Z</time>
      </trkpt>
      <trkpt lat="48.14467" lon="6.67114">
        <ele>601.3</ele>
        <time>2024-10-30T13:32:30Z</time>
      </trkpt>
      <trkpt lat="48.14467" lon="6.67114">
        <ele>601.3</ele>
        <time>2024-10-30T13:32:50Z</time>
      </trkpt>
      <trkpt lat="48.14467" lon="6.67114">
        <ele>601.3</ele>
        <time>2024-10-30T13:32:51Z</time>
      </trkpt>
      <trkpt lat="48.14467" lon="6.67114">
        <ele>601.3</ele>
        <time>2024-10-30T13:32:52Z</time>
      </trkpt>
      <trkpt lat="48.14467" lon="6.67114">
        <ele>601.3</ele>
        <time>2024-10-30T13:32:53Z</time>
      </trkpt>
      <trkpt lat="48.14467" lon="6.67114">
        <ele>601.3</ele>
        <time>2024-10-30T13:32:54Z</time>
      </trkpt>
      <trkpt lat="48.14468" lon="6.6712">
        <ele>601.3</ele>
        <time>2024-10-30T13:33:15Z</time>
      </trkpt>
      <trkpt lat="48.14469" lon="6.67123">
        <ele>601.3</ele>
        <time>2024-10-30T13:33:16Z</time>
      </trkpt>
      <trkpt lat="48.14469" lon="6.67126">
        <ele>601.3</ele>
        <time>2024-10-30T13:33:17Z</time>
      </trkpt>
      <trkpt lat="48.14471" lon="6.67141">
        <ele>601.5</ele>
        <time>2024-10-30T13:33:24Z</time>
      </trkpt>
      <trkpt lat="48.14471" lon="6.67155">
        <ele>601.8</ele>
        <time>2024-10-30T13:33:32Z</time>
      </trkpt>
      <trkpt lat="48.14471" lon="6.67169">
        <ele>602.1</ele>
        <time>2024-10-30T13:33:41Z</time>
      </trkpt>
      <trkpt lat="48.14472" lon="6.67183">
        <ele>602.4</ele>
        <time>2024-10-30T13:33:49Z</time>
      </trkpt>
      <trkpt lat="48.14473" lon="6.67198">
        <ele>602.9</ele>
        <time>2024-10-30T13:33:56Z</time>
      </trkpt>
      <trkpt lat="48.1447" lon="6.67211">
        <ele>603.4</ele>
        <time>2024-10-30T13:34:04Z</time>
      </trkpt>
      <trkpt lat="48.14464" lon="6.67222">
        <ele>603.9</ele>
        <time>2024-10-30T13:34:15Z</time>
      </trkpt>
      <trkpt lat="48.14458" lon="6.67233">
        <ele>604.6</ele>
        <time>2024-10-30T13:34:22Z</time>
      </trkpt>
      <trkpt lat="48.14455" lon="6.67246">
        <ele>605.5</ele>
        <time>2024-10-30T13:34:29Z</time>
      </trkpt>
      <trkpt lat="48.14455" lon="6.6726">
        <ele>606.4</ele>
        <time>2024-10-30T13:34:38Z</time>
      </trkpt>
      <trkpt lat="48.14459" lon="6.67273">
        <ele>607.3</ele>
        <time>2024-10-30T13:34:49Z</time>
      </trkpt>
      <trkpt lat="48.14462" lon="6.67285">
        <ele>608.1</ele>
        <time>2024-10-30T13:35:01Z</time>
      </trkpt>
      <trkpt lat="48.14466" lon="6.67298">
        <ele>608.7</ele>
        <time>2024-10-30T13:35:11Z</time>
      </trkpt>
      <trkpt lat="48.14469" lon="6.67311">
        <ele>609.1</ele>
        <time>2024-10-30T13:35:20Z</time>
      </trkpt>
      <trkpt lat="48.14472" lon="6.67325">
        <ele>609.4</ele>
        <time>2024-10-30T13:35:28Z</time>
      </trkpt>
      <trkpt lat="48.14473" lon="6.67338">
        <ele>609.5</ele>
        <time>2024-10-30T13:35:36Z</time>
      </trkpt>
      <trkpt lat="48.14476" lon="6.67352">
        <ele>609.6</ele>
        <time>2024-10-30T13:35:44Z</time>
      </trkpt>
      <trkpt lat="48.14476" lon="6.67367">
        <ele>609.7</ele>
        <time>2024-10-30T13:35:52Z</time>
      </trkpt>
      <trkpt lat="48.14472" lon="6.6738">
        <ele>609.8</ele>
        <time>2024-10-30T13:36:00Z</time>
      </trkpt>
      <trkpt lat="48.14467" lon="6.67391">
        <ele>609.9</ele>
        <time>2024-10-30T13:36:09Z</time>
      </trkpt>
      <trkpt lat="48.1446" lon="6.674">
        <ele>610</ele>
        <time>2024-10-30T13:36:17Z</time>
      </trkpt>
      <trkpt lat="48.14452" lon="6.67407">
        <ele>610.1</ele>
        <time>2024-10-30T13:36:25Z</time>
      </trkpt>
      <trkpt lat="48.14443" lon="6.67414">
        <ele>610.3</ele>
        <time>2024-10-30T13:36:33Z</time>
      </trkpt>
      <trkpt lat="48.14435" lon="6.67423">
        <ele>610.5</ele>
        <time>2024-10-30T13:36:41Z</time>
      </trkpt>
      <trkpt lat="48.14427" lon="6.67433">
        <ele>610.8</ele>
        <time>2024-10-30T13:36:49Z</time>
      </trkpt>
      <trkpt lat="48.1442" lon="6.67443">
        <ele>611</ele>
        <time>2024-10-30T13:36:57Z</time>
      </trkpt>
      <trkpt lat="48.14413" lon="6.67452">
        <ele>611.2</ele>
        <time>2024-10-30T13:37:05Z</time>
      </trkpt>
      <trkpt lat="48.14404" lon="6.6746">
        <ele>611.2</ele>
        <time>2024-10-30T13:37:15Z</time>
      </trkpt>
      <trkpt lat="48.14394" lon="6.67461">
        <ele>611</ele>
        <time>2024-10-30T13:37:23Z</time>
      </trkpt>
      <trkpt lat="48.14384" lon="6.67461">
        <ele>610.3</ele>
        <time>2024-10-30T13:37:34Z</time>
      </trkpt>
      <trkpt lat="48.14375" lon="6.67463">
        <ele>609.3</ele>
        <time>2024-10-30T13:37:45Z</time>
      </trkpt>
      <trkpt lat="48.14366" lon="6.67468">
        <ele>608.2</ele>
        <time>2024-10-30T13:37:52Z</time>
      </trkpt>
      <trkpt lat="48.14357" lon="6.67475">
        <ele>607</ele>
        <time>2024-10-30T13:37:59Z</time>
      </trkpt>
      <trkpt lat="48.14348" lon="6.67483">
        <ele>605.9</ele>
        <time>2024-10-30T13:38:06Z</time>
      </trkpt>
      <trkpt lat="48.14341" lon="6.67493">
        <ele>604.9</ele>
        <time>2024-10-30T13:38:15Z</time>
      </trkpt>
      <trkpt lat="48.14332" lon="6.67501">
        <ele>603.9</ele>
        <time>2024-10-30T13:38:23Z</time>
      </trkpt>
      <trkpt lat="48.14325" lon="6.67511">
        <ele>602.9</ele>
        <time>2024-10-30T13:38:32Z</time>
      </trkpt>
      <trkpt lat="48.14318" lon="6.6752">
        <ele>602</ele>
        <time>2024-10-30T13:38:42Z</time>
      </trkpt>
      <trkpt lat="48.14311" lon="6.67528">
        <ele>601.1</ele>
        <time>2024-10-30T13:38:51Z</time>
      </trkpt>
      <trkpt lat="48.14302" lon="6.67535">
        <ele>600.2</ele>
        <time>2024-10-30T13:38:58Z</time>
      </trkpt>
      <trkpt lat="48.14294" lon="6.67541">
        <ele>599.4</ele>
        <time>2024-10-30T13:39:05Z</time>
      </trkpt>
      <trkpt lat="48.14286" lon="6.67551">
        <ele>598.5</ele>
        <time>2024-10-30T13:39:15Z</time>
      </trkpt>
      <trkpt lat="48.14279" lon="6.67559">
        <ele>597.5</ele>
        <time>2024-10-30T13:39:23Z</time>
      </trkpt>
      <trkpt lat="48.14271" lon="6.67567">
        <ele>596.5</ele>
        <time>2024-10-30T13:39:30Z</time>
      </trkpt>
      <trkpt lat="48.14267" lon="6.6758">
        <ele>595.2</ele>
        <time>2024-10-30T13:39:37Z</time>
      </trkpt>
      <trkpt lat="48.14262" lon="6.67593">
        <ele>593.7</ele>
        <time>2024-10-30T13:39:44Z</time>
      </trkpt>
      <trkpt lat="48.14258" lon="6.67606">
        <ele>592.2</ele>
        <time>2024-10-30T13:39:52Z</time>
      </trkpt>
      <trkpt lat="48.14256" lon="6.67619">
        <ele>590.7</ele>
        <time>2024-10-30T13:40:02Z</time>
      </trkpt>
      <trkpt lat="48.14255" lon="6.67633">
        <ele>589.1</ele>
        <time>2024-10-30T13:40:12Z</time>
      </trkpt>
      <trkpt lat="48.14254" lon="6.67648">
        <ele>587.8</ele>
        <time>2024-10-30T13:40:24Z</time>
      </trkpt>
      <trkpt lat="48.14252" lon="6.67661">
        <ele>586.8</ele>
        <time>2024-10-30T13:40:32Z</time>
      </trkpt>
      <trkpt lat="48.14251" lon="6.67675">
        <ele>586</ele>
        <time>2024-10-30T13:40:40Z</time>
      </trkpt>
      <trkpt lat="48.14248" lon="6.67689">
        <ele>585.4</ele>
        <time>2024-10-30T13:40:48Z</time>
      </trkpt>
      <trkpt lat="48.14243" lon="6.677">
        <ele>584.8</ele>
        <time>2024-10-30T13:40:56Z</time>
      </trkpt>
      <trkpt lat="48.14237" lon="6.67712">
        <ele>584</ele>
        <time>2024-10-30T13:41:05Z</time>
      </trkpt>
      <trkpt lat="48.14231" lon="6.67722">
        <ele>583.1</ele>
        <time>2024-10-30T13:41:14Z</time>
      </trkpt>
      <trkpt lat="48.14224" lon="6.67731">
        <ele>581.7</ele>
        <time>2024-10-30T13:41:26Z</time>
      </trkpt>
      <trkpt lat="48.14219" lon="6.67736">
        <ele>580.9</ele>
        <time>2024-10-30T13:41:38Z</time>
      </trkpt>
      <trkpt lat="48.14219" lon="6.67736">
        <ele>580.9</ele>
        <time>2024-10-30T13:41:39Z</time>
      </trkpt>
      <trkpt lat="48.14219" lon="6.67736">
        <ele>580.9</ele>
        <time>2024-10-30T13:41:40Z</time>
      </trkpt>
      <trkpt lat="48.14218" lon="6.67737">
        <ele>580.7</ele>
        <time>2024-10-30T13:41:48Z</time>
      </trkpt>
      <trkpt lat="48.14217" lon="6.67738">
        <ele>580.5</ele>
        <time>2024-10-30T13:41:49Z</time>
      </trkpt>
      <trkpt lat="48.14209" lon="6.67746">
        <ele>579.1</ele>
        <time>2024-10-30T13:41:58Z</time>
      </trkpt>
      <trkpt lat="48.14202" lon="6.67757">
        <ele>577.8</ele>
        <time>2024-10-30T13:42:08Z</time>
      </trkpt>
      <trkpt lat="48.14196" lon="6.67767">
        <ele>576.7</ele>
        <time>2024-10-30T13:42:16Z</time>
      </trkpt>
      <trkpt lat="48.14193" lon="6.67781">
        <ele>575.6</ele>
        <time>2024-10-30T13:42:25Z</time>
      </trkpt>
      <trkpt lat="48.14191" lon="6.67794">
        <ele>574.7</ele>
        <time>2024-10-30T13:42:33Z</time>
      </trkpt>
      <trkpt lat="48.14189" lon="6.67808">
        <ele>573.7</ele>
        <time>2024-10-30T13:42:41Z</time>
      </trkpt>
      <trkpt lat="48.14185" lon="6.6782">
        <ele>572.6</ele>
        <time>2024-10-30T13:42:51Z</time>
      </trkpt>
      <trkpt lat="48.1418" lon="6.67833">
        <ele>571.6</ele>
        <time>2024-10-30T13:43:01Z</time>
      </trkpt>
      <trkpt lat="48.14175" lon="6.67846">
        <ele>570.4</ele>
        <time>2024-10-30T13:43:12Z</time>
      </trkpt>
      <trkpt lat="48.14173" lon="6.67851">
        <ele>569.8</ele>
        <time>2024-10-30T13:43:18Z</time>
      </trkpt>
      <trkpt lat="48.14173" lon="6.67851">
        <ele>569.8</ele>
        <time>2024-10-30T13:43:19Z</time>
      </trkpt>
      <trkpt lat="48.14173" lon="6.67854">
        <ele>569.5</ele>
        <time>2024-10-30T13:43:23Z</time>
      </trkpt>
      <trkpt lat="48.14172" lon="6.67855">
        <ele>569.4</ele>
        <time>2024-10-30T13:43:24Z</time>
      </trkpt>
      <trkpt lat="48.14172" lon="6.67856">
        <ele>569.2</ele>
        <time>2024-10-30T13:43:25Z</time>
      </trkpt>
      <trkpt lat="48.14165" lon="6.67866">
        <ele>567.5</ele>
        <time>2024-10-30T13:43:38Z</time>
      </trkpt>
      <trkpt lat="48.14157" lon="6.67874">
        <ele>565.9</ele>
        <time>2024-10-30T13:43:46Z</time>
      </trkpt>
      <trkpt lat="48.14151" lon="6.67886">
        <ele>564.4</ele>
        <time>2024-10-30T13:43:55Z</time>
      </trkpt>
      <trkpt lat="48.14145" lon="6.67898">
        <ele>563.2</ele>
        <time>2024-10-30T13:44:04Z</time>
      </trkpt>
      <trkpt lat="48.14138" lon="6.67908">
        <ele>562.3</ele>
        <time>2024-10-30T13:44:11Z</time>
      </trkpt>
      <trkpt lat="48.14136" lon="6.6792">
        <ele>561.7</ele>
        <time>2024-10-30T13:44:24Z</time>
      </trkpt>
      <trkpt lat="48.14136" lon="6.6792">
        <ele>561.7</ele>
        <time>2024-10-30T13:44:25Z</time>
      </trkpt>
      <trkpt lat="48.14135" lon="6.67921">
        <ele>561.7</ele>
        <time>2024-10-30T13:44:26Z</time>
      </trkpt>
      <trkpt lat="48.14134" lon="6.67921">
        <ele>561.6</ele>
        <time>2024-10-30T13:44:27Z</time>
      </trkpt>
      <trkpt lat="48.14134" lon="6.67923">
        <ele>561.5</ele>
        <time>2024-10-30T13:44:33Z</time>
      </trkpt>
      <trkpt lat="48.14134" lon="6.67923">
        <ele>561.5</ele>
        <time>2024-10-30T13:44:34Z</time>
      </trkpt>
      <trkpt lat="48.14134" lon="6.67923">
        <ele>561.5</ele>
        <time>2024-10-30T13:44:35Z</time>
      </trkpt>
      <trkpt lat="48.14134" lon="6.67925">
        <ele>561.4</ele>
        <time>2024-10-30T13:44:46Z</time>
      </trkpt>
      <trkpt lat="48.14135" lon="6.67927">
        <ele>561.4</ele>
        <time>2024-10-30T13:44:47Z</time>
      </trkpt>
      <trkpt lat="48.14134" lon="6.67942">
        <ele>561</ele>
        <time>2024-10-30T13:44:55Z</time>
      </trkpt>
      <trkpt lat="48.1413" lon="6.67954">
        <ele>560.9</ele>
        <time>2024-10-30T13:45:04Z</time>
      </trkpt>
      <trkpt lat="48.14127" lon="6.67968">
        <ele>560.9</ele>
        <time>2024-10-30T13:45:13Z</time>
      </trkpt>
      <trkpt lat="48.14124" lon="6.67981">
        <ele>560.8</ele>
        <time>2024-10-30T13:45:21Z</time>
      </trkpt>
      <trkpt lat="48.14123" lon="6.67987">
        <ele>560.8</ele>
        <time>2024-10-30T13:45:29Z</time>
      </trkpt>
      <trkpt lat="48.14123" lon="6.67987">
        <ele>560.8</ele>
        <time>2024-10-30T13:45:30Z</time>
      </trkpt>
      <trkpt lat="48.14121" lon="6.67988">
        <ele>561.1</ele>
        <time>2024-10-30T13:45:33Z</time>
      </trkpt>
      <trkpt lat="48.14121" lon="6.67989">
        <ele>561.2</ele>
        <time>2024-10-30T13:45:34Z</time>
      </trkpt>
      <trkpt lat="48.14111" lon="6.6799">
        <ele>562.7</ele>
        <time>2024-10-30T13:45:42Z</time>
      </trkpt>
      <trkpt lat="48.14103" lon="6.67995">
        <ele>563.8</ele>
        <time>2024-10-30T13:45:51Z</time>
      </trkpt>
      <trkpt lat="48.14094" lon="6.67999">
        <ele>564.3</ele>
        <time>2024-10-30T13:46:00Z</time>
      </trkpt>
      <trkpt lat="48.14092" lon="6.68">
        <ele>564.3</ele>
        <time>2024-10-30T13:46:08Z</time>
      </trkpt>
      <trkpt lat="48.14092" lon="6.68">
        <ele>564.3</ele>
        <time>2024-10-30T13:46:09Z</time>
      </trkpt>
      <trkpt lat="48.14091" lon="6.68">
        <ele>564.2</ele>
        <time>2024-10-30T13:46:10Z</time>
      </trkpt>
      <trkpt lat="48.14091" lon="6.68">
        <ele>564.2</ele>
        <time>2024-10-30T13:46:11Z</time>
      </trkpt>
      <trkpt lat="48.14091" lon="6.68001">
        <ele>564.2</ele>
        <time>2024-10-30T13:46:12Z</time>
      </trkpt>
      <trkpt lat="48.1409" lon="6.68001">
        <ele>564.2</ele>
        <time>2024-10-30T13:46:18Z</time>
      </trkpt>
      <trkpt lat="48.1409" lon="6.68001">
        <ele>564.2</ele>
        <time>2024-10-30T13:46:19Z</time>
      </trkpt>
      <trkpt lat="48.14089" lon="6.68003">
        <ele>564.5</ele>
        <time>2024-10-30T13:46:53Z</time>
      </trkpt>
      <trkpt lat="48.14088" lon="6.68004">
        <ele>564.8</ele>
        <time>2024-10-30T13:46:54Z</time>
      </trkpt>
      <trkpt lat="48.14082" lon="6.68015">
        <ele>566.1</ele>
        <time>2024-10-30T13:47:04Z</time>
      </trkpt>
      <trkpt lat="48.14081" lon="6.68029">
        <ele>567</ele>
        <time>2024-10-30T13:47:14Z</time>
      </trkpt>
      <trkpt lat="48.14076" lon="6.68041">
        <ele>568.7</ele>
        <time>2024-10-30T13:47:27Z</time>
      </trkpt>
      <trkpt lat="48.14071" lon="6.68054">
        <ele>570.3</ele>
        <time>2024-10-30T13:47:39Z</time>
      </trkpt>
      <trkpt lat="48.14062" lon="6.68055">
        <ele>571.6</ele>
        <time>2024-10-30T13:47:50Z</time>
      </trkpt>
      <trkpt lat="48.14053" lon="6.68053">
        <ele>571.7</ele>
        <time>2024-10-30T13:48:00Z</time>
      </trkpt>
      <trkpt lat="48.14045" lon="6.68061">
        <ele>573.1</ele>
        <time>2024-10-30T13:48:10Z</time>
      </trkpt>
      <trkpt lat="48.14039" lon="6.68073">
        <ele>574.1</ele>
        <time>2024-10-30T13:48:19Z</time>
      </trkpt>
      <trkpt lat="48.14036" lon="6.68086">
        <ele>574.4</ele>
        <time>2024-10-30T13:48:29Z</time>
      </trkpt>
      <trkpt lat="48.14039" lon="6.68099">
        <ele>574.3</ele>
        <time>2024-10-30T13:48:39Z</time>
      </trkpt>
      <trkpt lat="48.1404" lon="6.68114">
        <ele>574.3</ele>
        <time>2024-10-30T13:48:50Z</time>
      </trkpt>
      <trkpt lat="48.14043" lon="6.68127">
        <ele>574.4</ele>
        <time>2024-10-30T13:49:03Z</time>
      </trkpt>
      <trkpt lat="48.14046" lon="6.68132">
        <ele>574.4</ele>
        <time>2024-10-30T13:49:13Z</time>
      </trkpt>
      <trkpt lat="48.14046" lon="6.68132">
        <ele>574.6</ele>
        <time>2024-10-30T13:49:14Z</time>
      </trkpt>
      <trkpt lat="48.14046" lon="6.68132">
        <ele>574.6</ele>
        <time>2024-10-30T13:49:15Z</time>
      </trkpt>
      <trkpt lat="48.14046" lon="6.68133">
        <ele>574.3</ele>
        <time>2024-10-30T13:49:16Z</time>
      </trkpt>
      <trkpt lat="48.14047" lon="6.68134">
        <ele>574.3</ele>
        <time>2024-10-30T13:49:17Z</time>
      </trkpt>
      <trkpt lat="48.14056" lon="6.68129">
        <ele>573.3</ele>
        <time>2024-10-30T13:49:31Z</time>
      </trkpt>
      <trkpt lat="48.1406" lon="6.68127">
        <ele>573.1</ele>
        <time>2024-10-30T13:49:40Z</time>
      </trkpt>
      <trkpt lat="48.1406" lon="6.68127">
        <ele>573.1</ele>
        <time>2024-10-30T13:49:41Z</time>
      </trkpt>
      <trkpt lat="48.1406" lon="6.68127">
        <ele>573.1</ele>
        <time>2024-10-30T13:49:42Z</time>
      </trkpt>
      <trkpt lat="48.1406" lon="6.68128">
        <ele>573</ele>
        <time>2024-10-30T13:50:06Z</time>
      </trkpt>
      <trkpt lat="48.1406" lon="6.68128">
        <ele>573</ele>
        <time>2024-10-30T13:50:07Z</time>
      </trkpt>
      <trkpt lat="48.14057" lon="6.68142">
        <ele>573.2</ele>
        <time>2024-10-30T13:50:28Z</time>
      </trkpt>
      <trkpt lat="48.14059" lon="6.68145">
        <ele>572.6</ele>
        <time>2024-10-30T13:50:54Z</time>
      </trkpt>
      <trkpt lat="48.14059" lon="6.68145">
        <ele>572.6</ele>
        <time>2024-10-30T13:50:55Z</time>
      </trkpt>
      <trkpt lat="48.14059" lon="6.68145">
        <ele>572.6</ele>
        <time>2024-10-30T13:51:21Z</time>
      </trkpt>
      <trkpt lat="48.14059" lon="6.68145">
        <ele>572.6</ele>
        <time>2024-10-30T13:51:22Z</time>
      </trkpt>
      <trkpt lat="48.14059" lon="6.68145">
        <ele>572.6</ele>
        <time>2024-10-30T13:51:23Z</time>
      </trkpt>
      <trkpt lat="48.14059" lon="6.68145">
        <ele>572.6</ele>
        <time>2024-10-30T13:51:24Z</time>
      </trkpt>
      <trkpt lat="48.14059" lon="6.68145">
        <ele>572.6</ele>
        <time>2024-10-30T13:51:25Z</time>
      </trkpt>
      <trkpt lat="48.14058" lon="6.68146">
        <ele>573.2</ele>
        <time>2024-10-30T13:52:03Z</time>
      </trkpt>
      <trkpt lat="48.14058" lon="6.68146">
        <ele>573.2</ele>
        <time>2024-10-30T13:52:04Z</time>
      </trkpt>
      <trkpt lat="48.14058" lon="6.68146">
        <ele>573.2</ele>
        <time>2024-10-30T13:52:05Z</time>
      </trkpt>
      <trkpt lat="48.14058" lon="6.68146">
        <ele>573.2</ele>
        <time>2024-10-30T13:52:06Z</time>
      </trkpt>
      <trkpt lat="48.14058" lon="6.68146">
        <ele>573.2</ele>
        <time>2024-10-30T13:52:07Z</time>
      </trkpt>
      <trkpt lat="48.14058" lon="6.68146">
        <ele>573.2</ele>
        <time>2024-10-30T13:52:48Z</time>
      </trkpt>
      <trkpt lat="48.14058" lon="6.68146">
        <ele>573.2</ele>
        <time>2024-10-30T13:52:49Z</time>
      </trkpt>
      <trkpt lat="48.14058" lon="6.68146">
        <ele>573.2</ele>
        <time>2024-10-30T13:52:50Z</time>
      </trkpt>
      <trkpt lat="48.14058" lon="6.68146">
        <ele>573.2</ele>
        <time>2024-10-30T13:52:51Z</time>
      </trkpt>
      <trkpt lat="48.14058" lon="6.68146">
        <ele>573.2</ele>
        <time>2024-10-30T13:52:52Z</time>
      </trkpt>
      <trkpt lat="48.14057" lon="6.68147">
        <ele>573.2</ele>
        <time>2024-10-30T13:56:16Z</time>
      </trkpt>
      <trkpt lat="48.14057" lon="6.68147">
        <ele>573.2</ele>
        <time>2024-10-30T13:56:17Z</time>
      </trkpt>
      <trkpt lat="48.14057" lon="6.68147">
        <ele>573.2</ele>
        <time>2024-10-30T13:56:18Z</time>
      </trkpt>
      <trkpt lat="48.14057" lon="6.68147">
        <ele>573.2</ele>
        <time>2024-10-30T13:56:19Z</time>
      </trkpt>
      <trkpt lat="48.14057" lon="6.68147">
        <ele>573.2</ele>
        <time>2024-10-30T13:56:20Z</time>
      </trkpt>
      <trkpt lat="48.14057" lon="6.68145">
        <ele>573.2</ele>
        <time>2024-10-30T13:57:04Z</time>
      </trkpt>
      <trkpt lat="48.14057" lon="6.68145">
        <ele>573.2</ele>
        <time>2024-10-30T13:57:05Z</time>
      </trkpt>
      <trkpt lat="48.14057" lon="6.68145">
        <ele>573.2</ele>
        <time>2024-10-30T13:57:06Z</time>
      </trkpt>
      <trkpt lat="48.14057" lon="6.68145">
        <ele>573.2</ele>
        <time>2024-10-30T13:57:07Z</time>
      </trkpt>
      <trkpt lat="48.14057" lon="6.68146">
        <ele>573.2</ele>
        <time>2024-10-30T13:59:00Z</time>
      </trkpt>
      <trkpt lat="48.14057" lon="6.68146">
        <ele>573.2</ele>
        <time>2024-10-30T13:59:01Z</time>
      </trkpt>
      <trkpt lat="48.14056" lon="6.68148">
        <ele>573.2</ele>
        <time>2024-10-30T13:59:02Z</time>
      </trkpt>
      <trkpt lat="48.14057" lon="6.68156">
        <ele>572.9</ele>
        <time>2024-10-30T13:59:21Z</time>
      </trkpt>
      <trkpt lat="48.14057" lon="6.68157">
        <ele>572.9</ele>
        <time>2024-10-30T13:59:22Z</time>
      </trkpt>
      <trkpt lat="48.14056" lon="6.68158">
        <ele>572.7</ele>
        <time>2024-10-30T13:59:23Z</time>
      </trkpt>
      <trkpt lat="48.14056" lon="6.68159">
        <ele>572.7</ele>
        <time>2024-10-30T13:59:24Z</time>
      </trkpt>
      <trkpt lat="48.14056" lon="6.68159">
        <ele>572.7</ele>
        <time>2024-10-30T13:59:25Z</time>
      </trkpt>
      <trkpt lat="48.1406" lon="6.68172">
        <ele>571.3</ele>
        <time>2024-10-30T13:59:41Z</time>
      </trkpt>
      <trkpt lat="48.14064" lon="6.68184">
        <ele>569.1</ele>
        <time>2024-10-30T14:00:06Z</time>
      </trkpt>
      <trkpt lat="48.14059" lon="6.68188">
        <ele>570</ele>
        <time>2024-10-30T14:00:21Z</time>
      </trkpt>
      <trkpt lat="48.14059" lon="6.68188">
        <ele>570</ele>
        <time>2024-10-30T14:00:22Z</time>
      </trkpt>
      <trkpt lat="48.14059" lon="6.68188">
        <ele>570</ele>
        <time>2024-10-30T14:00:23Z</time>
      </trkpt>
      <trkpt lat="48.14059" lon="6.68188">
        <ele>570</ele>
        <time>2024-10-30T14:00:40Z</time>
      </trkpt>
      <trkpt lat="48.14059" lon="6.68188">
        <ele>570</ele>
        <time>2024-10-30T14:00:41Z</time>
      </trkpt>
      <trkpt lat="48.14058" lon="6.68188">
        <ele>570</ele>
        <time>2024-10-30T14:00:42Z</time>
      </trkpt>
      <trkpt lat="48.14058" lon="6.68195">
        <ele>569.6</ele>
        <time>2024-10-30T14:01:03Z</time>
      </trkpt>
      <trkpt lat="48.14058" lon="6.68195">
        <ele>569.6</ele>
        <time>2024-10-30T14:01:04Z</time>
      </trkpt>
      <trkpt lat="48.14058" lon="6.68196">
        <ele>569.2</ele>
        <time>2024-10-30T14:01:13Z</time>
      </trkpt>
      <trkpt lat="48.14058" lon="6.68197">
        <ele>569.2</ele>
        <time>2024-10-30T14:01:14Z</time>
      </trkpt>
      <trkpt lat="48.14057" lon="6.68203">
        <ele>569.4</ele>
        <time>2024-10-30T14:01:25Z</time>
      </trkpt>
      <trkpt lat="48.14057" lon="6.68203">
        <ele>569.4</ele>
        <time>2024-10-30T14:01:26Z</time>
      </trkpt>
      <trkpt lat="48.14056" lon="6.68203">
        <ele>569.4</ele>
        <time>2024-10-30T14:01:27Z</time>
      </trkpt>
      <trkpt lat="48.14056" lon="6.68203">
        <ele>569.4</ele>
        <time>2024-10-30T14:01:28Z</time>
      </trkpt>
      <trkpt lat="48.14055" lon="6.68203">
        <ele>569.4</ele>
        <time>2024-10-30T14:01:29Z</time>
      </trkpt>
      <trkpt lat="48.14055" lon="6.68202">
        <ele>569.4</ele>
        <time>2024-10-30T14:01:30Z</time>
      </trkpt>
      <trkpt lat="48.14053" lon="6.68217">
        <ele>568.2</ele>
        <time>2024-10-30T14:02:32Z</time>
      </trkpt>
      <trkpt lat="48.14055" lon="6.68231">
        <ele>565</ele>
        <time>2024-10-30T14:02:45Z</time>
      </trkpt>
      <trkpt lat="48.14063" lon="6.68238">
        <ele>561.9</ele>
        <time>2024-10-30T14:02:59Z</time>
      </trkpt>
      <trkpt lat="48.14071" lon="6.68233">
        <ele>560.7</ele>
        <time>2024-10-30T14:03:20Z</time>
      </trkpt>
      <trkpt lat="48.14079" lon="6.68223">
        <ele>560</ele>
        <time>2024-10-30T14:03:35Z</time>
      </trkpt>
      <trkpt lat="48.14084" lon="6.68211">
        <ele>560.4</ele>
        <time>2024-10-30T14:03:52Z</time>
      </trkpt>
      <trkpt lat="48.14083" lon="6.68197">
        <ele>562.9</ele>
        <time>2024-10-30T14:04:11Z</time>
      </trkpt>
      <trkpt lat="48.14077" lon="6.68188">
        <ele>565.6</ele>
        <time>2024-10-30T14:04:33Z</time>
      </trkpt>
      <trkpt lat="48.14077" lon="6.68188">
        <ele>565.6</ele>
        <time>2024-10-30T14:04:34Z</time>
      </trkpt>
      <trkpt lat="48.14077" lon="6.68188">
        <ele>565.6</ele>
        <time>2024-10-30T14:04:35Z</time>
      </trkpt>
      <trkpt lat="48.14076" lon="6.68187">
        <ele>566</ele>
        <time>2024-10-30T14:04:38Z</time>
      </trkpt>
      <trkpt lat="48.14075" lon="6.68186">
        <ele>566</ele>
        <time>2024-10-30T14:04:39Z</time>
      </trkpt>
      <trkpt lat="48.14079" lon="6.68173">
        <ele>566</ele>
        <time>2024-10-30T14:04:53Z</time>
      </trkpt>
      <trkpt lat="48.1407" lon="6.68169">
        <ele>568.8</ele>
        <time>2024-10-30T14:05:07Z</time>
      </trkpt>
      <trkpt lat="48.1407" lon="6.68184">
        <ele>567.6</ele>
        <time>2024-10-30T14:05:16Z</time>
      </trkpt>
      <trkpt lat="48.14068" lon="6.68197">
        <ele>567.2</ele>
        <time>2024-10-30T14:05:26Z</time>
      </trkpt>
      <trkpt lat="48.14066" lon="6.68211">
        <ele>565.6</ele>
        <time>2024-10-30T14:05:35Z</time>
      </trkpt>
      <trkpt lat="48.1406" lon="6.68221">
        <ele>566.2</ele>
        <time>2024-10-30T14:05:53Z</time>
      </trkpt>
      <trkpt lat="48.1406" lon="6.68222">
        <ele>566.2</ele>
        <time>2024-10-30T14:06:01Z</time>
      </trkpt>
      <trkpt lat="48.1406" lon="6.68222">
        <ele>566.2</ele>
        <time>2024-10-30T14:06:02Z</time>
      </trkpt>
      <trkpt lat="48.1406" lon="6.68222">
        <ele>566.2</ele>
        <time>2024-10-30T14:06:03Z</time>
      </trkpt>
      <trkpt lat="48.1406" lon="6.68221">
        <ele>566.2</ele>
        <time>2024-10-30T14:06:13Z</time>
      </trkpt>
      <trkpt lat="48.1406" lon="6.68221">
        <ele>566.2</ele>
        <time>2024-10-30T14:06:14Z</time>
      </trkpt>
      <trkpt lat="48.1406" lon="6.68221">
        <ele>566.2</ele>
        <time>2024-10-30T14:06:18Z</time>
      </trkpt>
      <trkpt lat="48.1406" lon="6.68221">
        <ele>566.2</ele>
        <time>2024-10-30T14:06:19Z</time>
      </trkpt>
      <trkpt lat="48.1406" lon="6.68221">
        <ele>566.2</ele>
        <time>2024-10-30T14:07:45Z</time>
      </trkpt>
      <trkpt lat="48.14061" lon="6.68221">
        <ele>565.5</ele>
        <time>2024-10-30T14:07:46Z</time>
      </trkpt>
      <trkpt lat="48.14061" lon="6.68221">
        <ele>565.5</ele>
        <time>2024-10-30T14:07:47Z</time>
      </trkpt>
      <trkpt lat="48.14064" lon="6.68216">
        <ele>565.6</ele>
        <time>2024-10-30T14:07:58Z</time>
      </trkpt>
      <trkpt lat="48.14064" lon="6.68216">
        <ele>565.6</ele>
        <time>2024-10-30T14:07:59Z</time>
      </trkpt>
      <trkpt lat="48.14065" lon="6.68215">
        <ele>565.6</ele>
        <time>2024-10-30T14:09:28Z</time>
      </trkpt>
      <trkpt lat="48.14065" lon="6.68215">
        <ele>565.6</ele>
        <time>2024-10-30T14:09:29Z</time>
      </trkpt>
      <trkpt lat="48.14066" lon="6.68215">
        <ele>565.6</ele>
        <time>2024-10-30T14:09:30Z</time>
      </trkpt>
      <trkpt lat="48.14068" lon="6.68201">
        <ele>566.7</ele>
        <time>2024-10-30T14:09:44Z</time>
      </trkpt>
      <trkpt lat="48.14067" lon="6.68188">
        <ele>568.4</ele>
        <time>2024-10-30T14:10:00Z</time>
      </trkpt>
      <trkpt lat="48.14069" lon="6.68174">
        <ele>568.5</ele>
        <time>2024-10-30T14:10:12Z</time>
      </trkpt>
      <trkpt lat="48.14075" lon="6.68162">
        <ele>568.2</ele>
        <time>2024-10-30T14:10:23Z</time>
      </trkpt>
      <trkpt lat="48.14075" lon="6.68148">
        <ele>568.8</ele>
        <time>2024-10-30T14:10:32Z</time>
      </trkpt>
      <trkpt lat="48.14075" lon="6.68133">
        <ele>569.9</ele>
        <time>2024-10-30T14:10:41Z</time>
      </trkpt>
      <trkpt lat="48.14071" lon="6.6812">
        <ele>571.9</ele>
        <time>2024-10-30T14:10:51Z</time>
      </trkpt>
      <trkpt lat="48.14064" lon="6.68112">
        <ele>572.9</ele>
        <time>2024-10-30T14:11:00Z</time>
      </trkpt>
      <trkpt lat="48.14064" lon="6.68111">
        <ele>572.9</ele>
        <time>2024-10-30T14:11:05Z</time>
      </trkpt>
      <trkpt lat="48.14064" lon="6.68111">
        <ele>572.9</ele>
        <time>2024-10-30T14:11:06Z</time>
      </trkpt>
      <trkpt lat="48.14064" lon="6.68111">
        <ele>572.9</ele>
        <time>2024-10-30T14:11:07Z</time>
      </trkpt>
      <trkpt lat="48.14064" lon="6.68109">
        <ele>573</ele>
        <time>2024-10-30T14:11:10Z</time>
      </trkpt>
      <trkpt lat="48.14063" lon="6.68109">
        <ele>573.2</ele>
        <time>2024-10-30T14:11:11Z</time>
      </trkpt>
      <trkpt lat="48.14063" lon="6.68109">
        <ele>573.2</ele>
        <time>2024-10-30T14:11:12Z</time>
      </trkpt>
      <trkpt lat="48.14063" lon="6.68109">
        <ele>573.2</ele>
        <time>2024-10-30T14:11:13Z</time>
      </trkpt>
      <trkpt lat="48.14063" lon="6.68109">
        <ele>573.2</ele>
        <time>2024-10-30T14:11:14Z</time>
      </trkpt>
      <trkpt lat="48.14063" lon="6.68109">
        <ele>573.2</ele>
        <time>2024-10-30T14:11:15Z</time>
      </trkpt>
      <trkpt lat="48.14063" lon="6.68107">
        <ele>573</ele>
        <time>2024-10-30T14:11:19Z</time>
      </trkpt>
      <trkpt lat="48.14063" lon="6.68106">
        <ele>573.2</ele>
        <time>2024-10-30T14:11:20Z</time>
      </trkpt>
      <trkpt lat="48.14063" lon="6.68092">
        <ele>573</ele>
        <time>2024-10-30T14:11:33Z</time>
      </trkpt>
      <trkpt lat="48.14057" lon="6.68083">
        <ele>573.6</ele>
        <time>2024-10-30T14:11:45Z</time>
      </trkpt>
      <trkpt lat="48.14057" lon="6.68083">
        <ele>573.6</ele>
        <time>2024-10-30T14:11:46Z</time>
      </trkpt>
      <trkpt lat="48.14057" lon="6.68083">
        <ele>573.6</ele>
        <time>2024-10-30T14:11:47Z</time>
      </trkpt>
      <trkpt lat="48.14056" lon="6.68083">
        <ele>573.6</ele>
        <time>2024-10-30T14:12:03Z</time>
      </trkpt>
      <trkpt lat="48.14056" lon="6.68083">
        <ele>573.6</ele>
        <time>2024-10-30T14:12:04Z</time>
      </trkpt>
      <trkpt lat="48.14056" lon="6.68083">
        <ele>573.6</ele>
        <time>2024-10-30T14:12:05Z</time>
      </trkpt>
      <trkpt lat="48.14054" lon="6.68081">
        <ele>573.8</ele>
        <time>2024-10-30T14:12:10Z</time>
      </trkpt>
      <trkpt lat="48.14054" lon="6.68081">
        <ele>573.8</ele>
        <time>2024-10-30T14:12:11Z</time>
      </trkpt>
      <trkpt lat="48.14054" lon="6.68081">
        <ele>573.8</ele>
        <time>2024-10-30T14:12:12Z</time>
      </trkpt>
      <trkpt lat="48.14055" lon="6.68084">
        <ele>573.6</ele>
        <time>2024-10-30T14:12:16Z</time>
      </trkpt>
      <trkpt lat="48.14055" lon="6.68085">
        <ele>573.7</ele>
        <time>2024-10-30T14:12:17Z</time>
      </trkpt>
      <trkpt lat="48.14056" lon="6.68088">
        <ele>573.7</ele>
        <time>2024-10-30T14:12:25Z</time>
      </trkpt>
      <trkpt lat="48.14056" lon="6.68088">
        <ele>573.7</ele>
        <time>2024-10-30T14:12:26Z</time>
      </trkpt>
      <trkpt lat="48.14056" lon="6.68088">
        <ele>573.7</ele>
        <time>2024-10-30T14:12:27Z</time>
      </trkpt>
      <trkpt lat="48.14056" lon="6.68086">
        <ele>573.7</ele>
        <time>2024-10-30T14:12:40Z</time>
      </trkpt>
      <trkpt lat="48.14057" lon="6.68087">
        <ele>573.7</ele>
        <time>2024-10-30T14:12:41Z</time>
      </trkpt>
      <trkpt lat="48.14058" lon="6.68088">
        <ele>573.5</ele>
        <time>2024-10-30T14:12:42Z</time>
      </trkpt>
      <trkpt lat="48.14067" lon="6.68088">
        <ele>572.6</ele>
        <time>2024-10-30T14:12:52Z</time>
      </trkpt>
      <trkpt lat="48.14071" lon="6.68076">
        <ele>571.8</ele>
        <time>2024-10-30T14:13:04Z</time>
      </trkpt>
      <trkpt lat="48.14073" lon="6.68072">
        <ele>571.2</ele>
        <time>2024-10-30T14:13:13Z</time>
      </trkpt>
      <trkpt lat="48.14073" lon="6.68072">
        <ele>571.2</ele>
        <time>2024-10-30T14:13:14Z</time>
      </trkpt>
      <trkpt lat="48.14074" lon="6.68071">
        <ele>571</ele>
        <time>2024-10-30T14:13:21Z</time>
      </trkpt>
      <trkpt lat="48.14074" lon="6.68071">
        <ele>571</ele>
        <time>2024-10-30T14:13:22Z</time>
      </trkpt>
      <trkpt lat="48.14077" lon="6.68058">
        <ele>569.8</ele>
        <time>2024-10-30T14:13:48Z</time>
      </trkpt>
      <trkpt lat="48.14077" lon="6.68058">
        <ele>569.8</ele>
        <time>2024-10-30T14:13:49Z</time>
      </trkpt>
      <trkpt lat="48.14076" lon="6.68055">
        <ele>569.8</ele>
        <time>2024-10-30T14:13:55Z</time>
      </trkpt>
      <trkpt lat="48.14076" lon="6.68054">
        <ele>569.5</ele>
        <time>2024-10-30T14:13:56Z</time>
      </trkpt>
      <trkpt lat="48.14076" lon="6.68053">
        <ele>569.5</ele>
        <time>2024-10-30T14:13:57Z</time>
      </trkpt>
      <trkpt lat="48.14083" lon="6.68044">
        <ele>568.1</ele>
        <time>2024-10-30T14:14:11Z</time>
      </trkpt>
      <trkpt lat="48.14089" lon="6.68033">
        <ele>566.4</ele>
        <time>2024-10-30T14:14:21Z</time>
      </trkpt>
      <trkpt lat="48.14092" lon="6.6802">
        <ele>565.3</ele>
        <time>2024-10-30T14:14:30Z</time>
      </trkpt>
      <trkpt lat="48.14097" lon="6.68007">
        <ele>563.8</ele>
        <time>2024-10-30T14:14:39Z</time>
      </trkpt>
      <trkpt lat="48.14088" lon="6.67999">
        <ele>562.8</ele>
        <time>2024-10-30T14:14:45Z</time>
      </trkpt>
      <trkpt lat="48.14083" lon="6.67993">
        <ele>562</ele>
        <time>2024-10-30T14:14:56Z</time>
      </trkpt>
      <trkpt lat="48.14083" lon="6.67993">
        <ele>561.9</ele>
        <time>2024-10-30T14:14:57Z</time>
      </trkpt>
      <trkpt lat="48.14082" lon="6.67992">
        <ele>561.8</ele>
        <time>2024-10-30T14:14:58Z</time>
      </trkpt>
      <trkpt lat="48.14082" lon="6.67991">
        <ele>561.7</ele>
        <time>2024-10-30T14:14:59Z</time>
      </trkpt>
      <trkpt lat="48.14074" lon="6.67983">
        <ele>560.6</ele>
        <time>2024-10-30T14:15:08Z</time>
      </trkpt>
      <trkpt lat="48.14067" lon="6.67974">
        <ele>559.8</ele>
        <time>2024-10-30T14:15:19Z</time>
      </trkpt>
      <trkpt lat="48.14058" lon="6.67975">
        <ele>559.1</ele>
        <time>2024-10-30T14:15:29Z</time>
      </trkpt>
      <trkpt lat="48.14048" lon="6.6798">
        <ele>558.3</ele>
        <time>2024-10-30T14:15:38Z</time>
      </trkpt>
      <trkpt lat="48.14039" lon="6.67984">
        <ele>557.4</ele>
        <time>2024-10-30T14:15:46Z</time>
      </trkpt>
      <trkpt lat="48.1403" lon="6.67989">
        <ele>556.3</ele>
        <time>2024-10-30T14:15:56Z</time>
      </trkpt>
      <trkpt lat="48.14021" lon="6.67992">
        <ele>555</ele>
        <time>2024-10-30T14:16:04Z</time>
      </trkpt>
      <trkpt lat="48.14012" lon="6.67997">
        <ele>553.8</ele>
        <time>2024-10-30T14:16:14Z</time>
      </trkpt>
      <trkpt lat="48.14002" lon="6.68">
        <ele>552.2</ele>
        <time>2024-10-30T14:16:31Z</time>
      </trkpt>
      <trkpt lat="48.13995" lon="6.68008">
        <ele>550.5</ele>
        <time>2024-10-30T14:16:39Z</time>
      </trkpt>
      <trkpt lat="48.13988" lon="6.68016">
        <ele>548.7</ele>
        <time>2024-10-30T14:16:50Z</time>
      </trkpt>
      <trkpt lat="48.1398" lon="6.68024">
        <ele>546.8</ele>
        <time>2024-10-30T14:17:01Z</time>
      </trkpt>
      <trkpt lat="48.13973" lon="6.68032">
        <ele>544.6</ele>
        <time>2024-10-30T14:17:13Z</time>
      </trkpt>
      <trkpt lat="48.13972" lon="6.68033">
        <ele>544.3</ele>
        <time>2024-10-30T14:17:20Z</time>
      </trkpt>
      <trkpt lat="48.13972" lon="6.68033">
        <ele>544.3</ele>
        <time>2024-10-30T14:17:21Z</time>
      </trkpt>
      <trkpt lat="48.13972" lon="6.68034">
        <ele>544.3</ele>
        <time>2024-10-30T14:17:22Z</time>
      </trkpt>
      <trkpt lat="48.1397" lon="6.68036">
        <ele>543.7</ele>
        <time>2024-10-30T14:17:26Z</time>
      </trkpt>
      <trkpt lat="48.1397" lon="6.68037">
        <ele>543.5</ele>
        <time>2024-10-30T14:17:27Z</time>
      </trkpt>
      <trkpt lat="48.13969" lon="6.68038">
        <ele>543.4</ele>
        <time>2024-10-30T14:17:28Z</time>
      </trkpt>
      <trkpt lat="48.13963" lon="6.68049">
        <ele>541.2</ele>
        <time>2024-10-30T14:17:42Z</time>
      </trkpt>
      <trkpt lat="48.13957" lon="6.6806">
        <ele>539</ele>
        <time>2024-10-30T14:17:52Z</time>
      </trkpt>
      <trkpt lat="48.13953" lon="6.68072">
        <ele>537</ele>
        <time>2024-10-30T14:18:01Z</time>
      </trkpt>
      <trkpt lat="48.13951" lon="6.68086">
        <ele>535</ele>
        <time>2024-10-30T14:18:15Z</time>
      </trkpt>
      <trkpt lat="48.13948" lon="6.68099">
        <ele>533.1</ele>
        <time>2024-10-30T14:18:34Z</time>
      </trkpt>
      <trkpt lat="48.13945" lon="6.68112">
        <ele>531</ele>
        <time>2024-10-30T14:18:48Z</time>
      </trkpt>
      <trkpt lat="48.13942" lon="6.68125">
        <ele>529.2</ele>
        <time>2024-10-30T14:19:01Z</time>
      </trkpt>
      <trkpt lat="48.1394" lon="6.6814">
        <ele>527.4</ele>
        <time>2024-10-30T14:19:16Z</time>
      </trkpt>
      <trkpt lat="48.13937" lon="6.68152">
        <ele>525.8</ele>
        <time>2024-10-30T14:19:28Z</time>
      </trkpt>
      <trkpt lat="48.13936" lon="6.68166">
        <ele>524.2</ele>
        <time>2024-10-30T14:19:40Z</time>
      </trkpt>
      <trkpt lat="48.13933" lon="6.68179">
        <ele>522.6</ele>
        <time>2024-10-30T14:19:54Z</time>
      </trkpt>
      <trkpt lat="48.13931" lon="6.68193">
        <ele>521</ele>
        <time>2024-10-30T14:20:07Z</time>
      </trkpt>
      <trkpt lat="48.1393" lon="6.68203">
        <ele>519.9</ele>
        <time>2024-10-30T14:20:18Z</time>
      </trkpt>
      <trkpt lat="48.13931" lon="6.68203">
        <ele>519.8</ele>
        <time>2024-10-30T14:20:19Z</time>
      </trkpt>
      <trkpt lat="48.13931" lon="6.68204">
        <ele>519.7</ele>
        <time>2024-10-30T14:20:20Z</time>
      </trkpt>
      <trkpt lat="48.13931" lon="6.68205">
        <ele>519.6</ele>
        <time>2024-10-30T14:20:21Z</time>
      </trkpt>
      <trkpt lat="48.13931" lon="6.68205">
        <ele>519.6</ele>
        <time>2024-10-30T14:20:22Z</time>
      </trkpt>
      <trkpt lat="48.13931" lon="6.68213">
        <ele>518.6</ele>
        <time>2024-10-30T14:20:36Z</time>
      </trkpt>
      <trkpt lat="48.13931" lon="6.68213">
        <ele>518.6</ele>
        <time>2024-10-30T14:20:37Z</time>
      </trkpt>
      <trkpt lat="48.13931" lon="6.68213">
        <ele>518.5</ele>
        <time>2024-10-30T14:20:56Z</time>
      </trkpt>
      <trkpt lat="48.13931" lon="6.68213">
        <ele>518.5</ele>
        <time>2024-10-30T14:20:57Z</time>
      </trkpt>
      <trkpt lat="48.13931" lon="6.68213">
        <ele>518.5</ele>
        <time>2024-10-30T14:20:58Z</time>
      </trkpt>
      <trkpt lat="48.13931" lon="6.68213">
        <ele>518.5</ele>
        <time>2024-10-30T14:20:59Z</time>
      </trkpt>
      <trkpt lat="48.1393" lon="6.68214">
        <ele>518.4</ele>
        <time>2024-10-30T14:21:30Z</time>
      </trkpt>
      <trkpt lat="48.13931" lon="6.68215">
        <ele>518.2</ele>
        <time>2024-10-30T14:21:31Z</time>
      </trkpt>
      <trkpt lat="48.13931" lon="6.68216">
        <ele>518.1</ele>
        <time>2024-10-30T14:21:32Z</time>
      </trkpt>
      <trkpt lat="48.13931" lon="6.68217">
        <ele>517.9</ele>
        <time>2024-10-30T14:21:38Z</time>
      </trkpt>
      <trkpt lat="48.13931" lon="6.68217">
        <ele>517.9</ele>
        <time>2024-10-30T14:21:39Z</time>
      </trkpt>
      <trkpt lat="48.13931" lon="6.68217">
        <ele>517.9</ele>
        <time>2024-10-30T14:21:40Z</time>
      </trkpt>
      <trkpt lat="48.13931" lon="6.68219">
        <ele>517.7</ele>
        <time>2024-10-30T14:21:50Z</time>
      </trkpt>
      <trkpt lat="48.13931" lon="6.68221">
        <ele>517.5</ele>
        <time>2024-10-30T14:21:51Z</time>
      </trkpt>
      <trkpt lat="48.13931" lon="6.68222">
        <ele>517.4</ele>
        <time>2024-10-30T14:21:52Z</time>
      </trkpt>
      <trkpt lat="48.1393" lon="6.68231">
        <ele>516.2</ele>
        <time>2024-10-30T14:22:04Z</time>
      </trkpt>
      <trkpt lat="48.1393" lon="6.68231">
        <ele>516.2</ele>
        <time>2024-10-30T14:22:05Z</time>
      </trkpt>
      <trkpt lat="48.13929" lon="6.68232">
        <ele>516</ele>
        <time>2024-10-30T14:23:04Z</time>
      </trkpt>
      <trkpt lat="48.13929" lon="6.68234">
        <ele>515.8</ele>
        <time>2024-10-30T14:23:05Z</time>
      </trkpt>
      <trkpt lat="48.13925" lon="6.68246">
        <ele>514.8</ele>
        <time>2024-10-30T14:23:15Z</time>
      </trkpt>
      <trkpt lat="48.13929" lon="6.68258">
        <ele>514.3</ele>
        <time>2024-10-30T14:23:34Z</time>
      </trkpt>
      <trkpt lat="48.1393" lon="6.68259">
        <ele>514.2</ele>
        <time>2024-10-30T14:23:38Z</time>
      </trkpt>
      <trkpt lat="48.1393" lon="6.68259">
        <ele>514.2</ele>
        <time>2024-10-30T14:23:39Z</time>
      </trkpt>
      <trkpt lat="48.1393" lon="6.6826">
        <ele>514.2</ele>
        <time>2024-10-30T14:23:40Z</time>
      </trkpt>
      <trkpt lat="48.1393" lon="6.6826">
        <ele>514.2</ele>
        <time>2024-10-30T14:23:41Z</time>
      </trkpt>
      <trkpt lat="48.1393" lon="6.68261">
        <ele>514.2</ele>
        <time>2024-10-30T14:23:42Z</time>
      </trkpt>
      <trkpt lat="48.13931" lon="6.68261">
        <ele>514.1</ele>
        <time>2024-10-30T14:23:48Z</time>
      </trkpt>
      <trkpt lat="48.13931" lon="6.68261">
        <ele>514.1</ele>
        <time>2024-10-30T14:23:49Z</time>
      </trkpt>
      <trkpt lat="48.13931" lon="6.68262">
        <ele>514.1</ele>
        <time>2024-10-30T14:23:50Z</time>
      </trkpt>
      <trkpt lat="48.13932" lon="6.68264">
        <ele>514</ele>
        <time>2024-10-30T14:23:51Z</time>
      </trkpt>
      <trkpt lat="48.13932" lon="6.68265">
        <ele>514</ele>
        <time>2024-10-30T14:23:52Z</time>
      </trkpt>
      <trkpt lat="48.13937" lon="6.68278">
        <ele>513.3</ele>
        <time>2024-10-30T14:24:02Z</time>
      </trkpt>
      <trkpt lat="48.1394" lon="6.68291">
        <ele>512.7</ele>
        <time>2024-10-30T14:24:11Z</time>
      </trkpt>
      <trkpt lat="48.13942" lon="6.68295">
        <ele>512.5</ele>
        <time>2024-10-30T14:24:19Z</time>
      </trkpt>
      <trkpt lat="48.13942" lon="6.68295">
        <ele>512.5</ele>
        <time>2024-10-30T14:24:20Z</time>
      </trkpt>
      <trkpt lat="48.13944" lon="6.68298">
        <ele>512.3</ele>
        <time>2024-10-30T14:24:55Z</time>
      </trkpt>
      <trkpt lat="48.13945" lon="6.68298">
        <ele>512.2</ele>
        <time>2024-10-30T14:24:56Z</time>
      </trkpt>
      <trkpt lat="48.13945" lon="6.68299">
        <ele>512.1</ele>
        <time>2024-10-30T14:24:57Z</time>
      </trkpt>
      <trkpt lat="48.13951" lon="6.68312">
        <ele>511.4</ele>
        <time>2024-10-30T14:25:07Z</time>
      </trkpt>
      <trkpt lat="48.13956" lon="6.68324">
        <ele>510.7</ele>
        <time>2024-10-30T14:25:16Z</time>
      </trkpt>
      <trkpt lat="48.13961" lon="6.68337">
        <ele>509.8</ele>
        <time>2024-10-30T14:25:27Z</time>
      </trkpt>
      <trkpt lat="48.13967" lon="6.68348">
        <ele>509</ele>
        <time>2024-10-30T14:25:36Z</time>
      </trkpt>
      <trkpt lat="48.13975" lon="6.68356">
        <ele>508.2</ele>
        <time>2024-10-30T14:25:46Z</time>
      </trkpt>
      <trkpt lat="48.13982" lon="6.68365">
        <ele>507.5</ele>
        <time>2024-10-30T14:25:54Z</time>
      </trkpt>
      <trkpt lat="48.13991" lon="6.68373">
        <ele>506.6</ele>
        <time>2024-10-30T14:26:03Z</time>
      </trkpt>
      <trkpt lat="48.13999" lon="6.6838">
        <ele>505.3</ele>
        <time>2024-10-30T14:26:12Z</time>
      </trkpt>
      <trkpt lat="48.14006" lon="6.6839">
        <ele>503.6</ele>
        <time>2024-10-30T14:26:23Z</time>
      </trkpt>
      <trkpt lat="48.14008" lon="6.68404">
        <ele>501.4</ele>
        <time>2024-10-30T14:26:42Z</time>
      </trkpt>
      <trkpt lat="48.14005" lon="6.68407">
        <ele>500.5</ele>
        <time>2024-10-30T14:26:53Z</time>
      </trkpt>
      <trkpt lat="48.14005" lon="6.68407">
        <ele>500.4</ele>
        <time>2024-10-30T14:26:54Z</time>
      </trkpt>
      <trkpt lat="48.14005" lon="6.68407">
        <ele>500.3</ele>
        <time>2024-10-30T14:26:55Z</time>
      </trkpt>
      <trkpt lat="48.14004" lon="6.68408">
        <ele>500.2</ele>
        <time>2024-10-30T14:26:56Z</time>
      </trkpt>
      <trkpt lat="48.14004" lon="6.68408">
        <ele>500.2</ele>
        <time>2024-10-30T14:26:57Z</time>
      </trkpt>
      <trkpt lat="48.14004" lon="6.6841">
        <ele>499.7</ele>
        <time>2024-10-30T14:27:03Z</time>
      </trkpt>
      <trkpt lat="48.14004" lon="6.6841">
        <ele>499.6</ele>
        <time>2024-10-30T14:27:04Z</time>
      </trkpt>
      <trkpt lat="48.14005" lon="6.68411">
        <ele>499.5</ele>
        <time>2024-10-30T14:27:05Z</time>
      </trkpt>
      <trkpt lat="48.14005" lon="6.68412">
        <ele>499.2</ele>
        <time>2024-10-30T14:27:16Z</time>
      </trkpt>
      <trkpt lat="48.14005" lon="6.68412">
        <ele>499.1</ele>
        <time>2024-10-30T14:27:17Z</time>
      </trkpt>
      <trkpt lat="48.14" lon="6.68424">
        <ele>496.2</ele>
        <time>2024-10-30T14:27:38Z</time>
      </trkpt>
      <trkpt lat="48.13994" lon="6.68434">
        <ele>493.4</ele>
        <time>2024-10-30T14:27:56Z</time>
      </trkpt>
      <trkpt lat="48.13992" lon="6.68448">
        <ele>490.3</ele>
        <time>2024-10-30T14:28:06Z</time>
      </trkpt>
      <trkpt lat="48.13987" lon="6.68461">
        <ele>487.3</ele>
        <time>2024-10-30T14:28:16Z</time>
      </trkpt>
      <trkpt lat="48.13985" lon="6.68474">
        <ele>484.5</ele>
        <time>2024-10-30T14:28:34Z</time>
      </trkpt>
      <trkpt lat="48.13982" lon="6.68487">
        <ele>482.1</ele>
        <time>2024-10-30T14:28:43Z</time>
      </trkpt>
      <trkpt lat="48.13989" lon="6.68498">
        <ele>479.7</ele>
        <time>2024-10-30T14:28:50Z</time>
      </trkpt>
      <trkpt lat="48.13998" lon="6.68499">
        <ele>477.8</ele>
        <time>2024-10-30T14:28:58Z</time>
      </trkpt>
      <trkpt lat="48.14003" lon="6.68506">
        <ele>476.8</ele>
        <time>2024-10-30T14:29:13Z</time>
      </trkpt>
      <trkpt lat="48.14003" lon="6.68506">
        <ele>476.8</ele>
        <time>2024-10-30T14:29:14Z</time>
      </trkpt>
      <trkpt lat="48.14003" lon="6.68505">
        <ele>476.7</ele>
        <time>2024-10-30T14:29:18Z</time>
      </trkpt>
      <trkpt lat="48.14003" lon="6.68505">
        <ele>476.7</ele>
        <time>2024-10-30T14:29:19Z</time>
      </trkpt>
      <trkpt lat="48.14003" lon="6.68505">
        <ele>476.7</ele>
        <time>2024-10-30T14:29:20Z</time>
      </trkpt>
      <trkpt lat="48.14003" lon="6.68505">
        <ele>476.7</ele>
        <time>2024-10-30T14:29:21Z</time>
      </trkpt>
      <trkpt lat="48.14003" lon="6.68505">
        <ele>476.7</ele>
        <time>2024-10-30T14:29:22Z</time>
      </trkpt>
      <trkpt lat="48.14002" lon="6.68505">
        <ele>476.7</ele>
        <time>2024-10-30T14:29:55Z</time>
      </trkpt>
      <trkpt lat="48.14003" lon="6.68504">
        <ele>476.6</ele>
        <time>2024-10-30T14:29:56Z</time>
      </trkpt>
      <trkpt lat="48.14003" lon="6.68504">
        <ele>476.5</ele>
        <time>2024-10-30T14:29:57Z</time>
      </trkpt>
      <trkpt lat="48.14012" lon="6.68501">
        <ele>475.3</ele>
        <time>2024-10-30T14:30:08Z</time>
      </trkpt>
      <trkpt lat="48.14022" lon="6.68501">
        <ele>474.2</ele>
        <time>2024-10-30T14:30:17Z</time>
      </trkpt>
      <trkpt lat="48.14031" lon="6.685">
        <ele>473.3</ele>
        <time>2024-10-30T14:30:26Z</time>
      </trkpt>
      <trkpt lat="48.1404" lon="6.685">
        <ele>472.5</ele>
        <time>2024-10-30T14:30:34Z</time>
      </trkpt>
      <trkpt lat="48.1405" lon="6.68498">
        <ele>471.8</ele>
        <time>2024-10-30T14:30:42Z</time>
      </trkpt>
      <trkpt lat="48.14059" lon="6.68504">
        <ele>472</ele>
        <time>2024-10-30T14:30:50Z</time>
      </trkpt>
      <trkpt lat="48.14068" lon="6.68501">
        <ele>472.5</ele>
        <time>2024-10-30T14:30:57Z</time>
      </trkpt>
      <trkpt lat="48.14076" lon="6.68497">
        <ele>473</ele>
        <time>2024-10-30T14:31:04Z</time>
      </trkpt>
      <trkpt lat="48.14086" lon="6.68492">
        <ele>473.5</ele>
        <time>2024-10-30T14:31:12Z</time>
      </trkpt>
      <trkpt lat="48.14095" lon="6.68486">
        <ele>474</ele>
        <time>2024-10-30T14:31:20Z</time>
      </trkpt>
      <trkpt lat="48.14105" lon="6.68481">
        <ele>474.5</ele>
        <time>2024-10-30T14:31:28Z</time>
      </trkpt>
      <trkpt lat="48.14113" lon="6.68477">
        <ele>474.9</ele>
        <time>2024-10-30T14:31:36Z</time>
      </trkpt>
      <trkpt lat="48.14123" lon="6.68471">
        <ele>475.4</ele>
        <time>2024-10-30T14:31:44Z</time>
      </trkpt>
      <trkpt lat="48.14132" lon="6.68466">
        <ele>475.8</ele>
        <time>2024-10-30T14:31:56Z</time>
      </trkpt>
      <trkpt lat="48.1414" lon="6.68461">
        <ele>476.3</ele>
        <time>2024-10-30T14:32:02Z</time>
      </trkpt>
      <trkpt lat="48.14149" lon="6.68456">
        <ele>476.7</ele>
        <time>2024-10-30T14:32:09Z</time>
      </trkpt>
      <trkpt lat="48.14157" lon="6.68448">
        <ele>477.1</ele>
        <time>2024-10-30T14:32:16Z</time>
      </trkpt>
      <trkpt lat="48.14165" lon="6.68442">
        <ele>477.5</ele>
        <time>2024-10-30T14:32:23Z</time>
      </trkpt>
      <trkpt lat="48.14174" lon="6.68435">
        <ele>477.9</ele>
        <time>2024-10-30T14:32:31Z</time>
      </trkpt>
      <trkpt lat="48.14182" lon="6.68428">
        <ele>478.2</ele>
        <time>2024-10-30T14:32:38Z</time>
      </trkpt>
      <trkpt lat="48.1419" lon="6.68421">
        <ele>478.6</ele>
        <time>2024-10-30T14:32:45Z</time>
      </trkpt>
      <trkpt lat="48.14199" lon="6.68414">
        <ele>478.9</ele>
        <time>2024-10-30T14:32:53Z</time>
      </trkpt>
      <trkpt lat="48.14207" lon="6.68405">
        <ele>479.2</ele>
        <time>2024-10-30T14:33:05Z</time>
      </trkpt>
      <trkpt lat="48.14215" lon="6.68398">
        <ele>479.6</ele>
        <time>2024-10-30T14:33:12Z</time>
      </trkpt>
      <trkpt lat="48.14223" lon="6.68391">
        <ele>479.8</ele>
        <time>2024-10-30T14:33:21Z</time>
      </trkpt>
      <trkpt lat="48.14231" lon="6.68384">
        <ele>480.1</ele>
        <time>2024-10-30T14:33:29Z</time>
      </trkpt>
      <trkpt lat="48.14239" lon="6.68377">
        <ele>480.4</ele>
        <time>2024-10-30T14:33:37Z</time>
      </trkpt>
      <trkpt lat="48.14247" lon="6.68367">
        <ele>480.5</ele>
        <time>2024-10-30T14:33:45Z</time>
      </trkpt>
      <trkpt lat="48.14257" lon="6.68362">
        <ele>480.6</ele>
        <time>2024-10-30T14:33:53Z</time>
      </trkpt>
      <trkpt lat="48.14264" lon="6.68352">
        <ele>480.6</ele>
        <time>2024-10-30T14:34:00Z</time>
      </trkpt>
      <trkpt lat="48.14272" lon="6.68346">
        <ele>480.5</ele>
        <time>2024-10-30T14:34:07Z</time>
      </trkpt>
      <trkpt lat="48.1428" lon="6.6834">
        <ele>480.4</ele>
        <time>2024-10-30T14:34:13Z</time>
      </trkpt>
      <trkpt lat="48.14287" lon="6.68329">
        <ele>480.4</ele>
        <time>2024-10-30T14:34:19Z</time>
      </trkpt>
      <trkpt lat="48.14289" lon="6.68314">
        <ele>480.5</ele>
        <time>2024-10-30T14:34:26Z</time>
      </trkpt>
      <trkpt lat="48.14291" lon="6.683">
        <ele>480.7</ele>
        <time>2024-10-30T14:34:34Z</time>
      </trkpt>
      <trkpt lat="48.14294" lon="6.68286">
        <ele>480.8</ele>
        <time>2024-10-30T14:34:42Z</time>
      </trkpt>
      <trkpt lat="48.14296" lon="6.68272">
        <ele>481</ele>
        <time>2024-10-30T14:34:50Z</time>
      </trkpt>
      <trkpt lat="48.14301" lon="6.68259">
        <ele>481.2</ele>
        <time>2024-10-30T14:34:58Z</time>
      </trkpt>
      <trkpt lat="48.14306" lon="6.68247">
        <ele>481.4</ele>
        <time>2024-10-30T14:35:06Z</time>
      </trkpt>
      <trkpt lat="48.14311" lon="6.68235">
        <ele>481.6</ele>
        <time>2024-10-30T14:35:14Z</time>
      </trkpt>
      <trkpt lat="48.14319" lon="6.68225">
        <ele>481.8</ele>
        <time>2024-10-30T14:35:22Z</time>
      </trkpt>
      <trkpt lat="48.1433" lon="6.68214">
        <ele>481.9</ele>
        <time>2024-10-30T14:35:29Z</time>
      </trkpt>
      <trkpt lat="48.14333" lon="6.68212">
        <ele>482</ele>
        <time>2024-10-30T14:35:37Z</time>
      </trkpt>
      <trkpt lat="48.14336" lon="6.68209">
        <ele>482</ele>
        <time>2024-10-30T14:35:45Z</time>
      </trkpt>
      <trkpt lat="48.14339" lon="6.68207">
        <ele>482</ele>
        <time>2024-10-30T14:35:53Z</time>
      </trkpt>
      <trkpt lat="48.14342" lon="6.68205">
        <ele>482.1</ele>
        <time>2024-10-30T14:36:01Z</time>
      </trkpt>
      <trkpt lat="48.14345" lon="6.68202">
        <ele>482.1</ele>
        <time>2024-10-30T14:36:02Z</time>
      </trkpt>
      <trkpt lat="48.14348" lon="6.682">
        <ele>482.1</ele>
        <time>2024-10-30T14:36:03Z</time>
      </trkpt>
      <trkpt lat="48.14351" lon="6.68198">
        <ele>482.1</ele>
        <time>2024-10-30T14:36:04Z</time>
      </trkpt>
      <trkpt lat="48.14354" lon="6.68196">
        <ele>482.1</ele>
        <time>2024-10-30T14:36:04Z</time>
      </trkpt>
      <trkpt lat="48.14354" lon="6.68196">
        <ele>482.1</ele>
        <time>2024-10-30T14:36:04Z</time>
      </trkpt>
      <trkpt lat="48.14354" lon="6.68196">
        <ele>482.1</ele>
        <time>2024-10-30T14:36:04Z</time>
      </trkpt>
    </trkseg>
  </trk>
</gpx>